<?xml version="1.0" encoding="UTF-8" standalone="no" ?>
<gpx xmlns="http://www.topografix.com/GPX/1/1" xmlns:xsi="http://www.w3.org/2001/XMLSchema-instance" xsi:schemaLocation="http://www.topografix.com/GPX/1/1 http://www.topografix.com/GPX/1/1/gpx.xsd" version="1.1" creator="VisuGPX - https://www.visugpx.com">
  <metadata>
    <name>83-Me-Draguignan</name>
    <desc><![CDATA[83-Me-Draguignan : le Figueiret - la Darboussière
2020-09-16]]></desc>
  </metadata>
  <trk>
    <name><![CDATA[2020-09-16-Me-Flayosc]]></name>
    <trkseg>
      <trkpt lat="43.55788" lon="6.40267">
        <ele>392.5</ele>
        <time>2020-09-16T12:04:49Z</time>
      </trkpt>
      <trkpt lat="43.55792" lon="6.40264">
        <ele>392.6</ele>
        <time>2020-09-16T12:04:54Z</time>
      </trkpt>
      <trkpt lat="43.55795" lon="6.40262">
        <ele>392.7</ele>
        <time>2020-09-16T12:04:58Z</time>
      </trkpt>
      <trkpt lat="43.55798" lon="6.40259">
        <ele>393</ele>
        <time>2020-09-16T12:05:01Z</time>
      </trkpt>
      <trkpt lat="43.55801" lon="6.40259">
        <ele>393.3</ele>
        <time>2020-09-16T12:05:05Z</time>
      </trkpt>
      <trkpt lat="43.55805" lon="6.40258">
        <ele>393.7</ele>
        <time>2020-09-16T12:05:09Z</time>
      </trkpt>
      <trkpt lat="43.55809" lon="6.40258">
        <ele>394</ele>
        <time>2020-09-16T12:05:13Z</time>
      </trkpt>
      <trkpt lat="43.55813" lon="6.40256">
        <ele>394.5</ele>
        <time>2020-09-16T12:05:18Z</time>
      </trkpt>
      <trkpt lat="43.55817" lon="6.40254">
        <ele>394.9</ele>
        <time>2020-09-16T12:05:22Z</time>
      </trkpt>
      <trkpt lat="43.55821" lon="6.40253">
        <ele>395.4</ele>
        <time>2020-09-16T12:05:27Z</time>
      </trkpt>
      <trkpt lat="43.55825" lon="6.4025">
        <ele>395.8</ele>
        <time>2020-09-16T12:05:32Z</time>
      </trkpt>
      <trkpt lat="43.55829" lon="6.40248">
        <ele>396.3</ele>
        <time>2020-09-16T12:05:37Z</time>
      </trkpt>
      <trkpt lat="43.5583" lon="6.40248">
        <ele>396.3</ele>
        <time>2020-09-16T12:05:38Z</time>
      </trkpt>
      <trkpt lat="43.55836" lon="6.40242">
        <ele>397.4</ele>
        <time>2020-09-16T12:05:48Z</time>
      </trkpt>
      <trkpt lat="43.55839" lon="6.40239">
        <ele>397.9</ele>
        <time>2020-09-16T12:05:54Z</time>
      </trkpt>
      <trkpt lat="43.55842" lon="6.40235">
        <ele>398.4</ele>
        <time>2020-09-16T12:05:59Z</time>
      </trkpt>
      <trkpt lat="43.55845" lon="6.40232">
        <ele>399.2</ele>
        <time>2020-09-16T12:06:04Z</time>
      </trkpt>
      <trkpt lat="43.55848" lon="6.40228">
        <ele>399.9</ele>
        <time>2020-09-16T12:06:10Z</time>
      </trkpt>
      <trkpt lat="43.5585" lon="6.40223">
        <ele>400.4</ele>
        <time>2020-09-16T12:06:16Z</time>
      </trkpt>
      <trkpt lat="43.55851" lon="6.40217">
        <ele>401.2</ele>
        <time>2020-09-16T12:06:24Z</time>
      </trkpt>
      <trkpt lat="43.55851" lon="6.40212">
        <ele>401.8</ele>
        <time>2020-09-16T12:06:32Z</time>
      </trkpt>
      <trkpt lat="43.55852" lon="6.40206">
        <ele>402.5</ele>
        <time>2020-09-16T12:06:40Z</time>
      </trkpt>
      <trkpt lat="43.55853" lon="6.40205">
        <ele>402.5</ele>
        <time>2020-09-16T12:06:41Z</time>
      </trkpt>
      <trkpt lat="43.55856" lon="6.40196">
        <ele>402.9</ele>
        <time>2020-09-16T12:06:48Z</time>
      </trkpt>
      <trkpt lat="43.55857" lon="6.40191">
        <ele>403.1</ele>
        <time>2020-09-16T12:06:51Z</time>
      </trkpt>
      <trkpt lat="43.55858" lon="6.40186">
        <ele>403.4</ele>
        <time>2020-09-16T12:06:57Z</time>
      </trkpt>
      <trkpt lat="43.55861" lon="6.40181">
        <ele>403.9</ele>
        <time>2020-09-16T12:07:02Z</time>
      </trkpt>
      <trkpt lat="43.55864" lon="6.40177">
        <ele>404.2</ele>
        <time>2020-09-16T12:07:06Z</time>
      </trkpt>
      <trkpt lat="43.55866" lon="6.40172">
        <ele>404.5</ele>
        <time>2020-09-16T12:07:10Z</time>
      </trkpt>
      <trkpt lat="43.55868" lon="6.40167">
        <ele>404.9</ele>
        <time>2020-09-16T12:07:16Z</time>
      </trkpt>
      <trkpt lat="43.55871" lon="6.40163">
        <ele>405</ele>
        <time>2020-09-16T12:07:21Z</time>
      </trkpt>
      <trkpt lat="43.55874" lon="6.4016">
        <ele>405.1</ele>
        <time>2020-09-16T12:07:29Z</time>
      </trkpt>
      <trkpt lat="43.55878" lon="6.40157">
        <ele>405.2</ele>
        <time>2020-09-16T12:07:34Z</time>
      </trkpt>
      <trkpt lat="43.55881" lon="6.40153">
        <ele>405.5</ele>
        <time>2020-09-16T12:07:39Z</time>
      </trkpt>
      <trkpt lat="43.55884" lon="6.4015">
        <ele>405.7</ele>
        <time>2020-09-16T12:07:44Z</time>
      </trkpt>
      <trkpt lat="43.55885" lon="6.40149">
        <ele>405.8</ele>
        <time>2020-09-16T12:07:45Z</time>
      </trkpt>
      <trkpt lat="43.5589" lon="6.40142">
        <ele>405.9</ele>
        <time>2020-09-16T12:07:58Z</time>
      </trkpt>
      <trkpt lat="43.55892" lon="6.40137">
        <ele>406.1</ele>
        <time>2020-09-16T12:08:03Z</time>
      </trkpt>
      <trkpt lat="43.55895" lon="6.40132">
        <ele>406.3</ele>
        <time>2020-09-16T12:08:08Z</time>
      </trkpt>
      <trkpt lat="43.55898" lon="6.40128">
        <ele>406.7</ele>
        <time>2020-09-16T12:08:15Z</time>
      </trkpt>
      <trkpt lat="43.559" lon="6.40124">
        <ele>406.9</ele>
        <time>2020-09-16T12:08:17Z</time>
      </trkpt>
      <trkpt lat="43.55901" lon="6.40119">
        <ele>407.1</ele>
        <time>2020-09-16T12:08:20Z</time>
      </trkpt>
      <trkpt lat="43.55904" lon="6.40116">
        <ele>407.5</ele>
        <time>2020-09-16T12:08:25Z</time>
      </trkpt>
      <trkpt lat="43.55907" lon="6.40112">
        <ele>407.7</ele>
        <time>2020-09-16T12:08:28Z</time>
      </trkpt>
      <trkpt lat="43.5591" lon="6.40108">
        <ele>408</ele>
        <time>2020-09-16T12:08:33Z</time>
      </trkpt>
      <trkpt lat="43.55914" lon="6.40105">
        <ele>408.3</ele>
        <time>2020-09-16T12:08:40Z</time>
      </trkpt>
      <trkpt lat="43.55916" lon="6.401">
        <ele>408.7</ele>
        <time>2020-09-16T12:08:47Z</time>
      </trkpt>
      <trkpt lat="43.55917" lon="6.401">
        <ele>408.8</ele>
        <time>2020-09-16T12:08:48Z</time>
      </trkpt>
      <trkpt lat="43.55921" lon="6.40091">
        <ele>409.6</ele>
        <time>2020-09-16T12:08:57Z</time>
      </trkpt>
      <trkpt lat="43.55924" lon="6.40087">
        <ele>409.9</ele>
        <time>2020-09-16T12:09:01Z</time>
      </trkpt>
      <trkpt lat="43.55927" lon="6.40083">
        <ele>410.2</ele>
        <time>2020-09-16T12:09:04Z</time>
      </trkpt>
      <trkpt lat="43.55929" lon="6.40078">
        <ele>410.7</ele>
        <time>2020-09-16T12:09:11Z</time>
      </trkpt>
      <trkpt lat="43.55931" lon="6.40073">
        <ele>411.1</ele>
        <time>2020-09-16T12:09:18Z</time>
      </trkpt>
      <trkpt lat="43.55932" lon="6.40067">
        <ele>411.3</ele>
        <time>2020-09-16T12:09:22Z</time>
      </trkpt>
      <trkpt lat="43.55934" lon="6.40063">
        <ele>411.8</ele>
        <time>2020-09-16T12:09:26Z</time>
      </trkpt>
      <trkpt lat="43.55938" lon="6.4006">
        <ele>412.2</ele>
        <time>2020-09-16T12:09:30Z</time>
      </trkpt>
      <trkpt lat="43.55941" lon="6.40056">
        <ele>412.6</ele>
        <time>2020-09-16T12:09:35Z</time>
      </trkpt>
      <trkpt lat="43.55943" lon="6.40051">
        <ele>412.9</ele>
        <time>2020-09-16T12:09:39Z</time>
      </trkpt>
      <trkpt lat="43.55946" lon="6.40047">
        <ele>413.2</ele>
        <time>2020-09-16T12:09:46Z</time>
      </trkpt>
      <trkpt lat="43.55947" lon="6.40042">
        <ele>413.5</ele>
        <time>2020-09-16T12:09:52Z</time>
      </trkpt>
      <trkpt lat="43.55948" lon="6.40041">
        <ele>413.6</ele>
        <time>2020-09-16T12:09:53Z</time>
      </trkpt>
      <trkpt lat="43.55955" lon="6.40037">
        <ele>414.3</ele>
        <time>2020-09-16T12:10:02Z</time>
      </trkpt>
      <trkpt lat="43.55958" lon="6.40035">
        <ele>414.6</ele>
        <time>2020-09-16T12:10:06Z</time>
      </trkpt>
      <trkpt lat="43.55961" lon="6.40031">
        <ele>414.9</ele>
        <time>2020-09-16T12:10:10Z</time>
      </trkpt>
      <trkpt lat="43.55964" lon="6.40028">
        <ele>415.2</ele>
        <time>2020-09-16T12:10:14Z</time>
      </trkpt>
      <trkpt lat="43.55967" lon="6.40025">
        <ele>415.7</ele>
        <time>2020-09-16T12:10:19Z</time>
      </trkpt>
      <trkpt lat="43.55969" lon="6.4002">
        <ele>416.3</ele>
        <time>2020-09-16T12:10:24Z</time>
      </trkpt>
      <trkpt lat="43.55972" lon="6.40017">
        <ele>416.6</ele>
        <time>2020-09-16T12:10:28Z</time>
      </trkpt>
      <trkpt lat="43.55975" lon="6.40015">
        <ele>417</ele>
        <time>2020-09-16T12:10:33Z</time>
      </trkpt>
      <trkpt lat="43.5598" lon="6.40014">
        <ele>417.4</ele>
        <time>2020-09-16T12:10:39Z</time>
      </trkpt>
      <trkpt lat="43.55983" lon="6.40012">
        <ele>418</ele>
        <time>2020-09-16T12:10:46Z</time>
      </trkpt>
      <trkpt lat="43.55987" lon="6.4001">
        <ele>418.6</ele>
        <time>2020-09-16T12:10:51Z</time>
      </trkpt>
      <trkpt lat="43.55989" lon="6.40006">
        <ele>419</ele>
        <time>2020-09-16T12:10:56Z</time>
      </trkpt>
      <trkpt lat="43.5599" lon="6.40005">
        <ele>419.1</ele>
        <time>2020-09-16T12:10:57Z</time>
      </trkpt>
      <trkpt lat="43.55995" lon="6.39997">
        <ele>419.9</ele>
        <time>2020-09-16T12:11:06Z</time>
      </trkpt>
      <trkpt lat="43.55997" lon="6.39992">
        <ele>420.5</ele>
        <time>2020-09-16T12:11:12Z</time>
      </trkpt>
      <trkpt lat="43.55999" lon="6.39988">
        <ele>421</ele>
        <time>2020-09-16T12:11:16Z</time>
      </trkpt>
      <trkpt lat="43.56001" lon="6.39984">
        <ele>421.2</ele>
        <time>2020-09-16T12:11:20Z</time>
      </trkpt>
      <trkpt lat="43.56005" lon="6.3998">
        <ele>421.7</ele>
        <time>2020-09-16T12:11:25Z</time>
      </trkpt>
      <trkpt lat="43.56008" lon="6.39977">
        <ele>422</ele>
        <time>2020-09-16T12:11:29Z</time>
      </trkpt>
      <trkpt lat="43.56012" lon="6.39979">
        <ele>423</ele>
        <time>2020-09-16T12:11:38Z</time>
      </trkpt>
      <trkpt lat="43.56016" lon="6.39983">
        <ele>423.9</ele>
        <time>2020-09-16T12:11:45Z</time>
      </trkpt>
      <trkpt lat="43.56018" lon="6.39987">
        <ele>424.5</ele>
        <time>2020-09-16T12:11:50Z</time>
      </trkpt>
      <trkpt lat="43.5602" lon="6.39992">
        <ele>425</ele>
        <time>2020-09-16T12:11:55Z</time>
      </trkpt>
      <trkpt lat="43.56022" lon="6.39996">
        <ele>425.2</ele>
        <time>2020-09-16T12:11:59Z</time>
      </trkpt>
      <trkpt lat="43.56022" lon="6.39998">
        <ele>425.2</ele>
        <time>2020-09-16T12:12:00Z</time>
      </trkpt>
      <trkpt lat="43.56027" lon="6.40004">
        <ele>425.8</ele>
        <time>2020-09-16T12:12:09Z</time>
      </trkpt>
      <trkpt lat="43.56031" lon="6.40006">
        <ele>426</ele>
        <time>2020-09-16T12:12:13Z</time>
      </trkpt>
      <trkpt lat="43.56035" lon="6.40007">
        <ele>426.5</ele>
        <time>2020-09-16T12:12:20Z</time>
      </trkpt>
      <trkpt lat="43.56039" lon="6.40005">
        <ele>427.1</ele>
        <time>2020-09-16T12:12:27Z</time>
      </trkpt>
      <trkpt lat="43.56041" lon="6.40001">
        <ele>427.5</ele>
        <time>2020-09-16T12:12:31Z</time>
      </trkpt>
      <trkpt lat="43.56044" lon="6.39997">
        <ele>427.8</ele>
        <time>2020-09-16T12:12:35Z</time>
      </trkpt>
      <trkpt lat="43.56048" lon="6.39995">
        <ele>428.1</ele>
        <time>2020-09-16T12:12:39Z</time>
      </trkpt>
      <trkpt lat="43.56051" lon="6.39993">
        <ele>428.4</ele>
        <time>2020-09-16T12:12:44Z</time>
      </trkpt>
      <trkpt lat="43.56055" lon="6.39991">
        <ele>429.1</ele>
        <time>2020-09-16T12:12:52Z</time>
      </trkpt>
      <trkpt lat="43.56058" lon="6.39988">
        <ele>429.5</ele>
        <time>2020-09-16T12:12:56Z</time>
      </trkpt>
      <trkpt lat="43.56061" lon="6.39986">
        <ele>429.9</ele>
        <time>2020-09-16T12:12:59Z</time>
      </trkpt>
      <trkpt lat="43.56064" lon="6.39983">
        <ele>430.4</ele>
        <time>2020-09-16T12:13:03Z</time>
      </trkpt>
      <trkpt lat="43.56065" lon="6.39982">
        <ele>430.6</ele>
        <time>2020-09-16T12:13:04Z</time>
      </trkpt>
      <trkpt lat="43.5607" lon="6.39977">
        <ele>431.7</ele>
        <time>2020-09-16T12:13:13Z</time>
      </trkpt>
      <trkpt lat="43.56074" lon="6.39975">
        <ele>432.5</ele>
        <time>2020-09-16T12:13:19Z</time>
      </trkpt>
      <trkpt lat="43.56078" lon="6.39975">
        <ele>433.3</ele>
        <time>2020-09-16T12:13:25Z</time>
      </trkpt>
      <trkpt lat="43.56082" lon="6.39976">
        <ele>434.2</ele>
        <time>2020-09-16T12:13:31Z</time>
      </trkpt>
      <trkpt lat="43.56086" lon="6.39976">
        <ele>435.3</ele>
        <time>2020-09-16T12:13:39Z</time>
      </trkpt>
      <trkpt lat="43.5609" lon="6.39975">
        <ele>435.8</ele>
        <time>2020-09-16T12:13:44Z</time>
      </trkpt>
      <trkpt lat="43.56094" lon="6.39973">
        <ele>436.2</ele>
        <time>2020-09-16T12:13:48Z</time>
      </trkpt>
      <trkpt lat="43.56098" lon="6.39974">
        <ele>436.8</ele>
        <time>2020-09-16T12:13:54Z</time>
      </trkpt>
      <trkpt lat="43.56102" lon="6.39975">
        <ele>437.3</ele>
        <time>2020-09-16T12:13:59Z</time>
      </trkpt>
      <trkpt lat="43.56106" lon="6.39975">
        <ele>437.7</ele>
        <time>2020-09-16T12:14:03Z</time>
      </trkpt>
      <trkpt lat="43.5611" lon="6.39973">
        <ele>438.1</ele>
        <time>2020-09-16T12:14:06Z</time>
      </trkpt>
      <trkpt lat="43.56111" lon="6.39973">
        <ele>438.2</ele>
        <time>2020-09-16T12:14:07Z</time>
      </trkpt>
      <trkpt lat="43.56117" lon="6.39973">
        <ele>438.7</ele>
        <time>2020-09-16T12:14:13Z</time>
      </trkpt>
      <trkpt lat="43.56121" lon="6.39974">
        <ele>439.2</ele>
        <time>2020-09-16T12:14:19Z</time>
      </trkpt>
      <trkpt lat="43.56124" lon="6.39976">
        <ele>439.6</ele>
        <time>2020-09-16T12:14:24Z</time>
      </trkpt>
      <trkpt lat="43.56127" lon="6.3998">
        <ele>440.2</ele>
        <time>2020-09-16T12:14:29Z</time>
      </trkpt>
      <trkpt lat="43.56131" lon="6.3998">
        <ele>440.5</ele>
        <time>2020-09-16T12:14:34Z</time>
      </trkpt>
      <trkpt lat="43.56134" lon="6.39983">
        <ele>440.8</ele>
        <time>2020-09-16T12:14:40Z</time>
      </trkpt>
      <trkpt lat="43.56138" lon="6.39984">
        <ele>441.2</ele>
        <time>2020-09-16T12:14:44Z</time>
      </trkpt>
      <trkpt lat="43.56142" lon="6.39985">
        <ele>441.5</ele>
        <time>2020-09-16T12:14:48Z</time>
      </trkpt>
      <trkpt lat="43.56146" lon="6.39986">
        <ele>441.9</ele>
        <time>2020-09-16T12:14:53Z</time>
      </trkpt>
      <trkpt lat="43.5615" lon="6.3999">
        <ele>442.3</ele>
        <time>2020-09-16T12:14:58Z</time>
      </trkpt>
      <trkpt lat="43.56154" lon="6.39991">
        <ele>442.8</ele>
        <time>2020-09-16T12:15:03Z</time>
      </trkpt>
      <trkpt lat="43.56157" lon="6.3999">
        <ele>443.2</ele>
        <time>2020-09-16T12:15:07Z</time>
      </trkpt>
      <trkpt lat="43.56159" lon="6.39989">
        <ele>443.3</ele>
        <time>2020-09-16T12:15:08Z</time>
      </trkpt>
      <trkpt lat="43.56165" lon="6.39988">
        <ele>444</ele>
        <time>2020-09-16T12:15:16Z</time>
      </trkpt>
      <trkpt lat="43.56169" lon="6.39988">
        <ele>444.8</ele>
        <time>2020-09-16T12:15:22Z</time>
      </trkpt>
      <trkpt lat="43.56173" lon="6.39992">
        <ele>445.8</ele>
        <time>2020-09-16T12:15:28Z</time>
      </trkpt>
      <trkpt lat="43.56176" lon="6.39994">
        <ele>446.5</ele>
        <time>2020-09-16T12:15:34Z</time>
      </trkpt>
      <trkpt lat="43.5618" lon="6.39997">
        <ele>446.9</ele>
        <time>2020-09-16T12:15:38Z</time>
      </trkpt>
      <trkpt lat="43.56184" lon="6.4">
        <ele>447.4</ele>
        <time>2020-09-16T12:15:45Z</time>
      </trkpt>
      <trkpt lat="43.56188" lon="6.40001">
        <ele>447.9</ele>
        <time>2020-09-16T12:15:50Z</time>
      </trkpt>
      <trkpt lat="43.56192" lon="6.40002">
        <ele>448.4</ele>
        <time>2020-09-16T12:15:56Z</time>
      </trkpt>
      <trkpt lat="43.56195" lon="6.40005">
        <ele>448.8</ele>
        <time>2020-09-16T12:16:01Z</time>
      </trkpt>
      <trkpt lat="43.56199" lon="6.40009">
        <ele>449.1</ele>
        <time>2020-09-16T12:16:05Z</time>
      </trkpt>
      <trkpt lat="43.56202" lon="6.40012">
        <ele>449.6</ele>
        <time>2020-09-16T12:16:11Z</time>
      </trkpt>
      <trkpt lat="43.56202" lon="6.40012">
        <ele>449.7</ele>
        <time>2020-09-16T12:16:12Z</time>
      </trkpt>
      <trkpt lat="43.56209" lon="6.40018">
        <ele>450.8</ele>
        <time>2020-09-16T12:16:21Z</time>
      </trkpt>
      <trkpt lat="43.56212" lon="6.40021">
        <ele>451.3</ele>
        <time>2020-09-16T12:16:26Z</time>
      </trkpt>
      <trkpt lat="43.56216" lon="6.40021">
        <ele>451.9</ele>
        <time>2020-09-16T12:16:31Z</time>
      </trkpt>
      <trkpt lat="43.5622" lon="6.40023">
        <ele>452.6</ele>
        <time>2020-09-16T12:16:37Z</time>
      </trkpt>
      <trkpt lat="43.56224" lon="6.40024">
        <ele>453.3</ele>
        <time>2020-09-16T12:16:44Z</time>
      </trkpt>
      <trkpt lat="43.56227" lon="6.40026">
        <ele>453.6</ele>
        <time>2020-09-16T12:16:49Z</time>
      </trkpt>
      <trkpt lat="43.56232" lon="6.40026">
        <ele>454.4</ele>
        <time>2020-09-16T12:16:56Z</time>
      </trkpt>
      <trkpt lat="43.56235" lon="6.40029">
        <ele>454.9</ele>
        <time>2020-09-16T12:17:00Z</time>
      </trkpt>
      <trkpt lat="43.56238" lon="6.40032">
        <ele>455.3</ele>
        <time>2020-09-16T12:17:04Z</time>
      </trkpt>
      <trkpt lat="43.56241" lon="6.40034">
        <ele>455.7</ele>
        <time>2020-09-16T12:17:08Z</time>
      </trkpt>
      <trkpt lat="43.56245" lon="6.40036">
        <ele>456.1</ele>
        <time>2020-09-16T12:17:13Z</time>
      </trkpt>
      <trkpt lat="43.56246" lon="6.40037">
        <ele>456.3</ele>
        <time>2020-09-16T12:17:14Z</time>
      </trkpt>
      <trkpt lat="43.56254" lon="6.40039">
        <ele>457.6</ele>
        <time>2020-09-16T12:17:25Z</time>
      </trkpt>
      <trkpt lat="43.56257" lon="6.4004">
        <ele>458</ele>
        <time>2020-09-16T12:17:30Z</time>
      </trkpt>
      <trkpt lat="43.56261" lon="6.40039">
        <ele>458.2</ele>
        <time>2020-09-16T12:17:33Z</time>
      </trkpt>
      <trkpt lat="43.56265" lon="6.40038">
        <ele>458.4</ele>
        <time>2020-09-16T12:17:37Z</time>
      </trkpt>
      <trkpt lat="43.56269" lon="6.40036">
        <ele>458.6</ele>
        <time>2020-09-16T12:17:41Z</time>
      </trkpt>
      <trkpt lat="43.56272" lon="6.40035">
        <ele>459.1</ele>
        <time>2020-09-16T12:17:45Z</time>
      </trkpt>
      <trkpt lat="43.56277" lon="6.40033">
        <ele>459.5</ele>
        <time>2020-09-16T12:17:50Z</time>
      </trkpt>
      <trkpt lat="43.5628" lon="6.40031">
        <ele>460</ele>
        <time>2020-09-16T12:17:54Z</time>
      </trkpt>
      <trkpt lat="43.56285" lon="6.40029">
        <ele>460.6</ele>
        <time>2020-09-16T12:18:00Z</time>
      </trkpt>
      <trkpt lat="43.56288" lon="6.40026">
        <ele>460.9</ele>
        <time>2020-09-16T12:18:05Z</time>
      </trkpt>
      <trkpt lat="43.56291" lon="6.40023">
        <ele>461.1</ele>
        <time>2020-09-16T12:18:10Z</time>
      </trkpt>
      <trkpt lat="43.56296" lon="6.40022">
        <ele>461.6</ele>
        <time>2020-09-16T12:18:17Z</time>
      </trkpt>
      <trkpt lat="43.56296" lon="6.40021">
        <ele>461.7</ele>
        <time>2020-09-16T12:18:18Z</time>
      </trkpt>
      <trkpt lat="43.56304" lon="6.40018">
        <ele>462.4</ele>
        <time>2020-09-16T12:18:26Z</time>
      </trkpt>
      <trkpt lat="43.56307" lon="6.40016">
        <ele>462.6</ele>
        <time>2020-09-16T12:18:31Z</time>
      </trkpt>
      <trkpt lat="43.56312" lon="6.40015">
        <ele>462.9</ele>
        <time>2020-09-16T12:18:36Z</time>
      </trkpt>
      <trkpt lat="43.56315" lon="6.40013">
        <ele>463.1</ele>
        <time>2020-09-16T12:18:41Z</time>
      </trkpt>
      <trkpt lat="43.56319" lon="6.4001">
        <ele>463.2</ele>
        <time>2020-09-16T12:18:46Z</time>
      </trkpt>
      <trkpt lat="43.56323" lon="6.40007">
        <ele>463.3</ele>
        <time>2020-09-16T12:18:52Z</time>
      </trkpt>
      <trkpt lat="43.56326" lon="6.40006">
        <ele>463.5</ele>
        <time>2020-09-16T12:18:56Z</time>
      </trkpt>
      <trkpt lat="43.5633" lon="6.40003">
        <ele>463.7</ele>
        <time>2020-09-16T12:19:06Z</time>
      </trkpt>
      <trkpt lat="43.56333" lon="6.39999">
        <ele>463.9</ele>
        <time>2020-09-16T12:19:11Z</time>
      </trkpt>
      <trkpt lat="43.56337" lon="6.39996">
        <ele>464.2</ele>
        <time>2020-09-16T12:19:16Z</time>
      </trkpt>
      <trkpt lat="43.5634" lon="6.39993">
        <ele>464.4</ele>
        <time>2020-09-16T12:19:20Z</time>
      </trkpt>
      <trkpt lat="43.56341" lon="6.39993">
        <ele>464.5</ele>
        <time>2020-09-16T12:19:21Z</time>
      </trkpt>
      <trkpt lat="43.56347" lon="6.39987">
        <ele>465</ele>
        <time>2020-09-16T12:19:28Z</time>
      </trkpt>
      <trkpt lat="43.56351" lon="6.39984">
        <ele>465.5</ele>
        <time>2020-09-16T12:19:32Z</time>
      </trkpt>
      <trkpt lat="43.56354" lon="6.39982">
        <ele>466</ele>
        <time>2020-09-16T12:19:36Z</time>
      </trkpt>
      <trkpt lat="43.56357" lon="6.39979">
        <ele>466.3</ele>
        <time>2020-09-16T12:19:40Z</time>
      </trkpt>
      <trkpt lat="43.56361" lon="6.39977">
        <ele>466.5</ele>
        <time>2020-09-16T12:19:44Z</time>
      </trkpt>
      <trkpt lat="43.56365" lon="6.39973">
        <ele>466.7</ele>
        <time>2020-09-16T12:19:49Z</time>
      </trkpt>
      <trkpt lat="43.56368" lon="6.3997">
        <ele>467</ele>
        <time>2020-09-16T12:19:53Z</time>
      </trkpt>
      <trkpt lat="43.56371" lon="6.39967">
        <ele>467.5</ele>
        <time>2020-09-16T12:19:57Z</time>
      </trkpt>
      <trkpt lat="43.56374" lon="6.39964">
        <ele>467.9</ele>
        <time>2020-09-16T12:20:01Z</time>
      </trkpt>
      <trkpt lat="43.56376" lon="6.3996">
        <ele>468.2</ele>
        <time>2020-09-16T12:20:04Z</time>
      </trkpt>
      <trkpt lat="43.5638" lon="6.39957">
        <ele>468.5</ele>
        <time>2020-09-16T12:20:08Z</time>
      </trkpt>
      <trkpt lat="43.56382" lon="6.39954">
        <ele>468.8</ele>
        <time>2020-09-16T12:20:13Z</time>
      </trkpt>
      <trkpt lat="43.56385" lon="6.39949">
        <ele>469</ele>
        <time>2020-09-16T12:20:17Z</time>
      </trkpt>
      <trkpt lat="43.56388" lon="6.39946">
        <ele>469.3</ele>
        <time>2020-09-16T12:20:21Z</time>
      </trkpt>
      <trkpt lat="43.56389" lon="6.39944">
        <ele>469.4</ele>
        <time>2020-09-16T12:20:22Z</time>
      </trkpt>
      <trkpt lat="43.56393" lon="6.39939">
        <ele>469.8</ele>
        <time>2020-09-16T12:20:27Z</time>
      </trkpt>
      <trkpt lat="43.56396" lon="6.39936">
        <ele>470</ele>
        <time>2020-09-16T12:20:30Z</time>
      </trkpt>
      <trkpt lat="43.56398" lon="6.39932">
        <ele>470.3</ele>
        <time>2020-09-16T12:20:33Z</time>
      </trkpt>
      <trkpt lat="43.564" lon="6.39927">
        <ele>470.7</ele>
        <time>2020-09-16T12:20:37Z</time>
      </trkpt>
      <trkpt lat="43.56402" lon="6.39923">
        <ele>471.1</ele>
        <time>2020-09-16T12:20:41Z</time>
      </trkpt>
      <trkpt lat="43.56405" lon="6.39918">
        <ele>471.3</ele>
        <time>2020-09-16T12:20:44Z</time>
      </trkpt>
      <trkpt lat="43.56407" lon="6.39914">
        <ele>471.8</ele>
        <time>2020-09-16T12:20:49Z</time>
      </trkpt>
      <trkpt lat="43.5641" lon="6.39909">
        <ele>472.2</ele>
        <time>2020-09-16T12:20:55Z</time>
      </trkpt>
      <trkpt lat="43.56412" lon="6.39904">
        <ele>472.3</ele>
        <time>2020-09-16T12:20:59Z</time>
      </trkpt>
      <trkpt lat="43.56413" lon="6.399">
        <ele>472.5</ele>
        <time>2020-09-16T12:21:03Z</time>
      </trkpt>
      <trkpt lat="43.56415" lon="6.39895">
        <ele>472.7</ele>
        <time>2020-09-16T12:21:07Z</time>
      </trkpt>
      <trkpt lat="43.56416" lon="6.3989">
        <ele>472.6</ele>
        <time>2020-09-16T12:21:11Z</time>
      </trkpt>
      <trkpt lat="43.56417" lon="6.39884">
        <ele>473</ele>
        <time>2020-09-16T12:21:16Z</time>
      </trkpt>
      <trkpt lat="43.56417" lon="6.39879">
        <ele>473.2</ele>
        <time>2020-09-16T12:21:20Z</time>
      </trkpt>
      <trkpt lat="43.56419" lon="6.39874">
        <ele>473.3</ele>
        <time>2020-09-16T12:21:23Z</time>
      </trkpt>
      <trkpt lat="43.56419" lon="6.39873">
        <ele>473.4</ele>
        <time>2020-09-16T12:21:24Z</time>
      </trkpt>
      <trkpt lat="43.56422" lon="6.39864">
        <ele>473.9</ele>
        <time>2020-09-16T12:21:34Z</time>
      </trkpt>
      <trkpt lat="43.56424" lon="6.3986">
        <ele>474</ele>
        <time>2020-09-16T12:21:37Z</time>
      </trkpt>
      <trkpt lat="43.56425" lon="6.39854">
        <ele>474.2</ele>
        <time>2020-09-16T12:21:41Z</time>
      </trkpt>
      <trkpt lat="43.56427" lon="6.39849">
        <ele>474.6</ele>
        <time>2020-09-16T12:21:46Z</time>
      </trkpt>
      <trkpt lat="43.56428" lon="6.39845">
        <ele>474.7</ele>
        <time>2020-09-16T12:21:49Z</time>
      </trkpt>
      <trkpt lat="43.56429" lon="6.3984">
        <ele>474.7</ele>
        <time>2020-09-16T12:21:52Z</time>
      </trkpt>
      <trkpt lat="43.56431" lon="6.39835">
        <ele>474.9</ele>
        <time>2020-09-16T12:21:56Z</time>
      </trkpt>
      <trkpt lat="43.56433" lon="6.39832">
        <ele>475.1</ele>
        <time>2020-09-16T12:21:59Z</time>
      </trkpt>
      <trkpt lat="43.56435" lon="6.39827">
        <ele>475.4</ele>
        <time>2020-09-16T12:22:02Z</time>
      </trkpt>
      <trkpt lat="43.56438" lon="6.39824">
        <ele>475.5</ele>
        <time>2020-09-16T12:22:06Z</time>
      </trkpt>
      <trkpt lat="43.56441" lon="6.39819">
        <ele>475.5</ele>
        <time>2020-09-16T12:22:10Z</time>
      </trkpt>
      <trkpt lat="43.56444" lon="6.39815">
        <ele>475.7</ele>
        <time>2020-09-16T12:22:14Z</time>
      </trkpt>
      <trkpt lat="43.56446" lon="6.3981">
        <ele>475.9</ele>
        <time>2020-09-16T12:22:18Z</time>
      </trkpt>
      <trkpt lat="43.56449" lon="6.39806">
        <ele>476.3</ele>
        <time>2020-09-16T12:22:22Z</time>
      </trkpt>
      <trkpt lat="43.56452" lon="6.39803">
        <ele>476.6</ele>
        <time>2020-09-16T12:22:26Z</time>
      </trkpt>
      <trkpt lat="43.56453" lon="6.39803">
        <ele>476.7</ele>
        <time>2020-09-16T12:22:27Z</time>
      </trkpt>
      <trkpt lat="43.56459" lon="6.39796">
        <ele>477.3</ele>
        <time>2020-09-16T12:22:38Z</time>
      </trkpt>
      <trkpt lat="43.56462" lon="6.39792">
        <ele>477.4</ele>
        <time>2020-09-16T12:22:43Z</time>
      </trkpt>
      <trkpt lat="43.56466" lon="6.39789">
        <ele>477.6</ele>
        <time>2020-09-16T12:22:48Z</time>
      </trkpt>
      <trkpt lat="43.56469" lon="6.39786">
        <ele>478.2</ele>
        <time>2020-09-16T12:22:54Z</time>
      </trkpt>
      <trkpt lat="43.56473" lon="6.39784">
        <ele>478.7</ele>
        <time>2020-09-16T12:22:59Z</time>
      </trkpt>
      <trkpt lat="43.56477" lon="6.39782">
        <ele>479.1</ele>
        <time>2020-09-16T12:23:04Z</time>
      </trkpt>
      <trkpt lat="43.5648" lon="6.39779">
        <ele>479.3</ele>
        <time>2020-09-16T12:23:08Z</time>
      </trkpt>
      <trkpt lat="43.56484" lon="6.39776">
        <ele>479.6</ele>
        <time>2020-09-16T12:23:12Z</time>
      </trkpt>
      <trkpt lat="43.56487" lon="6.39774">
        <ele>480</ele>
        <time>2020-09-16T12:23:16Z</time>
      </trkpt>
      <trkpt lat="43.56491" lon="6.39771">
        <ele>480.2</ele>
        <time>2020-09-16T12:23:21Z</time>
      </trkpt>
      <trkpt lat="43.56494" lon="6.39768">
        <ele>480.7</ele>
        <time>2020-09-16T12:23:25Z</time>
      </trkpt>
      <trkpt lat="43.56498" lon="6.39765">
        <ele>481.2</ele>
        <time>2020-09-16T12:23:30Z</time>
      </trkpt>
      <trkpt lat="43.56499" lon="6.39765">
        <ele>481.3</ele>
        <time>2020-09-16T12:23:31Z</time>
      </trkpt>
      <trkpt lat="43.56505" lon="6.39758">
        <ele>482.4</ele>
        <time>2020-09-16T12:23:46Z</time>
      </trkpt>
      <trkpt lat="43.56509" lon="6.39755">
        <ele>482.7</ele>
        <time>2020-09-16T12:23:51Z</time>
      </trkpt>
      <trkpt lat="43.56512" lon="6.39752">
        <ele>483.2</ele>
        <time>2020-09-16T12:23:56Z</time>
      </trkpt>
      <trkpt lat="43.56516" lon="6.39748">
        <ele>483.7</ele>
        <time>2020-09-16T12:24:02Z</time>
      </trkpt>
      <trkpt lat="43.56519" lon="6.39747">
        <ele>484.1</ele>
        <time>2020-09-16T12:24:07Z</time>
      </trkpt>
      <trkpt lat="43.56524" lon="6.39745">
        <ele>484.1</ele>
        <time>2020-09-16T12:24:12Z</time>
      </trkpt>
      <trkpt lat="43.56527" lon="6.39742">
        <ele>484.2</ele>
        <time>2020-09-16T12:24:17Z</time>
      </trkpt>
      <trkpt lat="43.56531" lon="6.39739">
        <ele>484.6</ele>
        <time>2020-09-16T12:24:22Z</time>
      </trkpt>
      <trkpt lat="43.56534" lon="6.39735">
        <ele>484.9</ele>
        <time>2020-09-16T12:24:27Z</time>
      </trkpt>
      <trkpt lat="43.56537" lon="6.39731">
        <ele>485.1</ele>
        <time>2020-09-16T12:24:32Z</time>
      </trkpt>
      <trkpt lat="43.56537" lon="6.3973">
        <ele>485.2</ele>
        <time>2020-09-16T12:24:33Z</time>
      </trkpt>
      <trkpt lat="43.56543" lon="6.39724">
        <ele>485.8</ele>
        <time>2020-09-16T12:24:41Z</time>
      </trkpt>
      <trkpt lat="43.56547" lon="6.39721">
        <ele>486.2</ele>
        <time>2020-09-16T12:24:46Z</time>
      </trkpt>
      <trkpt lat="43.5655" lon="6.39717">
        <ele>486.6</ele>
        <time>2020-09-16T12:24:51Z</time>
      </trkpt>
      <trkpt lat="43.56553" lon="6.39714">
        <ele>487</ele>
        <time>2020-09-16T12:24:55Z</time>
      </trkpt>
      <trkpt lat="43.56556" lon="6.39712">
        <ele>487.3</ele>
        <time>2020-09-16T12:24:59Z</time>
      </trkpt>
      <trkpt lat="43.5656" lon="6.39708">
        <ele>487.8</ele>
        <time>2020-09-16T12:25:04Z</time>
      </trkpt>
      <trkpt lat="43.56564" lon="6.39705">
        <ele>488.2</ele>
        <time>2020-09-16T12:25:10Z</time>
      </trkpt>
      <trkpt lat="43.56567" lon="6.39703">
        <ele>488.6</ele>
        <time>2020-09-16T12:25:15Z</time>
      </trkpt>
      <trkpt lat="43.5657" lon="6.397">
        <ele>489</ele>
        <time>2020-09-16T12:25:19Z</time>
      </trkpt>
      <trkpt lat="43.56574" lon="6.39697">
        <ele>489.4</ele>
        <time>2020-09-16T12:25:24Z</time>
      </trkpt>
      <trkpt lat="43.56577" lon="6.39695">
        <ele>489.7</ele>
        <time>2020-09-16T12:25:29Z</time>
      </trkpt>
      <trkpt lat="43.5658" lon="6.39692">
        <ele>490.1</ele>
        <time>2020-09-16T12:25:33Z</time>
      </trkpt>
      <trkpt lat="43.56581" lon="6.39691">
        <ele>490.1</ele>
        <time>2020-09-16T12:25:34Z</time>
      </trkpt>
      <trkpt lat="43.56587" lon="6.39686">
        <ele>490.6</ele>
        <time>2020-09-16T12:25:44Z</time>
      </trkpt>
      <trkpt lat="43.5659" lon="6.39682">
        <ele>490.9</ele>
        <time>2020-09-16T12:25:48Z</time>
      </trkpt>
      <trkpt lat="43.56593" lon="6.39678">
        <ele>491.2</ele>
        <time>2020-09-16T12:25:51Z</time>
      </trkpt>
      <trkpt lat="43.56596" lon="6.39674">
        <ele>491.7</ele>
        <time>2020-09-16T12:25:56Z</time>
      </trkpt>
      <trkpt lat="43.56599" lon="6.39671">
        <ele>492.1</ele>
        <time>2020-09-16T12:26:00Z</time>
      </trkpt>
      <trkpt lat="43.56602" lon="6.39667">
        <ele>492.6</ele>
        <time>2020-09-16T12:26:06Z</time>
      </trkpt>
      <trkpt lat="43.56604" lon="6.39662">
        <ele>492.9</ele>
        <time>2020-09-16T12:26:11Z</time>
      </trkpt>
      <trkpt lat="43.56607" lon="6.39658">
        <ele>493.1</ele>
        <time>2020-09-16T12:26:15Z</time>
      </trkpt>
      <trkpt lat="43.5661" lon="6.39654">
        <ele>493.4</ele>
        <time>2020-09-16T12:26:19Z</time>
      </trkpt>
      <trkpt lat="43.56613" lon="6.39652">
        <ele>493.5</ele>
        <time>2020-09-16T12:26:23Z</time>
      </trkpt>
      <trkpt lat="43.56616" lon="6.39649">
        <ele>493.7</ele>
        <time>2020-09-16T12:26:27Z</time>
      </trkpt>
      <trkpt lat="43.56618" lon="6.39646">
        <ele>493.9</ele>
        <time>2020-09-16T12:26:30Z</time>
      </trkpt>
      <trkpt lat="43.56621" lon="6.39642">
        <ele>494.3</ele>
        <time>2020-09-16T12:26:34Z</time>
      </trkpt>
      <trkpt lat="43.56622" lon="6.39641">
        <ele>494.4</ele>
        <time>2020-09-16T12:26:35Z</time>
      </trkpt>
      <trkpt lat="43.56628" lon="6.39634">
        <ele>494.9</ele>
        <time>2020-09-16T12:26:43Z</time>
      </trkpt>
      <trkpt lat="43.56631" lon="6.3963">
        <ele>495.2</ele>
        <time>2020-09-16T12:26:47Z</time>
      </trkpt>
      <trkpt lat="43.56633" lon="6.39627">
        <ele>495.5</ele>
        <time>2020-09-16T12:26:51Z</time>
      </trkpt>
      <trkpt lat="43.56636" lon="6.39623">
        <ele>495.9</ele>
        <time>2020-09-16T12:26:55Z</time>
      </trkpt>
      <trkpt lat="43.56639" lon="6.39619">
        <ele>496.1</ele>
        <time>2020-09-16T12:26:59Z</time>
      </trkpt>
      <trkpt lat="43.56642" lon="6.39615">
        <ele>496.3</ele>
        <time>2020-09-16T12:27:03Z</time>
      </trkpt>
      <trkpt lat="43.56644" lon="6.39611">
        <ele>496.6</ele>
        <time>2020-09-16T12:27:07Z</time>
      </trkpt>
      <trkpt lat="43.56647" lon="6.39608">
        <ele>496.8</ele>
        <time>2020-09-16T12:27:11Z</time>
      </trkpt>
      <trkpt lat="43.5665" lon="6.39603">
        <ele>496.9</ele>
        <time>2020-09-16T12:27:16Z</time>
      </trkpt>
      <trkpt lat="43.56652" lon="6.39599">
        <ele>497.2</ele>
        <time>2020-09-16T12:27:21Z</time>
      </trkpt>
      <trkpt lat="43.56655" lon="6.39595">
        <ele>497.5</ele>
        <time>2020-09-16T12:27:25Z</time>
      </trkpt>
      <trkpt lat="43.56657" lon="6.3959">
        <ele>498.2</ele>
        <time>2020-09-16T12:27:31Z</time>
      </trkpt>
      <trkpt lat="43.56659" lon="6.39586">
        <ele>498.6</ele>
        <time>2020-09-16T12:27:36Z</time>
      </trkpt>
      <trkpt lat="43.56659" lon="6.39584">
        <ele>498.7</ele>
        <time>2020-09-16T12:27:37Z</time>
      </trkpt>
      <trkpt lat="43.56663" lon="6.39577">
        <ele>499.4</ele>
        <time>2020-09-16T12:27:44Z</time>
      </trkpt>
      <trkpt lat="43.56665" lon="6.39572">
        <ele>499.8</ele>
        <time>2020-09-16T12:27:48Z</time>
      </trkpt>
      <trkpt lat="43.56667" lon="6.39568">
        <ele>500.2</ele>
        <time>2020-09-16T12:27:53Z</time>
      </trkpt>
      <trkpt lat="43.5667" lon="6.39563">
        <ele>500.6</ele>
        <time>2020-09-16T12:27:59Z</time>
      </trkpt>
      <trkpt lat="43.56672" lon="6.39557">
        <ele>501.2</ele>
        <time>2020-09-16T12:28:05Z</time>
      </trkpt>
      <trkpt lat="43.56675" lon="6.39553">
        <ele>501.9</ele>
        <time>2020-09-16T12:28:11Z</time>
      </trkpt>
      <trkpt lat="43.56678" lon="6.39549">
        <ele>502.2</ele>
        <time>2020-09-16T12:28:15Z</time>
      </trkpt>
      <trkpt lat="43.5668" lon="6.39545">
        <ele>502.6</ele>
        <time>2020-09-16T12:28:20Z</time>
      </trkpt>
      <trkpt lat="43.56683" lon="6.3954">
        <ele>503.1</ele>
        <time>2020-09-16T12:28:25Z</time>
      </trkpt>
      <trkpt lat="43.56685" lon="6.39536">
        <ele>503.6</ele>
        <time>2020-09-16T12:28:29Z</time>
      </trkpt>
      <trkpt lat="43.56689" lon="6.39533">
        <ele>504.1</ele>
        <time>2020-09-16T12:28:33Z</time>
      </trkpt>
      <trkpt lat="43.56691" lon="6.39529">
        <ele>504.5</ele>
        <time>2020-09-16T12:28:38Z</time>
      </trkpt>
      <trkpt lat="43.56692" lon="6.39529">
        <ele>504.7</ele>
        <time>2020-09-16T12:28:39Z</time>
      </trkpt>
      <trkpt lat="43.56698" lon="6.39523">
        <ele>505.4</ele>
        <time>2020-09-16T12:28:49Z</time>
      </trkpt>
      <trkpt lat="43.56702" lon="6.3952">
        <ele>505.8</ele>
        <time>2020-09-16T12:28:56Z</time>
      </trkpt>
      <trkpt lat="43.56706" lon="6.39517">
        <ele>506.1</ele>
        <time>2020-09-16T12:29:01Z</time>
      </trkpt>
      <trkpt lat="43.5671" lon="6.39514">
        <ele>506.4</ele>
        <time>2020-09-16T12:29:06Z</time>
      </trkpt>
      <trkpt lat="43.56714" lon="6.39512">
        <ele>506.6</ele>
        <time>2020-09-16T12:29:11Z</time>
      </trkpt>
      <trkpt lat="43.56718" lon="6.39511">
        <ele>506.8</ele>
        <time>2020-09-16T12:29:17Z</time>
      </trkpt>
      <trkpt lat="43.56722" lon="6.39509">
        <ele>506.9</ele>
        <time>2020-09-16T12:29:22Z</time>
      </trkpt>
      <trkpt lat="43.56726" lon="6.39507">
        <ele>507.2</ele>
        <time>2020-09-16T12:29:28Z</time>
      </trkpt>
      <trkpt lat="43.5673" lon="6.39505">
        <ele>507.5</ele>
        <time>2020-09-16T12:29:32Z</time>
      </trkpt>
      <trkpt lat="43.56734" lon="6.39502">
        <ele>507.9</ele>
        <time>2020-09-16T12:29:37Z</time>
      </trkpt>
      <trkpt lat="43.56737" lon="6.39499">
        <ele>508.3</ele>
        <time>2020-09-16T12:29:42Z</time>
      </trkpt>
      <trkpt lat="43.56738" lon="6.39498">
        <ele>508.3</ele>
        <time>2020-09-16T12:29:43Z</time>
      </trkpt>
      <trkpt lat="43.56743" lon="6.39492">
        <ele>509.2</ele>
        <time>2020-09-16T12:29:51Z</time>
      </trkpt>
      <trkpt lat="43.56746" lon="6.39489">
        <ele>509.6</ele>
        <time>2020-09-16T12:29:56Z</time>
      </trkpt>
      <trkpt lat="43.5675" lon="6.39486">
        <ele>509.9</ele>
        <time>2020-09-16T12:30:00Z</time>
      </trkpt>
      <trkpt lat="43.56753" lon="6.39483">
        <ele>510.1</ele>
        <time>2020-09-16T12:30:04Z</time>
      </trkpt>
      <trkpt lat="43.56757" lon="6.3948">
        <ele>510.3</ele>
        <time>2020-09-16T12:30:09Z</time>
      </trkpt>
      <trkpt lat="43.5676" lon="6.39478">
        <ele>510.6</ele>
        <time>2020-09-16T12:30:14Z</time>
      </trkpt>
      <trkpt lat="43.56764" lon="6.39476">
        <ele>510.9</ele>
        <time>2020-09-16T12:30:18Z</time>
      </trkpt>
      <trkpt lat="43.56768" lon="6.39473">
        <ele>511.4</ele>
        <time>2020-09-16T12:30:23Z</time>
      </trkpt>
      <trkpt lat="43.56772" lon="6.39472">
        <ele>511.8</ele>
        <time>2020-09-16T12:30:28Z</time>
      </trkpt>
      <trkpt lat="43.56776" lon="6.39472">
        <ele>512.2</ele>
        <time>2020-09-16T12:30:32Z</time>
      </trkpt>
      <trkpt lat="43.5678" lon="6.39474">
        <ele>512.8</ele>
        <time>2020-09-16T12:30:37Z</time>
      </trkpt>
      <trkpt lat="43.56783" lon="6.39475">
        <ele>513.5</ele>
        <time>2020-09-16T12:30:43Z</time>
      </trkpt>
      <trkpt lat="43.56784" lon="6.39476">
        <ele>513.6</ele>
        <time>2020-09-16T12:30:44Z</time>
      </trkpt>
      <trkpt lat="43.56791" lon="6.39478">
        <ele>514.7</ele>
        <time>2020-09-16T12:30:54Z</time>
      </trkpt>
      <trkpt lat="43.56795" lon="6.39478">
        <ele>515.1</ele>
        <time>2020-09-16T12:30:59Z</time>
      </trkpt>
      <trkpt lat="43.568" lon="6.39479">
        <ele>515.4</ele>
        <time>2020-09-16T12:31:04Z</time>
      </trkpt>
      <trkpt lat="43.56804" lon="6.3948">
        <ele>515.8</ele>
        <time>2020-09-16T12:31:09Z</time>
      </trkpt>
      <trkpt lat="43.56807" lon="6.39483">
        <ele>516.2</ele>
        <time>2020-09-16T12:31:13Z</time>
      </trkpt>
      <trkpt lat="43.56811" lon="6.39486">
        <ele>516.6</ele>
        <time>2020-09-16T12:31:17Z</time>
      </trkpt>
      <trkpt lat="43.56814" lon="6.39488">
        <ele>517</ele>
        <time>2020-09-16T12:31:21Z</time>
      </trkpt>
      <trkpt lat="43.56818" lon="6.3949">
        <ele>517.4</ele>
        <time>2020-09-16T12:31:26Z</time>
      </trkpt>
      <trkpt lat="43.56821" lon="6.39494">
        <ele>518.1</ele>
        <time>2020-09-16T12:31:31Z</time>
      </trkpt>
      <trkpt lat="43.56823" lon="6.39499">
        <ele>518.7</ele>
        <time>2020-09-16T12:31:36Z</time>
      </trkpt>
      <trkpt lat="43.56826" lon="6.39504">
        <ele>519.2</ele>
        <time>2020-09-16T12:31:41Z</time>
      </trkpt>
      <trkpt lat="43.56829" lon="6.39506">
        <ele>519.7</ele>
        <time>2020-09-16T12:31:47Z</time>
      </trkpt>
      <trkpt lat="43.5683" lon="6.39507">
        <ele>519.7</ele>
        <time>2020-09-16T12:31:48Z</time>
      </trkpt>
      <trkpt lat="43.56837" lon="6.3951">
        <ele>520.1</ele>
        <time>2020-09-16T12:32:01Z</time>
      </trkpt>
      <trkpt lat="43.56841" lon="6.39514">
        <ele>520.3</ele>
        <time>2020-09-16T12:32:08Z</time>
      </trkpt>
      <trkpt lat="43.56844" lon="6.39518">
        <ele>520.7</ele>
        <time>2020-09-16T12:32:15Z</time>
      </trkpt>
      <trkpt lat="43.56847" lon="6.39522">
        <ele>521</ele>
        <time>2020-09-16T12:32:22Z</time>
      </trkpt>
      <trkpt lat="43.56851" lon="6.39524">
        <ele>521.6</ele>
        <time>2020-09-16T12:32:29Z</time>
      </trkpt>
      <trkpt lat="43.56855" lon="6.39527">
        <ele>522.3</ele>
        <time>2020-09-16T12:32:35Z</time>
      </trkpt>
      <trkpt lat="43.56859" lon="6.3953">
        <ele>522.9</ele>
        <time>2020-09-16T12:32:41Z</time>
      </trkpt>
      <trkpt lat="43.56863" lon="6.39531">
        <ele>523.7</ele>
        <time>2020-09-16T12:32:48Z</time>
      </trkpt>
      <trkpt lat="43.56863" lon="6.39531">
        <ele>523.8</ele>
        <time>2020-09-16T12:32:49Z</time>
      </trkpt>
      <trkpt lat="43.56871" lon="6.39534">
        <ele>525.3</ele>
        <time>2020-09-16T12:33:02Z</time>
      </trkpt>
      <trkpt lat="43.56874" lon="6.39536">
        <ele>525.6</ele>
        <time>2020-09-16T12:33:07Z</time>
      </trkpt>
      <trkpt lat="43.56878" lon="6.39539">
        <ele>526.1</ele>
        <time>2020-09-16T12:33:11Z</time>
      </trkpt>
      <trkpt lat="43.56882" lon="6.39541">
        <ele>526.6</ele>
        <time>2020-09-16T12:33:16Z</time>
      </trkpt>
      <trkpt lat="43.56886" lon="6.39541">
        <ele>527.1</ele>
        <time>2020-09-16T12:33:21Z</time>
      </trkpt>
      <trkpt lat="43.5689" lon="6.39543">
        <ele>527.3</ele>
        <time>2020-09-16T12:33:26Z</time>
      </trkpt>
      <trkpt lat="43.56895" lon="6.39544">
        <ele>527.7</ele>
        <time>2020-09-16T12:33:32Z</time>
      </trkpt>
      <trkpt lat="43.56899" lon="6.39547">
        <ele>528.2</ele>
        <time>2020-09-16T12:33:38Z</time>
      </trkpt>
      <trkpt lat="43.56902" lon="6.39549">
        <ele>528.8</ele>
        <time>2020-09-16T12:33:44Z</time>
      </trkpt>
      <trkpt lat="43.56906" lon="6.39551">
        <ele>529.1</ele>
        <time>2020-09-16T12:33:48Z</time>
      </trkpt>
      <trkpt lat="43.5691" lon="6.39553">
        <ele>529.7</ele>
        <time>2020-09-16T12:33:53Z</time>
      </trkpt>
      <trkpt lat="43.56911" lon="6.39554">
        <ele>529.8</ele>
        <time>2020-09-16T12:33:54Z</time>
      </trkpt>
      <trkpt lat="43.56917" lon="6.39559">
        <ele>530.6</ele>
        <time>2020-09-16T12:34:03Z</time>
      </trkpt>
      <trkpt lat="43.5692" lon="6.39561">
        <ele>531.1</ele>
        <time>2020-09-16T12:34:08Z</time>
      </trkpt>
      <trkpt lat="43.56924" lon="6.39563">
        <ele>531.7</ele>
        <time>2020-09-16T12:34:14Z</time>
      </trkpt>
      <trkpt lat="43.56928" lon="6.39563">
        <ele>532.3</ele>
        <time>2020-09-16T12:34:23Z</time>
      </trkpt>
      <trkpt lat="43.56932" lon="6.39566">
        <ele>532.8</ele>
        <time>2020-09-16T12:34:29Z</time>
      </trkpt>
      <trkpt lat="43.56936" lon="6.39567">
        <ele>533.5</ele>
        <time>2020-09-16T12:34:36Z</time>
      </trkpt>
      <trkpt lat="43.5694" lon="6.39569">
        <ele>534.5</ele>
        <time>2020-09-16T12:34:43Z</time>
      </trkpt>
      <trkpt lat="43.56944" lon="6.39572">
        <ele>535.4</ele>
        <time>2020-09-16T12:34:50Z</time>
      </trkpt>
      <trkpt lat="43.56948" lon="6.39574">
        <ele>536.2</ele>
        <time>2020-09-16T12:34:57Z</time>
      </trkpt>
      <trkpt lat="43.56948" lon="6.39575">
        <ele>536.3</ele>
        <time>2020-09-16T12:34:58Z</time>
      </trkpt>
      <trkpt lat="43.56955" lon="6.39576">
        <ele>537.2</ele>
        <time>2020-09-16T12:35:07Z</time>
      </trkpt>
      <trkpt lat="43.56959" lon="6.39576">
        <ele>537.5</ele>
        <time>2020-09-16T12:35:11Z</time>
      </trkpt>
      <trkpt lat="43.56963" lon="6.39577">
        <ele>537.9</ele>
        <time>2020-09-16T12:35:17Z</time>
      </trkpt>
      <trkpt lat="43.56967" lon="6.39577">
        <ele>538.3</ele>
        <time>2020-09-16T12:35:22Z</time>
      </trkpt>
      <trkpt lat="43.56971" lon="6.39577">
        <ele>539</ele>
        <time>2020-09-16T12:35:29Z</time>
      </trkpt>
      <trkpt lat="43.56975" lon="6.39579">
        <ele>539.3</ele>
        <time>2020-09-16T12:35:34Z</time>
      </trkpt>
      <trkpt lat="43.56979" lon="6.3958">
        <ele>539.6</ele>
        <time>2020-09-16T12:35:40Z</time>
      </trkpt>
      <trkpt lat="43.56983" lon="6.39579">
        <ele>539.8</ele>
        <time>2020-09-16T12:35:45Z</time>
      </trkpt>
      <trkpt lat="43.56986" lon="6.39582">
        <ele>540</ele>
        <time>2020-09-16T12:35:50Z</time>
      </trkpt>
      <trkpt lat="43.5699" lon="6.39584">
        <ele>540.3</ele>
        <time>2020-09-16T12:35:55Z</time>
      </trkpt>
      <trkpt lat="43.56994" lon="6.39585">
        <ele>540.8</ele>
        <time>2020-09-16T12:36:00Z</time>
      </trkpt>
      <trkpt lat="43.56994" lon="6.39586">
        <ele>540.9</ele>
        <time>2020-09-16T12:36:01Z</time>
      </trkpt>
      <trkpt lat="43.57001" lon="6.39589">
        <ele>542.4</ele>
        <time>2020-09-16T12:36:12Z</time>
      </trkpt>
      <trkpt lat="43.57005" lon="6.39592">
        <ele>543.2</ele>
        <time>2020-09-16T12:36:20Z</time>
      </trkpt>
      <trkpt lat="43.57009" lon="6.39594">
        <ele>544</ele>
        <time>2020-09-16T12:36:27Z</time>
      </trkpt>
      <trkpt lat="43.57013" lon="6.39596">
        <ele>544.9</ele>
        <time>2020-09-16T12:36:37Z</time>
      </trkpt>
      <trkpt lat="43.57017" lon="6.39599">
        <ele>545.7</ele>
        <time>2020-09-16T12:36:56Z</time>
      </trkpt>
      <trkpt lat="43.57021" lon="6.39599">
        <ele>545.9</ele>
        <time>2020-09-16T12:37:23Z</time>
      </trkpt>
      <trkpt lat="43.57021" lon="6.39599">
        <ele>546</ele>
        <time>2020-09-16T12:37:24Z</time>
      </trkpt>
      <trkpt lat="43.57023" lon="6.39593">
        <ele>547.1</ele>
        <time>2020-09-16T12:38:26Z</time>
      </trkpt>
      <trkpt lat="43.57026" lon="6.39596">
        <ele>547.9</ele>
        <time>2020-09-16T12:41:35Z</time>
      </trkpt>
      <trkpt lat="43.57027" lon="6.39597">
        <ele>547.9</ele>
        <time>2020-09-16T12:41:36Z</time>
      </trkpt>
      <trkpt lat="43.57035" lon="6.396">
        <ele>548.1</ele>
        <time>2020-09-16T12:41:50Z</time>
      </trkpt>
      <trkpt lat="43.57039" lon="6.39602">
        <ele>548.3</ele>
        <time>2020-09-16T12:41:56Z</time>
      </trkpt>
      <trkpt lat="43.57043" lon="6.39603">
        <ele>548.6</ele>
        <time>2020-09-16T12:42:02Z</time>
      </trkpt>
      <trkpt lat="43.57047" lon="6.39604">
        <ele>549</ele>
        <time>2020-09-16T12:42:08Z</time>
      </trkpt>
      <trkpt lat="43.57052" lon="6.39604">
        <ele>549.7</ele>
        <time>2020-09-16T12:42:14Z</time>
      </trkpt>
      <trkpt lat="43.57055" lon="6.39602">
        <ele>550.2</ele>
        <time>2020-09-16T12:42:19Z</time>
      </trkpt>
      <trkpt lat="43.57059" lon="6.39599">
        <ele>550.5</ele>
        <time>2020-09-16T12:42:24Z</time>
      </trkpt>
      <trkpt lat="43.57063" lon="6.39597">
        <ele>551.2</ele>
        <time>2020-09-16T12:42:30Z</time>
      </trkpt>
      <trkpt lat="43.57066" lon="6.39594">
        <ele>551.8</ele>
        <time>2020-09-16T12:42:36Z</time>
      </trkpt>
      <trkpt lat="43.57067" lon="6.39593">
        <ele>551.8</ele>
        <time>2020-09-16T12:42:37Z</time>
      </trkpt>
      <trkpt lat="43.57074" lon="6.39588">
        <ele>552.9</ele>
        <time>2020-09-16T12:42:48Z</time>
      </trkpt>
      <trkpt lat="43.57077" lon="6.39584">
        <ele>553.6</ele>
        <time>2020-09-16T12:42:54Z</time>
      </trkpt>
      <trkpt lat="43.57081" lon="6.39581">
        <ele>554.5</ele>
        <time>2020-09-16T12:43:00Z</time>
      </trkpt>
      <trkpt lat="43.57084" lon="6.39579">
        <ele>555.3</ele>
        <time>2020-09-16T12:43:06Z</time>
      </trkpt>
      <trkpt lat="43.57088" lon="6.39577">
        <ele>556.5</ele>
        <time>2020-09-16T12:43:14Z</time>
      </trkpt>
      <trkpt lat="43.57093" lon="6.39574">
        <ele>557.3</ele>
        <time>2020-09-16T12:43:20Z</time>
      </trkpt>
      <trkpt lat="43.57096" lon="6.39572">
        <ele>557.9</ele>
        <time>2020-09-16T12:43:25Z</time>
      </trkpt>
      <trkpt lat="43.571" lon="6.39571">
        <ele>558.3</ele>
        <time>2020-09-16T12:43:30Z</time>
      </trkpt>
      <trkpt lat="43.57104" lon="6.39568">
        <ele>558.8</ele>
        <time>2020-09-16T12:43:35Z</time>
      </trkpt>
      <trkpt lat="43.57108" lon="6.39566">
        <ele>559.4</ele>
        <time>2020-09-16T12:43:41Z</time>
      </trkpt>
      <trkpt lat="43.57108" lon="6.39565">
        <ele>559.5</ele>
        <time>2020-09-16T12:43:42Z</time>
      </trkpt>
      <trkpt lat="43.57115" lon="6.3956">
        <ele>560.4</ele>
        <time>2020-09-16T12:43:51Z</time>
      </trkpt>
      <trkpt lat="43.57118" lon="6.39558">
        <ele>561</ele>
        <time>2020-09-16T12:43:56Z</time>
      </trkpt>
      <trkpt lat="43.57121" lon="6.39555">
        <ele>561.5</ele>
        <time>2020-09-16T12:44:01Z</time>
      </trkpt>
      <trkpt lat="43.57125" lon="6.39553">
        <ele>561.8</ele>
        <time>2020-09-16T12:44:06Z</time>
      </trkpt>
      <trkpt lat="43.57128" lon="6.39549">
        <ele>562.4</ele>
        <time>2020-09-16T12:44:13Z</time>
      </trkpt>
      <trkpt lat="43.57132" lon="6.39548">
        <ele>562.9</ele>
        <time>2020-09-16T12:44:19Z</time>
      </trkpt>
      <trkpt lat="43.57136" lon="6.39547">
        <ele>563.4</ele>
        <time>2020-09-16T12:44:26Z</time>
      </trkpt>
      <trkpt lat="43.5714" lon="6.39545">
        <ele>563.8</ele>
        <time>2020-09-16T12:44:30Z</time>
      </trkpt>
      <trkpt lat="43.57144" lon="6.39544">
        <ele>564</ele>
        <time>2020-09-16T12:44:34Z</time>
      </trkpt>
      <trkpt lat="43.57148" lon="6.39542">
        <ele>564.4</ele>
        <time>2020-09-16T12:44:38Z</time>
      </trkpt>
      <trkpt lat="43.57151" lon="6.3954">
        <ele>565</ele>
        <time>2020-09-16T12:44:42Z</time>
      </trkpt>
      <trkpt lat="43.57152" lon="6.39539">
        <ele>565.1</ele>
        <time>2020-09-16T12:44:43Z</time>
      </trkpt>
      <trkpt lat="43.57158" lon="6.39534">
        <ele>565.8</ele>
        <time>2020-09-16T12:44:51Z</time>
      </trkpt>
      <trkpt lat="43.57162" lon="6.39534">
        <ele>566.2</ele>
        <time>2020-09-16T12:44:56Z</time>
      </trkpt>
      <trkpt lat="43.57166" lon="6.39532">
        <ele>566.4</ele>
        <time>2020-09-16T12:45:01Z</time>
      </trkpt>
      <trkpt lat="43.57169" lon="6.39529">
        <ele>566.5</ele>
        <time>2020-09-16T12:45:06Z</time>
      </trkpt>
      <trkpt lat="43.57173" lon="6.39527">
        <ele>566.7</ele>
        <time>2020-09-16T12:45:11Z</time>
      </trkpt>
      <trkpt lat="43.57176" lon="6.39525">
        <ele>567</ele>
        <time>2020-09-16T12:45:16Z</time>
      </trkpt>
      <trkpt lat="43.5718" lon="6.39524">
        <ele>567.3</ele>
        <time>2020-09-16T12:45:21Z</time>
      </trkpt>
      <trkpt lat="43.57184" lon="6.39521">
        <ele>567.6</ele>
        <time>2020-09-16T12:45:26Z</time>
      </trkpt>
      <trkpt lat="43.57188" lon="6.39518">
        <ele>567.8</ele>
        <time>2020-09-16T12:45:30Z</time>
      </trkpt>
      <trkpt lat="43.57191" lon="6.39515">
        <ele>567.9</ele>
        <time>2020-09-16T12:45:34Z</time>
      </trkpt>
      <trkpt lat="43.57195" lon="6.39513">
        <ele>568.1</ele>
        <time>2020-09-16T12:45:38Z</time>
      </trkpt>
      <trkpt lat="43.57199" lon="6.3951">
        <ele>568.3</ele>
        <time>2020-09-16T12:45:42Z</time>
      </trkpt>
      <trkpt lat="43.57202" lon="6.39508">
        <ele>568.4</ele>
        <time>2020-09-16T12:45:45Z</time>
      </trkpt>
      <trkpt lat="43.57203" lon="6.39508">
        <ele>568.5</ele>
        <time>2020-09-16T12:45:46Z</time>
      </trkpt>
      <trkpt lat="43.5721" lon="6.39503">
        <ele>568.8</ele>
        <time>2020-09-16T12:45:53Z</time>
      </trkpt>
      <trkpt lat="43.57214" lon="6.39501">
        <ele>568.8</ele>
        <time>2020-09-16T12:45:57Z</time>
      </trkpt>
      <trkpt lat="43.57218" lon="6.39498">
        <ele>569</ele>
        <time>2020-09-16T12:46:01Z</time>
      </trkpt>
      <trkpt lat="43.57221" lon="6.39495">
        <ele>569.1</ele>
        <time>2020-09-16T12:46:05Z</time>
      </trkpt>
      <trkpt lat="43.57225" lon="6.39493">
        <ele>568.8</ele>
        <time>2020-09-16T12:46:09Z</time>
      </trkpt>
      <trkpt lat="43.57228" lon="6.39489">
        <ele>568.8</ele>
        <time>2020-09-16T12:46:15Z</time>
      </trkpt>
      <trkpt lat="43.57232" lon="6.39487">
        <ele>568.9</ele>
        <time>2020-09-16T12:46:20Z</time>
      </trkpt>
      <trkpt lat="43.57235" lon="6.39483">
        <ele>569</ele>
        <time>2020-09-16T12:46:24Z</time>
      </trkpt>
      <trkpt lat="43.57239" lon="6.39481">
        <ele>569.2</ele>
        <time>2020-09-16T12:46:30Z</time>
      </trkpt>
      <trkpt lat="43.57242" lon="6.39479">
        <ele>569.2</ele>
        <time>2020-09-16T12:46:33Z</time>
      </trkpt>
      <trkpt lat="43.57245" lon="6.39476">
        <ele>569.3</ele>
        <time>2020-09-16T12:46:36Z</time>
      </trkpt>
      <trkpt lat="43.57248" lon="6.39474">
        <ele>569.4</ele>
        <time>2020-09-16T12:46:39Z</time>
      </trkpt>
      <trkpt lat="43.57252" lon="6.39471">
        <ele>569.5</ele>
        <time>2020-09-16T12:46:43Z</time>
      </trkpt>
      <trkpt lat="43.57256" lon="6.39469">
        <ele>569.6</ele>
        <time>2020-09-16T12:47:00Z</time>
      </trkpt>
      <trkpt lat="43.57256" lon="6.3947">
        <ele>569.6</ele>
        <time>2020-09-16T12:47:01Z</time>
      </trkpt>
      <trkpt lat="43.57262" lon="6.39467">
        <ele>569.4</ele>
        <time>2020-09-16T12:48:26Z</time>
      </trkpt>
      <trkpt lat="43.57262" lon="6.39465">
        <ele>569.4</ele>
        <time>2020-09-16T12:48:27Z</time>
      </trkpt>
      <trkpt lat="43.57261" lon="6.39455">
        <ele>568.8</ele>
        <time>2020-09-16T12:48:38Z</time>
      </trkpt>
      <trkpt lat="43.57261" lon="6.39449">
        <ele>568.6</ele>
        <time>2020-09-16T12:48:43Z</time>
      </trkpt>
      <trkpt lat="43.5726" lon="6.39444">
        <ele>568.5</ele>
        <time>2020-09-16T12:48:47Z</time>
      </trkpt>
      <trkpt lat="43.5726" lon="6.39438">
        <ele>568.3</ele>
        <time>2020-09-16T12:48:52Z</time>
      </trkpt>
      <trkpt lat="43.5726" lon="6.39432">
        <ele>567.9</ele>
        <time>2020-09-16T12:48:57Z</time>
      </trkpt>
      <trkpt lat="43.5726" lon="6.39426">
        <ele>567.4</ele>
        <time>2020-09-16T12:49:02Z</time>
      </trkpt>
      <trkpt lat="43.57259" lon="6.39421">
        <ele>567.1</ele>
        <time>2020-09-16T12:49:06Z</time>
      </trkpt>
      <trkpt lat="43.57257" lon="6.39417">
        <ele>566.7</ele>
        <time>2020-09-16T12:49:10Z</time>
      </trkpt>
      <trkpt lat="43.57255" lon="6.39411">
        <ele>565.9</ele>
        <time>2020-09-16T12:49:18Z</time>
      </trkpt>
      <trkpt lat="43.57254" lon="6.39406">
        <ele>565.3</ele>
        <time>2020-09-16T12:49:28Z</time>
      </trkpt>
      <trkpt lat="43.57254" lon="6.39405">
        <ele>565.3</ele>
        <time>2020-09-16T12:49:29Z</time>
      </trkpt>
      <trkpt lat="43.5725" lon="6.39396">
        <ele>565</ele>
        <time>2020-09-16T12:49:38Z</time>
      </trkpt>
      <trkpt lat="43.57247" lon="6.39393">
        <ele>564.7</ele>
        <time>2020-09-16T12:49:41Z</time>
      </trkpt>
      <trkpt lat="43.57244" lon="6.39389">
        <ele>564.2</ele>
        <time>2020-09-16T12:49:45Z</time>
      </trkpt>
      <trkpt lat="43.57241" lon="6.39386">
        <ele>563.8</ele>
        <time>2020-09-16T12:49:49Z</time>
      </trkpt>
      <trkpt lat="43.57239" lon="6.39382">
        <ele>563.3</ele>
        <time>2020-09-16T12:49:54Z</time>
      </trkpt>
      <trkpt lat="43.57235" lon="6.39379">
        <ele>562.8</ele>
        <time>2020-09-16T12:49:59Z</time>
      </trkpt>
      <trkpt lat="43.57231" lon="6.39376">
        <ele>562.1</ele>
        <time>2020-09-16T12:50:03Z</time>
      </trkpt>
      <trkpt lat="43.57229" lon="6.39372">
        <ele>561.8</ele>
        <time>2020-09-16T12:50:06Z</time>
      </trkpt>
      <trkpt lat="43.57227" lon="6.39368">
        <ele>561.4</ele>
        <time>2020-09-16T12:50:09Z</time>
      </trkpt>
      <trkpt lat="43.57224" lon="6.39365">
        <ele>561</ele>
        <time>2020-09-16T12:50:12Z</time>
      </trkpt>
      <trkpt lat="43.57221" lon="6.39361">
        <ele>560.5</ele>
        <time>2020-09-16T12:50:15Z</time>
      </trkpt>
      <trkpt lat="43.57219" lon="6.39357">
        <ele>560.1</ele>
        <time>2020-09-16T12:50:19Z</time>
      </trkpt>
      <trkpt lat="43.57217" lon="6.39351">
        <ele>559.6</ele>
        <time>2020-09-16T12:50:25Z</time>
      </trkpt>
      <trkpt lat="43.57215" lon="6.39346">
        <ele>559.3</ele>
        <time>2020-09-16T12:50:33Z</time>
      </trkpt>
      <trkpt lat="43.57215" lon="6.39345">
        <ele>559.2</ele>
        <time>2020-09-16T12:50:34Z</time>
      </trkpt>
      <trkpt lat="43.57212" lon="6.39336">
        <ele>558.9</ele>
        <time>2020-09-16T12:50:45Z</time>
      </trkpt>
      <trkpt lat="43.5721" lon="6.3933">
        <ele>559</ele>
        <time>2020-09-16T12:50:49Z</time>
      </trkpt>
      <trkpt lat="43.5721" lon="6.39326">
        <ele>559.1</ele>
        <time>2020-09-16T12:50:52Z</time>
      </trkpt>
      <trkpt lat="43.57209" lon="6.39321">
        <ele>559.2</ele>
        <time>2020-09-16T12:50:55Z</time>
      </trkpt>
      <trkpt lat="43.57208" lon="6.39316">
        <ele>559.3</ele>
        <time>2020-09-16T12:50:58Z</time>
      </trkpt>
      <trkpt lat="43.57208" lon="6.3931">
        <ele>559.4</ele>
        <time>2020-09-16T12:51:01Z</time>
      </trkpt>
      <trkpt lat="43.57208" lon="6.39304">
        <ele>559.5</ele>
        <time>2020-09-16T12:51:04Z</time>
      </trkpt>
      <trkpt lat="43.57207" lon="6.39299">
        <ele>559.5</ele>
        <time>2020-09-16T12:51:07Z</time>
      </trkpt>
      <trkpt lat="43.57206" lon="6.39294">
        <ele>559.5</ele>
        <time>2020-09-16T12:51:10Z</time>
      </trkpt>
      <trkpt lat="43.57205" lon="6.39288">
        <ele>559.5</ele>
        <time>2020-09-16T12:51:13Z</time>
      </trkpt>
      <trkpt lat="43.57204" lon="6.39283">
        <ele>559.6</ele>
        <time>2020-09-16T12:51:16Z</time>
      </trkpt>
      <trkpt lat="43.57202" lon="6.39278">
        <ele>559.8</ele>
        <time>2020-09-16T12:51:19Z</time>
      </trkpt>
      <trkpt lat="43.57201" lon="6.39273">
        <ele>559.9</ele>
        <time>2020-09-16T12:51:23Z</time>
      </trkpt>
      <trkpt lat="43.57199" lon="6.39269">
        <ele>559.8</ele>
        <time>2020-09-16T12:51:26Z</time>
      </trkpt>
      <trkpt lat="43.57199" lon="6.39264">
        <ele>559.7</ele>
        <time>2020-09-16T12:51:29Z</time>
      </trkpt>
      <trkpt lat="43.57198" lon="6.39258">
        <ele>559.5</ele>
        <time>2020-09-16T12:51:32Z</time>
      </trkpt>
      <trkpt lat="43.57198" lon="6.39253">
        <ele>559.2</ele>
        <time>2020-09-16T12:51:35Z</time>
      </trkpt>
      <trkpt lat="43.57198" lon="6.39251">
        <ele>559.2</ele>
        <time>2020-09-16T12:51:36Z</time>
      </trkpt>
      <trkpt lat="43.57198" lon="6.39241">
        <ele>558.9</ele>
        <time>2020-09-16T12:51:41Z</time>
      </trkpt>
      <trkpt lat="43.57197" lon="6.39236">
        <ele>558.8</ele>
        <time>2020-09-16T12:51:44Z</time>
      </trkpt>
      <trkpt lat="43.57197" lon="6.39231">
        <ele>558.9</ele>
        <time>2020-09-16T12:51:48Z</time>
      </trkpt>
      <trkpt lat="43.57198" lon="6.39225">
        <ele>558.8</ele>
        <time>2020-09-16T12:51:52Z</time>
      </trkpt>
      <trkpt lat="43.57198" lon="6.39219">
        <ele>559</ele>
        <time>2020-09-16T12:51:56Z</time>
      </trkpt>
      <trkpt lat="43.57198" lon="6.39214">
        <ele>559.4</ele>
        <time>2020-09-16T12:52:00Z</time>
      </trkpt>
      <trkpt lat="43.57197" lon="6.39209">
        <ele>559.7</ele>
        <time>2020-09-16T12:52:03Z</time>
      </trkpt>
      <trkpt lat="43.57197" lon="6.39203">
        <ele>560</ele>
        <time>2020-09-16T12:52:07Z</time>
      </trkpt>
      <trkpt lat="43.57197" lon="6.39198">
        <ele>560.2</ele>
        <time>2020-09-16T12:52:11Z</time>
      </trkpt>
      <trkpt lat="43.57198" lon="6.39192">
        <ele>560.5</ele>
        <time>2020-09-16T12:52:15Z</time>
      </trkpt>
      <trkpt lat="43.57199" lon="6.39186">
        <ele>560.6</ele>
        <time>2020-09-16T12:52:19Z</time>
      </trkpt>
      <trkpt lat="43.572" lon="6.39181">
        <ele>560.9</ele>
        <time>2020-09-16T12:52:23Z</time>
      </trkpt>
      <trkpt lat="43.57201" lon="6.39176">
        <ele>561.2</ele>
        <time>2020-09-16T12:52:27Z</time>
      </trkpt>
      <trkpt lat="43.57201" lon="6.3917">
        <ele>561.5</ele>
        <time>2020-09-16T12:52:31Z</time>
      </trkpt>
      <trkpt lat="43.572" lon="6.39165">
        <ele>561.8</ele>
        <time>2020-09-16T12:52:35Z</time>
      </trkpt>
      <trkpt lat="43.57199" lon="6.3916">
        <ele>561.9</ele>
        <time>2020-09-16T12:52:39Z</time>
      </trkpt>
      <trkpt lat="43.57199" lon="6.39158">
        <ele>561.9</ele>
        <time>2020-09-16T12:52:40Z</time>
      </trkpt>
      <trkpt lat="43.57196" lon="6.39149">
        <ele>562.5</ele>
        <time>2020-09-16T12:52:47Z</time>
      </trkpt>
      <trkpt lat="43.57195" lon="6.39143">
        <ele>562.8</ele>
        <time>2020-09-16T12:52:50Z</time>
      </trkpt>
      <trkpt lat="43.57194" lon="6.39138">
        <ele>563.1</ele>
        <time>2020-09-16T12:52:53Z</time>
      </trkpt>
      <trkpt lat="43.57193" lon="6.39133">
        <ele>563.2</ele>
        <time>2020-09-16T12:52:56Z</time>
      </trkpt>
      <trkpt lat="43.57192" lon="6.39128">
        <ele>563.1</ele>
        <time>2020-09-16T12:52:59Z</time>
      </trkpt>
      <trkpt lat="43.57191" lon="6.39123">
        <ele>563</ele>
        <time>2020-09-16T12:53:02Z</time>
      </trkpt>
      <trkpt lat="43.5719" lon="6.39118">
        <ele>562.9</ele>
        <time>2020-09-16T12:53:05Z</time>
      </trkpt>
      <trkpt lat="43.5719" lon="6.39113">
        <ele>562.6</ele>
        <time>2020-09-16T12:53:08Z</time>
      </trkpt>
      <trkpt lat="43.57188" lon="6.39109">
        <ele>562.3</ele>
        <time>2020-09-16T12:53:11Z</time>
      </trkpt>
      <trkpt lat="43.57187" lon="6.39104">
        <ele>562.2</ele>
        <time>2020-09-16T12:53:14Z</time>
      </trkpt>
      <trkpt lat="43.57186" lon="6.391">
        <ele>562.1</ele>
        <time>2020-09-16T12:53:17Z</time>
      </trkpt>
      <trkpt lat="43.57184" lon="6.39095">
        <ele>562.2</ele>
        <time>2020-09-16T12:53:20Z</time>
      </trkpt>
      <trkpt lat="43.57183" lon="6.3909">
        <ele>562.2</ele>
        <time>2020-09-16T12:53:23Z</time>
      </trkpt>
      <trkpt lat="43.57181" lon="6.39086">
        <ele>562.1</ele>
        <time>2020-09-16T12:53:27Z</time>
      </trkpt>
      <trkpt lat="43.5718" lon="6.39081">
        <ele>562.1</ele>
        <time>2020-09-16T12:53:30Z</time>
      </trkpt>
      <trkpt lat="43.57178" lon="6.39076">
        <ele>562</ele>
        <time>2020-09-16T12:53:34Z</time>
      </trkpt>
      <trkpt lat="43.57177" lon="6.39071">
        <ele>561.6</ele>
        <time>2020-09-16T12:53:37Z</time>
      </trkpt>
      <trkpt lat="43.57176" lon="6.39065">
        <ele>560.8</ele>
        <time>2020-09-16T12:53:41Z</time>
      </trkpt>
      <trkpt lat="43.57175" lon="6.39063">
        <ele>560.7</ele>
        <time>2020-09-16T12:53:42Z</time>
      </trkpt>
      <trkpt lat="43.57173" lon="6.39055">
        <ele>560.2</ele>
        <time>2020-09-16T12:53:47Z</time>
      </trkpt>
      <trkpt lat="43.57171" lon="6.39049">
        <ele>560</ele>
        <time>2020-09-16T12:53:51Z</time>
      </trkpt>
      <trkpt lat="43.57169" lon="6.39044">
        <ele>559.8</ele>
        <time>2020-09-16T12:53:55Z</time>
      </trkpt>
      <trkpt lat="43.57167" lon="6.39039">
        <ele>559.3</ele>
        <time>2020-09-16T12:53:59Z</time>
      </trkpt>
      <trkpt lat="43.57166" lon="6.39035">
        <ele>559</ele>
        <time>2020-09-16T12:54:02Z</time>
      </trkpt>
      <trkpt lat="43.57166" lon="6.3903">
        <ele>558.7</ele>
        <time>2020-09-16T12:54:05Z</time>
      </trkpt>
      <trkpt lat="43.57165" lon="6.39025">
        <ele>558.4</ele>
        <time>2020-09-16T12:54:08Z</time>
      </trkpt>
      <trkpt lat="43.57165" lon="6.3902">
        <ele>558.3</ele>
        <time>2020-09-16T12:54:11Z</time>
      </trkpt>
      <trkpt lat="43.57164" lon="6.39013">
        <ele>558.3</ele>
        <time>2020-09-16T12:54:15Z</time>
      </trkpt>
      <trkpt lat="43.57165" lon="6.39009">
        <ele>558.3</ele>
        <time>2020-09-16T12:54:18Z</time>
      </trkpt>
      <trkpt lat="43.57165" lon="6.39004">
        <ele>558.5</ele>
        <time>2020-09-16T12:54:21Z</time>
      </trkpt>
      <trkpt lat="43.57165" lon="6.38998">
        <ele>558.4</ele>
        <time>2020-09-16T12:54:24Z</time>
      </trkpt>
      <trkpt lat="43.57166" lon="6.38994">
        <ele>558.4</ele>
        <time>2020-09-16T12:54:27Z</time>
      </trkpt>
      <trkpt lat="43.57166" lon="6.38988">
        <ele>558.4</ele>
        <time>2020-09-16T12:54:30Z</time>
      </trkpt>
      <trkpt lat="43.57167" lon="6.38983">
        <ele>558.4</ele>
        <time>2020-09-16T12:54:33Z</time>
      </trkpt>
      <trkpt lat="43.57168" lon="6.38979">
        <ele>558.4</ele>
        <time>2020-09-16T12:54:36Z</time>
      </trkpt>
      <trkpt lat="43.57169" lon="6.38974">
        <ele>558.3</ele>
        <time>2020-09-16T12:54:40Z</time>
      </trkpt>
      <trkpt lat="43.57171" lon="6.38968">
        <ele>558.6</ele>
        <time>2020-09-16T12:54:44Z</time>
      </trkpt>
      <trkpt lat="43.57172" lon="6.38967">
        <ele>558.7</ele>
        <time>2020-09-16T12:54:45Z</time>
      </trkpt>
      <trkpt lat="43.57174" lon="6.38958">
        <ele>559</ele>
        <time>2020-09-16T12:54:52Z</time>
      </trkpt>
      <trkpt lat="43.57176" lon="6.38952">
        <ele>559.1</ele>
        <time>2020-09-16T12:54:56Z</time>
      </trkpt>
      <trkpt lat="43.57178" lon="6.38947">
        <ele>559.5</ele>
        <time>2020-09-16T12:55:00Z</time>
      </trkpt>
      <trkpt lat="43.5718" lon="6.38942">
        <ele>559.8</ele>
        <time>2020-09-16T12:55:04Z</time>
      </trkpt>
      <trkpt lat="43.57182" lon="6.38937">
        <ele>560.1</ele>
        <time>2020-09-16T12:55:08Z</time>
      </trkpt>
      <trkpt lat="43.57184" lon="6.38931">
        <ele>559.9</ele>
        <time>2020-09-16T12:55:12Z</time>
      </trkpt>
      <trkpt lat="43.57186" lon="6.38927">
        <ele>559.7</ele>
        <time>2020-09-16T12:55:15Z</time>
      </trkpt>
      <trkpt lat="43.57189" lon="6.38923">
        <ele>559.5</ele>
        <time>2020-09-16T12:55:18Z</time>
      </trkpt>
      <trkpt lat="43.57192" lon="6.3892">
        <ele>559.2</ele>
        <time>2020-09-16T12:55:21Z</time>
      </trkpt>
      <trkpt lat="43.57196" lon="6.38919">
        <ele>559.1</ele>
        <time>2020-09-16T12:55:25Z</time>
      </trkpt>
      <trkpt lat="43.572" lon="6.38917">
        <ele>559</ele>
        <time>2020-09-16T12:55:29Z</time>
      </trkpt>
      <trkpt lat="43.57203" lon="6.38915">
        <ele>559</ele>
        <time>2020-09-16T12:55:32Z</time>
      </trkpt>
      <trkpt lat="43.57206" lon="6.38912">
        <ele>559</ele>
        <time>2020-09-16T12:55:36Z</time>
      </trkpt>
      <trkpt lat="43.5721" lon="6.3891">
        <ele>559</ele>
        <time>2020-09-16T12:55:40Z</time>
      </trkpt>
      <trkpt lat="43.57213" lon="6.38907">
        <ele>558.8</ele>
        <time>2020-09-16T12:55:45Z</time>
      </trkpt>
      <trkpt lat="43.57214" lon="6.38907">
        <ele>558.8</ele>
        <time>2020-09-16T12:55:46Z</time>
      </trkpt>
      <trkpt lat="43.57221" lon="6.38901">
        <ele>557.6</ele>
        <time>2020-09-16T12:55:56Z</time>
      </trkpt>
      <trkpt lat="43.57224" lon="6.38898">
        <ele>556.9</ele>
        <time>2020-09-16T12:56:00Z</time>
      </trkpt>
      <trkpt lat="43.57227" lon="6.38894">
        <ele>556.3</ele>
        <time>2020-09-16T12:56:04Z</time>
      </trkpt>
      <trkpt lat="43.57231" lon="6.38892">
        <ele>555.3</ele>
        <time>2020-09-16T12:56:08Z</time>
      </trkpt>
      <trkpt lat="43.57234" lon="6.38889">
        <ele>554.7</ele>
        <time>2020-09-16T12:56:11Z</time>
      </trkpt>
      <trkpt lat="43.57237" lon="6.38888">
        <ele>554.3</ele>
        <time>2020-09-16T12:56:14Z</time>
      </trkpt>
      <trkpt lat="43.57241" lon="6.38885">
        <ele>553.8</ele>
        <time>2020-09-16T12:56:18Z</time>
      </trkpt>
      <trkpt lat="43.57245" lon="6.38884">
        <ele>553.2</ele>
        <time>2020-09-16T12:56:22Z</time>
      </trkpt>
      <trkpt lat="43.57249" lon="6.38882">
        <ele>552.5</ele>
        <time>2020-09-16T12:56:27Z</time>
      </trkpt>
      <trkpt lat="43.57252" lon="6.3888">
        <ele>552.1</ele>
        <time>2020-09-16T12:56:31Z</time>
      </trkpt>
      <trkpt lat="43.57256" lon="6.38878">
        <ele>551.7</ele>
        <time>2020-09-16T12:56:36Z</time>
      </trkpt>
      <trkpt lat="43.5726" lon="6.38876">
        <ele>550.9</ele>
        <time>2020-09-16T12:56:41Z</time>
      </trkpt>
      <trkpt lat="43.57263" lon="6.38873">
        <ele>550.1</ele>
        <time>2020-09-16T12:56:46Z</time>
      </trkpt>
      <trkpt lat="43.57264" lon="6.38872">
        <ele>549.9</ele>
        <time>2020-09-16T12:56:47Z</time>
      </trkpt>
      <trkpt lat="43.5727" lon="6.38866">
        <ele>549</ele>
        <time>2020-09-16T12:56:54Z</time>
      </trkpt>
      <trkpt lat="43.57273" lon="6.38861">
        <ele>548.5</ele>
        <time>2020-09-16T12:56:58Z</time>
      </trkpt>
      <trkpt lat="43.57275" lon="6.38857">
        <ele>547.9</ele>
        <time>2020-09-16T12:57:02Z</time>
      </trkpt>
      <trkpt lat="43.57277" lon="6.38853">
        <ele>547.4</ele>
        <time>2020-09-16T12:57:07Z</time>
      </trkpt>
      <trkpt lat="43.5728" lon="6.3885">
        <ele>546.9</ele>
        <time>2020-09-16T12:57:11Z</time>
      </trkpt>
      <trkpt lat="43.57282" lon="6.38845">
        <ele>545.9</ele>
        <time>2020-09-16T12:57:15Z</time>
      </trkpt>
      <trkpt lat="43.57284" lon="6.38841">
        <ele>545.1</ele>
        <time>2020-09-16T12:57:20Z</time>
      </trkpt>
      <trkpt lat="43.57286" lon="6.38835">
        <ele>544</ele>
        <time>2020-09-16T12:57:28Z</time>
      </trkpt>
      <trkpt lat="43.57286" lon="6.38829">
        <ele>542.7</ele>
        <time>2020-09-16T12:57:39Z</time>
      </trkpt>
      <trkpt lat="43.57284" lon="6.38824">
        <ele>539.9</ele>
        <time>2020-09-16T12:58:04Z</time>
      </trkpt>
      <trkpt lat="43.57284" lon="6.38824">
        <ele>539.8</ele>
        <time>2020-09-16T12:58:05Z</time>
      </trkpt>
      <trkpt lat="43.57283" lon="6.38817">
        <ele>539.1</ele>
        <time>2020-09-16T12:59:03Z</time>
      </trkpt>
      <trkpt lat="43.57279" lon="6.38815">
        <ele>538.9</ele>
        <time>2020-09-16T12:59:09Z</time>
      </trkpt>
      <trkpt lat="43.57279" lon="6.38814">
        <ele>538.8</ele>
        <time>2020-09-16T12:59:10Z</time>
      </trkpt>
      <trkpt lat="43.57272" lon="6.38809">
        <ele>537.8</ele>
        <time>2020-09-16T12:59:20Z</time>
      </trkpt>
      <trkpt lat="43.57268" lon="6.38809">
        <ele>537.2</ele>
        <time>2020-09-16T12:59:26Z</time>
      </trkpt>
      <trkpt lat="43.57264" lon="6.38811">
        <ele>536.6</ele>
        <time>2020-09-16T12:59:35Z</time>
      </trkpt>
      <trkpt lat="43.5726" lon="6.38812">
        <ele>536.4</ele>
        <time>2020-09-16T12:59:39Z</time>
      </trkpt>
      <trkpt lat="43.57257" lon="6.38813">
        <ele>536.2</ele>
        <time>2020-09-16T12:59:43Z</time>
      </trkpt>
      <trkpt lat="43.57252" lon="6.38812">
        <ele>535.7</ele>
        <time>2020-09-16T12:59:49Z</time>
      </trkpt>
      <trkpt lat="43.57248" lon="6.3881">
        <ele>535.1</ele>
        <time>2020-09-16T13:00:04Z</time>
      </trkpt>
      <trkpt lat="43.57245" lon="6.38806">
        <ele>535.2</ele>
        <time>2020-09-16T13:00:13Z</time>
      </trkpt>
      <trkpt lat="43.57245" lon="6.38806">
        <ele>535.2</ele>
        <time>2020-09-16T13:00:14Z</time>
      </trkpt>
      <trkpt lat="43.57246" lon="6.38795">
        <ele>536.1</ele>
        <time>2020-09-16T13:00:28Z</time>
      </trkpt>
      <trkpt lat="43.57247" lon="6.38789">
        <ele>537.2</ele>
        <time>2020-09-16T13:00:42Z</time>
      </trkpt>
      <trkpt lat="43.57249" lon="6.38784">
        <ele>538.9</ele>
        <time>2020-09-16T13:00:56Z</time>
      </trkpt>
      <trkpt lat="43.57249" lon="6.38778">
        <ele>540.3</ele>
        <time>2020-09-16T13:01:12Z</time>
      </trkpt>
      <trkpt lat="43.57249" lon="6.38772">
        <ele>541.9</ele>
        <time>2020-09-16T13:01:24Z</time>
      </trkpt>
      <trkpt lat="43.57249" lon="6.38771">
        <ele>542</ele>
        <time>2020-09-16T13:01:25Z</time>
      </trkpt>
      <trkpt lat="43.57242" lon="6.38766">
        <ele>544.2</ele>
        <time>2020-09-16T13:01:40Z</time>
      </trkpt>
      <trkpt lat="43.57239" lon="6.38763">
        <ele>545.3</ele>
        <time>2020-09-16T13:01:49Z</time>
      </trkpt>
      <trkpt lat="43.57235" lon="6.38762">
        <ele>546.3</ele>
        <time>2020-09-16T13:01:56Z</time>
      </trkpt>
      <trkpt lat="43.57234" lon="6.38756">
        <ele>547.5</ele>
        <time>2020-09-16T13:02:04Z</time>
      </trkpt>
      <trkpt lat="43.57232" lon="6.38751">
        <ele>547.4</ele>
        <time>2020-09-16T13:02:11Z</time>
      </trkpt>
      <trkpt lat="43.57232" lon="6.38745">
        <ele>547.1</ele>
        <time>2020-09-16T13:02:18Z</time>
      </trkpt>
      <trkpt lat="43.57232" lon="6.38751">
        <ele>548.1</ele>
        <time>2020-09-16T13:03:47Z</time>
      </trkpt>
      <trkpt lat="43.57232" lon="6.38752">
        <ele>548.1</ele>
        <time>2020-09-16T13:03:48Z</time>
      </trkpt>
      <trkpt lat="43.57231" lon="6.3875">
        <ele>548.2</ele>
        <time>2020-09-16T13:04:11Z</time>
      </trkpt>
      <trkpt lat="43.57228" lon="6.38746">
        <ele>548.2</ele>
        <time>2020-09-16T13:04:20Z</time>
      </trkpt>
      <trkpt lat="43.57225" lon="6.38743">
        <ele>548.6</ele>
        <time>2020-09-16T13:04:28Z</time>
      </trkpt>
      <trkpt lat="43.57221" lon="6.38739">
        <ele>549.2</ele>
        <time>2020-09-16T13:04:38Z</time>
      </trkpt>
      <trkpt lat="43.57221" lon="6.38733">
        <ele>550.3</ele>
        <time>2020-09-16T13:04:49Z</time>
      </trkpt>
      <trkpt lat="43.57221" lon="6.38733">
        <ele>550.4</ele>
        <time>2020-09-16T13:04:50Z</time>
      </trkpt>
      <trkpt lat="43.5722" lon="6.38722">
        <ele>552.3</ele>
        <time>2020-09-16T13:05:07Z</time>
      </trkpt>
      <trkpt lat="43.57219" lon="6.38716">
        <ele>553.8</ele>
        <time>2020-09-16T13:05:17Z</time>
      </trkpt>
      <trkpt lat="43.5722" lon="6.38711">
        <ele>554.5</ele>
        <time>2020-09-16T13:05:24Z</time>
      </trkpt>
      <trkpt lat="43.57221" lon="6.38705">
        <ele>555.2</ele>
        <time>2020-09-16T13:05:31Z</time>
      </trkpt>
      <trkpt lat="43.57221" lon="6.38699">
        <ele>556.1</ele>
        <time>2020-09-16T13:05:38Z</time>
      </trkpt>
      <trkpt lat="43.57221" lon="6.38693">
        <ele>557.1</ele>
        <time>2020-09-16T13:05:46Z</time>
      </trkpt>
      <trkpt lat="43.57218" lon="6.38688">
        <ele>558.3</ele>
        <time>2020-09-16T13:05:55Z</time>
      </trkpt>
      <trkpt lat="43.57218" lon="6.38688">
        <ele>558.5</ele>
        <time>2020-09-16T13:05:56Z</time>
      </trkpt>
      <trkpt lat="43.57214" lon="6.38679">
        <ele>560.2</ele>
        <time>2020-09-16T13:06:09Z</time>
      </trkpt>
      <trkpt lat="43.57212" lon="6.38674">
        <ele>561.5</ele>
        <time>2020-09-16T13:06:18Z</time>
      </trkpt>
      <trkpt lat="43.57208" lon="6.38671">
        <ele>562.1</ele>
        <time>2020-09-16T13:06:24Z</time>
      </trkpt>
      <trkpt lat="43.57206" lon="6.38667">
        <ele>562.4</ele>
        <time>2020-09-16T13:06:29Z</time>
      </trkpt>
      <trkpt lat="43.57202" lon="6.38663">
        <ele>562.7</ele>
        <time>2020-09-16T13:06:35Z</time>
      </trkpt>
      <trkpt lat="43.572" lon="6.38658">
        <ele>563</ele>
        <time>2020-09-16T13:06:42Z</time>
      </trkpt>
      <trkpt lat="43.572" lon="6.38652">
        <ele>563.6</ele>
        <time>2020-09-16T13:06:47Z</time>
      </trkpt>
      <trkpt lat="43.57198" lon="6.38647">
        <ele>564</ele>
        <time>2020-09-16T13:06:51Z</time>
      </trkpt>
      <trkpt lat="43.57197" lon="6.38642">
        <ele>564.6</ele>
        <time>2020-09-16T13:06:57Z</time>
      </trkpt>
      <trkpt lat="43.57197" lon="6.38641">
        <ele>564.7</ele>
        <time>2020-09-16T13:06:58Z</time>
      </trkpt>
      <trkpt lat="43.57194" lon="6.38631">
        <ele>565.7</ele>
        <time>2020-09-16T13:07:10Z</time>
      </trkpt>
      <trkpt lat="43.57193" lon="6.38626">
        <ele>566.3</ele>
        <time>2020-09-16T13:07:16Z</time>
      </trkpt>
      <trkpt lat="43.57191" lon="6.38621">
        <ele>567</ele>
        <time>2020-09-16T13:07:22Z</time>
      </trkpt>
      <trkpt lat="43.57191" lon="6.38616">
        <ele>567.4</ele>
        <time>2020-09-16T13:07:27Z</time>
      </trkpt>
      <trkpt lat="43.57192" lon="6.38611">
        <ele>567.8</ele>
        <time>2020-09-16T13:07:32Z</time>
      </trkpt>
      <trkpt lat="43.57192" lon="6.38605">
        <ele>568.5</ele>
        <time>2020-09-16T13:07:37Z</time>
      </trkpt>
      <trkpt lat="43.57192" lon="6.38599">
        <ele>569.1</ele>
        <time>2020-09-16T13:07:42Z</time>
      </trkpt>
      <trkpt lat="43.57191" lon="6.38594">
        <ele>569.5</ele>
        <time>2020-09-16T13:07:46Z</time>
      </trkpt>
      <trkpt lat="43.57189" lon="6.38588">
        <ele>570</ele>
        <time>2020-09-16T13:07:51Z</time>
      </trkpt>
      <trkpt lat="43.57188" lon="6.38583">
        <ele>570.4</ele>
        <time>2020-09-16T13:07:56Z</time>
      </trkpt>
      <trkpt lat="43.57187" lon="6.38577">
        <ele>570.8</ele>
        <time>2020-09-16T13:08:00Z</time>
      </trkpt>
      <trkpt lat="43.57187" lon="6.38576">
        <ele>570.9</ele>
        <time>2020-09-16T13:08:01Z</time>
      </trkpt>
      <trkpt lat="43.57188" lon="6.38566">
        <ele>572.1</ele>
        <time>2020-09-16T13:08:10Z</time>
      </trkpt>
      <trkpt lat="43.57188" lon="6.38561">
        <ele>572.7</ele>
        <time>2020-09-16T13:08:15Z</time>
      </trkpt>
      <trkpt lat="43.57189" lon="6.38556">
        <ele>573.3</ele>
        <time>2020-09-16T13:08:21Z</time>
      </trkpt>
      <trkpt lat="43.57189" lon="6.3855">
        <ele>573.7</ele>
        <time>2020-09-16T13:08:26Z</time>
      </trkpt>
      <trkpt lat="43.5719" lon="6.38545">
        <ele>574</ele>
        <time>2020-09-16T13:08:30Z</time>
      </trkpt>
      <trkpt lat="43.57191" lon="6.38539">
        <ele>574.6</ele>
        <time>2020-09-16T13:08:36Z</time>
      </trkpt>
      <trkpt lat="43.57192" lon="6.38533">
        <ele>574.9</ele>
        <time>2020-09-16T13:08:42Z</time>
      </trkpt>
      <trkpt lat="43.57193" lon="6.38528">
        <ele>575.3</ele>
        <time>2020-09-16T13:08:48Z</time>
      </trkpt>
      <trkpt lat="43.57194" lon="6.38523">
        <ele>575.9</ele>
        <time>2020-09-16T13:08:53Z</time>
      </trkpt>
      <trkpt lat="43.57193" lon="6.38517">
        <ele>576.4</ele>
        <time>2020-09-16T13:08:58Z</time>
      </trkpt>
      <trkpt lat="43.57193" lon="6.38511">
        <ele>576.8</ele>
        <time>2020-09-16T13:09:02Z</time>
      </trkpt>
      <trkpt lat="43.57193" lon="6.3851">
        <ele>576.9</ele>
        <time>2020-09-16T13:09:03Z</time>
      </trkpt>
      <trkpt lat="43.57192" lon="6.385">
        <ele>578</ele>
        <time>2020-09-16T13:09:12Z</time>
      </trkpt>
      <trkpt lat="43.57193" lon="6.38494">
        <ele>578.4</ele>
        <time>2020-09-16T13:09:17Z</time>
      </trkpt>
      <trkpt lat="43.57194" lon="6.38489">
        <ele>578.9</ele>
        <time>2020-09-16T13:09:22Z</time>
      </trkpt>
      <trkpt lat="43.57195" lon="6.38483">
        <ele>579.4</ele>
        <time>2020-09-16T13:09:27Z</time>
      </trkpt>
      <trkpt lat="43.57197" lon="6.38478">
        <ele>580</ele>
        <time>2020-09-16T13:09:32Z</time>
      </trkpt>
      <trkpt lat="43.57198" lon="6.38472">
        <ele>580.6</ele>
        <time>2020-09-16T13:09:38Z</time>
      </trkpt>
      <trkpt lat="43.57199" lon="6.38467">
        <ele>581.5</ele>
        <time>2020-09-16T13:09:45Z</time>
      </trkpt>
      <trkpt lat="43.57199" lon="6.38462">
        <ele>582.1</ele>
        <time>2020-09-16T13:09:51Z</time>
      </trkpt>
      <trkpt lat="43.572" lon="6.38456">
        <ele>582.7</ele>
        <time>2020-09-16T13:09:56Z</time>
      </trkpt>
      <trkpt lat="43.57202" lon="6.38452">
        <ele>583.7</ele>
        <time>2020-09-16T13:10:04Z</time>
      </trkpt>
      <trkpt lat="43.57203" lon="6.38451">
        <ele>583.9</ele>
        <time>2020-09-16T13:10:05Z</time>
      </trkpt>
      <trkpt lat="43.57207" lon="6.38441">
        <ele>585.3</ele>
        <time>2020-09-16T13:10:15Z</time>
      </trkpt>
      <trkpt lat="43.57209" lon="6.38437">
        <ele>586</ele>
        <time>2020-09-16T13:10:20Z</time>
      </trkpt>
      <trkpt lat="43.57211" lon="6.38432">
        <ele>586.5</ele>
        <time>2020-09-16T13:10:25Z</time>
      </trkpt>
      <trkpt lat="43.57213" lon="6.38427">
        <ele>586.9</ele>
        <time>2020-09-16T13:10:29Z</time>
      </trkpt>
      <trkpt lat="43.57215" lon="6.38422">
        <ele>587.4</ele>
        <time>2020-09-16T13:10:33Z</time>
      </trkpt>
      <trkpt lat="43.57217" lon="6.38416">
        <ele>587.8</ele>
        <time>2020-09-16T13:10:37Z</time>
      </trkpt>
      <trkpt lat="43.57218" lon="6.38411">
        <ele>588.3</ele>
        <time>2020-09-16T13:10:41Z</time>
      </trkpt>
      <trkpt lat="43.57218" lon="6.38405">
        <ele>588.8</ele>
        <time>2020-09-16T13:10:47Z</time>
      </trkpt>
      <trkpt lat="43.57218" lon="6.384">
        <ele>589.4</ele>
        <time>2020-09-16T13:10:55Z</time>
      </trkpt>
      <trkpt lat="43.57218" lon="6.38394">
        <ele>589.7</ele>
        <time>2020-09-16T13:11:00Z</time>
      </trkpt>
      <trkpt lat="43.57219" lon="6.38388">
        <ele>590</ele>
        <time>2020-09-16T13:11:05Z</time>
      </trkpt>
      <trkpt lat="43.57219" lon="6.38387">
        <ele>590.1</ele>
        <time>2020-09-16T13:11:06Z</time>
      </trkpt>
      <trkpt lat="43.57218" lon="6.38378">
        <ele>590.4</ele>
        <time>2020-09-16T13:11:14Z</time>
      </trkpt>
      <trkpt lat="43.57218" lon="6.38372">
        <ele>590.6</ele>
        <time>2020-09-16T13:11:18Z</time>
      </trkpt>
      <trkpt lat="43.57218" lon="6.38366">
        <ele>590.8</ele>
        <time>2020-09-16T13:11:23Z</time>
      </trkpt>
      <trkpt lat="43.57217" lon="6.38361">
        <ele>590.9</ele>
        <time>2020-09-16T13:11:27Z</time>
      </trkpt>
      <trkpt lat="43.57217" lon="6.38355">
        <ele>591</ele>
        <time>2020-09-16T13:11:31Z</time>
      </trkpt>
      <trkpt lat="43.57218" lon="6.3835">
        <ele>591.1</ele>
        <time>2020-09-16T13:11:34Z</time>
      </trkpt>
      <trkpt lat="43.57218" lon="6.38344">
        <ele>591.1</ele>
        <time>2020-09-16T13:11:38Z</time>
      </trkpt>
      <trkpt lat="43.57218" lon="6.38339">
        <ele>591.2</ele>
        <time>2020-09-16T13:11:41Z</time>
      </trkpt>
      <trkpt lat="43.57217" lon="6.38334">
        <ele>591.2</ele>
        <time>2020-09-16T13:11:44Z</time>
      </trkpt>
      <trkpt lat="43.57216" lon="6.38328">
        <ele>591.3</ele>
        <time>2020-09-16T13:11:48Z</time>
      </trkpt>
      <trkpt lat="43.57217" lon="6.38322">
        <ele>591.4</ele>
        <time>2020-09-16T13:11:52Z</time>
      </trkpt>
      <trkpt lat="43.57218" lon="6.38317">
        <ele>591.3</ele>
        <time>2020-09-16T13:11:57Z</time>
      </trkpt>
      <trkpt lat="43.57219" lon="6.38312">
        <ele>591.4</ele>
        <time>2020-09-16T13:12:03Z</time>
      </trkpt>
      <trkpt lat="43.5722" lon="6.38307">
        <ele>591.6</ele>
        <time>2020-09-16T13:12:10Z</time>
      </trkpt>
      <trkpt lat="43.5722" lon="6.38306">
        <ele>591.6</ele>
        <time>2020-09-16T13:12:11Z</time>
      </trkpt>
      <trkpt lat="43.57223" lon="6.38296">
        <ele>591.6</ele>
        <time>2020-09-16T13:12:28Z</time>
      </trkpt>
      <trkpt lat="43.57225" lon="6.38291">
        <ele>591.7</ele>
        <time>2020-09-16T13:12:35Z</time>
      </trkpt>
      <trkpt lat="43.57226" lon="6.38285">
        <ele>591.6</ele>
        <time>2020-09-16T13:12:46Z</time>
      </trkpt>
      <trkpt lat="43.57223" lon="6.38281">
        <ele>591.5</ele>
        <time>2020-09-16T13:13:48Z</time>
      </trkpt>
      <trkpt lat="43.57223" lon="6.3828">
        <ele>591.5</ele>
        <time>2020-09-16T13:13:49Z</time>
      </trkpt>
      <trkpt lat="43.57223" lon="6.3827">
        <ele>589.6</ele>
        <time>2020-09-16T13:14:10Z</time>
      </trkpt>
      <trkpt lat="43.57224" lon="6.38264">
        <ele>589.1</ele>
        <time>2020-09-16T13:14:16Z</time>
      </trkpt>
      <trkpt lat="43.57224" lon="6.38258">
        <ele>588.6</ele>
        <time>2020-09-16T13:14:23Z</time>
      </trkpt>
      <trkpt lat="43.57225" lon="6.38253">
        <ele>588.3</ele>
        <time>2020-09-16T13:14:27Z</time>
      </trkpt>
      <trkpt lat="43.57225" lon="6.38247">
        <ele>588.1</ele>
        <time>2020-09-16T13:14:32Z</time>
      </trkpt>
      <trkpt lat="43.57226" lon="6.38241">
        <ele>588.2</ele>
        <time>2020-09-16T13:14:37Z</time>
      </trkpt>
      <trkpt lat="43.57227" lon="6.38236">
        <ele>588.1</ele>
        <time>2020-09-16T13:14:41Z</time>
      </trkpt>
      <trkpt lat="43.57227" lon="6.3823">
        <ele>587.8</ele>
        <time>2020-09-16T13:14:45Z</time>
      </trkpt>
      <trkpt lat="43.57227" lon="6.38225">
        <ele>587.7</ele>
        <time>2020-09-16T13:14:48Z</time>
      </trkpt>
      <trkpt lat="43.57227" lon="6.3822">
        <ele>587.5</ele>
        <time>2020-09-16T13:14:51Z</time>
      </trkpt>
      <trkpt lat="43.57227" lon="6.38218">
        <ele>587.4</ele>
        <time>2020-09-16T13:14:52Z</time>
      </trkpt>
      <trkpt lat="43.57228" lon="6.38209">
        <ele>586.6</ele>
        <time>2020-09-16T13:15:01Z</time>
      </trkpt>
      <trkpt lat="43.57229" lon="6.38203">
        <ele>586.7</ele>
        <time>2020-09-16T13:15:06Z</time>
      </trkpt>
      <trkpt lat="43.57228" lon="6.38198">
        <ele>586.8</ele>
        <time>2020-09-16T13:15:09Z</time>
      </trkpt>
      <trkpt lat="43.57228" lon="6.38193">
        <ele>586.9</ele>
        <time>2020-09-16T13:15:13Z</time>
      </trkpt>
      <trkpt lat="43.57227" lon="6.38187">
        <ele>586.9</ele>
        <time>2020-09-16T13:15:17Z</time>
      </trkpt>
      <trkpt lat="43.57227" lon="6.38181">
        <ele>586.6</ele>
        <time>2020-09-16T13:15:21Z</time>
      </trkpt>
      <trkpt lat="43.57226" lon="6.38176">
        <ele>586.3</ele>
        <time>2020-09-16T13:15:24Z</time>
      </trkpt>
      <trkpt lat="43.57226" lon="6.38171">
        <ele>586.1</ele>
        <time>2020-09-16T13:15:27Z</time>
      </trkpt>
      <trkpt lat="43.57227" lon="6.38167">
        <ele>586</ele>
        <time>2020-09-16T13:15:30Z</time>
      </trkpt>
      <trkpt lat="43.57227" lon="6.38161">
        <ele>586</ele>
        <time>2020-09-16T13:15:33Z</time>
      </trkpt>
      <trkpt lat="43.57226" lon="6.38156">
        <ele>586</ele>
        <time>2020-09-16T13:15:36Z</time>
      </trkpt>
      <trkpt lat="43.57225" lon="6.3815">
        <ele>585.9</ele>
        <time>2020-09-16T13:15:41Z</time>
      </trkpt>
      <trkpt lat="43.57224" lon="6.38144">
        <ele>585.4</ele>
        <time>2020-09-16T13:15:48Z</time>
      </trkpt>
      <trkpt lat="43.57225" lon="6.38139">
        <ele>585.1</ele>
        <time>2020-09-16T13:15:51Z</time>
      </trkpt>
      <trkpt lat="43.57224" lon="6.38133">
        <ele>584.8</ele>
        <time>2020-09-16T13:15:55Z</time>
      </trkpt>
      <trkpt lat="43.57224" lon="6.38132">
        <ele>584.7</ele>
        <time>2020-09-16T13:15:56Z</time>
      </trkpt>
      <trkpt lat="43.57225" lon="6.38122">
        <ele>584.5</ele>
        <time>2020-09-16T13:16:03Z</time>
      </trkpt>
      <trkpt lat="43.57225" lon="6.38116">
        <ele>584.4</ele>
        <time>2020-09-16T13:16:06Z</time>
      </trkpt>
      <trkpt lat="43.57225" lon="6.38111">
        <ele>584.3</ele>
        <time>2020-09-16T13:16:09Z</time>
      </trkpt>
      <trkpt lat="43.57224" lon="6.38106">
        <ele>584.3</ele>
        <time>2020-09-16T13:16:13Z</time>
      </trkpt>
      <trkpt lat="43.57225" lon="6.381">
        <ele>584.3</ele>
        <time>2020-09-16T13:16:17Z</time>
      </trkpt>
      <trkpt lat="43.57225" lon="6.38095">
        <ele>584.2</ele>
        <time>2020-09-16T13:16:21Z</time>
      </trkpt>
      <trkpt lat="43.57225" lon="6.38089">
        <ele>584.2</ele>
        <time>2020-09-16T13:16:25Z</time>
      </trkpt>
      <trkpt lat="43.57225" lon="6.38083">
        <ele>583.8</ele>
        <time>2020-09-16T13:16:29Z</time>
      </trkpt>
      <trkpt lat="43.57225" lon="6.38077">
        <ele>583.5</ele>
        <time>2020-09-16T13:16:33Z</time>
      </trkpt>
      <trkpt lat="43.57226" lon="6.38072">
        <ele>583.4</ele>
        <time>2020-09-16T13:16:37Z</time>
      </trkpt>
      <trkpt lat="43.57227" lon="6.38066">
        <ele>583.2</ele>
        <time>2020-09-16T13:16:41Z</time>
      </trkpt>
      <trkpt lat="43.57229" lon="6.38061">
        <ele>583.1</ele>
        <time>2020-09-16T13:16:44Z</time>
      </trkpt>
      <trkpt lat="43.57231" lon="6.38057">
        <ele>582.9</ele>
        <time>2020-09-16T13:16:47Z</time>
      </trkpt>
      <trkpt lat="43.57233" lon="6.38052">
        <ele>582.6</ele>
        <time>2020-09-16T13:16:51Z</time>
      </trkpt>
      <trkpt lat="43.57234" lon="6.38046">
        <ele>582.4</ele>
        <time>2020-09-16T13:16:56Z</time>
      </trkpt>
      <trkpt lat="43.57234" lon="6.38046">
        <ele>582.4</ele>
        <time>2020-09-16T13:16:57Z</time>
      </trkpt>
      <trkpt lat="43.57238" lon="6.38037">
        <ele>582.2</ele>
        <time>2020-09-16T13:17:06Z</time>
      </trkpt>
      <trkpt lat="43.5724" lon="6.38032">
        <ele>582.1</ele>
        <time>2020-09-16T13:17:10Z</time>
      </trkpt>
      <trkpt lat="43.57241" lon="6.38026">
        <ele>581.7</ele>
        <time>2020-09-16T13:17:15Z</time>
      </trkpt>
      <trkpt lat="43.57243" lon="6.38021">
        <ele>581.8</ele>
        <time>2020-09-16T13:17:19Z</time>
      </trkpt>
      <trkpt lat="43.57245" lon="6.38018">
        <ele>581.8</ele>
        <time>2020-09-16T13:17:23Z</time>
      </trkpt>
      <trkpt lat="43.57248" lon="6.38013">
        <ele>581.8</ele>
        <time>2020-09-16T13:17:27Z</time>
      </trkpt>
      <trkpt lat="43.57251" lon="6.3801">
        <ele>581.5</ele>
        <time>2020-09-16T13:17:31Z</time>
      </trkpt>
      <trkpt lat="43.57254" lon="6.38007">
        <ele>581.3</ele>
        <time>2020-09-16T13:17:34Z</time>
      </trkpt>
      <trkpt lat="43.57256" lon="6.38002">
        <ele>580.8</ele>
        <time>2020-09-16T13:17:38Z</time>
      </trkpt>
      <trkpt lat="43.57259" lon="6.38">
        <ele>580.4</ele>
        <time>2020-09-16T13:17:41Z</time>
      </trkpt>
      <trkpt lat="43.57262" lon="6.37998">
        <ele>580.1</ele>
        <time>2020-09-16T13:17:44Z</time>
      </trkpt>
      <trkpt lat="43.57266" lon="6.37995">
        <ele>579.6</ele>
        <time>2020-09-16T13:17:48Z</time>
      </trkpt>
      <trkpt lat="43.57269" lon="6.37992">
        <ele>579</ele>
        <time>2020-09-16T13:17:53Z</time>
      </trkpt>
      <trkpt lat="43.57272" lon="6.3799">
        <ele>578.5</ele>
        <time>2020-09-16T13:17:57Z</time>
      </trkpt>
      <trkpt lat="43.57273" lon="6.37989">
        <ele>578.4</ele>
        <time>2020-09-16T13:17:58Z</time>
      </trkpt>
      <trkpt lat="43.5728" lon="6.37985">
        <ele>577.7</ele>
        <time>2020-09-16T13:18:05Z</time>
      </trkpt>
      <trkpt lat="43.57284" lon="6.37984">
        <ele>576.9</ele>
        <time>2020-09-16T13:18:09Z</time>
      </trkpt>
      <trkpt lat="43.57288" lon="6.37983">
        <ele>576.3</ele>
        <time>2020-09-16T13:18:13Z</time>
      </trkpt>
      <trkpt lat="43.57291" lon="6.37982">
        <ele>575.8</ele>
        <time>2020-09-16T13:18:16Z</time>
      </trkpt>
      <trkpt lat="43.57296" lon="6.37982">
        <ele>575.3</ele>
        <time>2020-09-16T13:18:20Z</time>
      </trkpt>
      <trkpt lat="43.573" lon="6.37981">
        <ele>574.8</ele>
        <time>2020-09-16T13:18:25Z</time>
      </trkpt>
      <trkpt lat="43.57304" lon="6.37979">
        <ele>574.3</ele>
        <time>2020-09-16T13:18:33Z</time>
      </trkpt>
      <trkpt lat="43.57307" lon="6.37977">
        <ele>574</ele>
        <time>2020-09-16T13:18:38Z</time>
      </trkpt>
      <trkpt lat="43.57311" lon="6.37975">
        <ele>573.5</ele>
        <time>2020-09-16T13:18:43Z</time>
      </trkpt>
      <trkpt lat="43.57315" lon="6.37973">
        <ele>573</ele>
        <time>2020-09-16T13:18:48Z</time>
      </trkpt>
      <trkpt lat="43.57319" lon="6.37973">
        <ele>572.6</ele>
        <time>2020-09-16T13:18:52Z</time>
      </trkpt>
      <trkpt lat="43.57323" lon="6.37972">
        <ele>572.4</ele>
        <time>2020-09-16T13:18:55Z</time>
      </trkpt>
      <trkpt lat="43.57327" lon="6.37972">
        <ele>572.1</ele>
        <time>2020-09-16T13:18:59Z</time>
      </trkpt>
      <trkpt lat="43.57328" lon="6.37972">
        <ele>572.1</ele>
        <time>2020-09-16T13:19:00Z</time>
      </trkpt>
      <trkpt lat="43.57335" lon="6.37973">
        <ele>571.3</ele>
        <time>2020-09-16T13:19:07Z</time>
      </trkpt>
      <trkpt lat="43.57339" lon="6.37968">
        <ele>570.5</ele>
        <time>2020-09-16T13:19:15Z</time>
      </trkpt>
      <trkpt lat="43.57337" lon="6.37963">
        <ele>569.9</ele>
        <time>2020-09-16T13:19:29Z</time>
      </trkpt>
      <trkpt lat="43.57338" lon="6.37958">
        <ele>569.9</ele>
        <time>2020-09-16T13:19:32Z</time>
      </trkpt>
      <trkpt lat="43.57339" lon="6.37953">
        <ele>569.5</ele>
        <time>2020-09-16T13:19:35Z</time>
      </trkpt>
      <trkpt lat="43.57341" lon="6.3795">
        <ele>569.4</ele>
        <time>2020-09-16T13:19:37Z</time>
      </trkpt>
      <trkpt lat="43.57342" lon="6.37945">
        <ele>569.1</ele>
        <time>2020-09-16T13:19:40Z</time>
      </trkpt>
      <trkpt lat="43.57343" lon="6.3794">
        <ele>568.9</ele>
        <time>2020-09-16T13:19:43Z</time>
      </trkpt>
      <trkpt lat="43.57344" lon="6.37935">
        <ele>568.8</ele>
        <time>2020-09-16T13:19:46Z</time>
      </trkpt>
      <trkpt lat="43.57344" lon="6.3793">
        <ele>568.5</ele>
        <time>2020-09-16T13:19:49Z</time>
      </trkpt>
      <trkpt lat="43.57344" lon="6.37924">
        <ele>568.3</ele>
        <time>2020-09-16T13:19:53Z</time>
      </trkpt>
      <trkpt lat="43.57345" lon="6.37918">
        <ele>568.2</ele>
        <time>2020-09-16T13:19:57Z</time>
      </trkpt>
      <trkpt lat="43.57345" lon="6.37912">
        <ele>568.1</ele>
        <time>2020-09-16T13:20:02Z</time>
      </trkpt>
      <trkpt lat="43.57345" lon="6.3791">
        <ele>568.2</ele>
        <time>2020-09-16T13:20:03Z</time>
      </trkpt>
      <trkpt lat="43.57345" lon="6.37902">
        <ele>568.4</ele>
        <time>2020-09-16T13:20:09Z</time>
      </trkpt>
      <trkpt lat="43.57346" lon="6.37897">
        <ele>568.6</ele>
        <time>2020-09-16T13:20:13Z</time>
      </trkpt>
      <trkpt lat="43.57347" lon="6.37891">
        <ele>569</ele>
        <time>2020-09-16T13:20:17Z</time>
      </trkpt>
      <trkpt lat="43.57348" lon="6.37886">
        <ele>569.4</ele>
        <time>2020-09-16T13:20:21Z</time>
      </trkpt>
      <trkpt lat="43.57347" lon="6.37881">
        <ele>569.8</ele>
        <time>2020-09-16T13:20:25Z</time>
      </trkpt>
      <trkpt lat="43.57344" lon="6.37876">
        <ele>570.1</ele>
        <time>2020-09-16T13:20:30Z</time>
      </trkpt>
      <trkpt lat="43.57341" lon="6.37872">
        <ele>570.3</ele>
        <time>2020-09-16T13:20:37Z</time>
      </trkpt>
      <trkpt lat="43.57337" lon="6.37868">
        <ele>570.3</ele>
        <time>2020-09-16T13:20:42Z</time>
      </trkpt>
      <trkpt lat="43.57334" lon="6.37865">
        <ele>570.3</ele>
        <time>2020-09-16T13:20:46Z</time>
      </trkpt>
      <trkpt lat="43.5733" lon="6.37863">
        <ele>570.2</ele>
        <time>2020-09-16T13:20:52Z</time>
      </trkpt>
      <trkpt lat="43.57327" lon="6.37861">
        <ele>569.7</ele>
        <time>2020-09-16T13:20:59Z</time>
      </trkpt>
      <trkpt lat="43.57322" lon="6.37861">
        <ele>569.3</ele>
        <time>2020-09-16T13:21:05Z</time>
      </trkpt>
      <trkpt lat="43.57322" lon="6.37861">
        <ele>569.2</ele>
        <time>2020-09-16T13:21:06Z</time>
      </trkpt>
      <trkpt lat="43.57314" lon="6.37863">
        <ele>567.6</ele>
        <time>2020-09-16T13:21:17Z</time>
      </trkpt>
      <trkpt lat="43.57311" lon="6.37862">
        <ele>567.2</ele>
        <time>2020-09-16T13:21:21Z</time>
      </trkpt>
      <trkpt lat="43.57307" lon="6.37861">
        <ele>566.7</ele>
        <time>2020-09-16T13:21:25Z</time>
      </trkpt>
      <trkpt lat="43.57302" lon="6.37861">
        <ele>566.2</ele>
        <time>2020-09-16T13:21:29Z</time>
      </trkpt>
      <trkpt lat="43.57298" lon="6.37861">
        <ele>565.4</ele>
        <time>2020-09-16T13:21:36Z</time>
      </trkpt>
      <trkpt lat="43.57294" lon="6.37861">
        <ele>564.8</ele>
        <time>2020-09-16T13:21:42Z</time>
      </trkpt>
      <trkpt lat="43.5729" lon="6.37862">
        <ele>564</ele>
        <time>2020-09-16T13:21:50Z</time>
      </trkpt>
      <trkpt lat="43.57286" lon="6.37864">
        <ele>563.6</ele>
        <time>2020-09-16T13:21:55Z</time>
      </trkpt>
      <trkpt lat="43.57282" lon="6.37865">
        <ele>563.3</ele>
        <time>2020-09-16T13:21:59Z</time>
      </trkpt>
      <trkpt lat="43.57279" lon="6.37866">
        <ele>563</ele>
        <time>2020-09-16T13:22:02Z</time>
      </trkpt>
      <trkpt lat="43.57275" lon="6.37868">
        <ele>562.7</ele>
        <time>2020-09-16T13:22:05Z</time>
      </trkpt>
      <trkpt lat="43.57272" lon="6.37869">
        <ele>562.2</ele>
        <time>2020-09-16T13:22:10Z</time>
      </trkpt>
      <trkpt lat="43.5727" lon="6.3787">
        <ele>562</ele>
        <time>2020-09-16T13:22:11Z</time>
      </trkpt>
      <trkpt lat="43.57265" lon="6.3787">
        <ele>561</ele>
        <time>2020-09-16T13:22:17Z</time>
      </trkpt>
      <trkpt lat="43.57261" lon="6.37873">
        <ele>560.2</ele>
        <time>2020-09-16T13:22:21Z</time>
      </trkpt>
      <trkpt lat="43.57257" lon="6.37875">
        <ele>559.2</ele>
        <time>2020-09-16T13:22:27Z</time>
      </trkpt>
      <trkpt lat="43.57253" lon="6.37877">
        <ele>558.7</ele>
        <time>2020-09-16T13:22:30Z</time>
      </trkpt>
      <trkpt lat="43.57249" lon="6.37879">
        <ele>558.1</ele>
        <time>2020-09-16T13:22:34Z</time>
      </trkpt>
      <trkpt lat="43.57246" lon="6.3788">
        <ele>557.5</ele>
        <time>2020-09-16T13:22:39Z</time>
      </trkpt>
      <trkpt lat="43.57241" lon="6.3788">
        <ele>556.9</ele>
        <time>2020-09-16T13:22:43Z</time>
      </trkpt>
      <trkpt lat="43.57238" lon="6.37882">
        <ele>556.6</ele>
        <time>2020-09-16T13:22:45Z</time>
      </trkpt>
      <trkpt lat="43.57234" lon="6.37883">
        <ele>556</ele>
        <time>2020-09-16T13:22:49Z</time>
      </trkpt>
      <trkpt lat="43.5723" lon="6.37885">
        <ele>555.7</ele>
        <time>2020-09-16T13:22:53Z</time>
      </trkpt>
      <trkpt lat="43.57226" lon="6.37886">
        <ele>555.3</ele>
        <time>2020-09-16T13:22:59Z</time>
      </trkpt>
      <trkpt lat="43.57222" lon="6.37884">
        <ele>554.9</ele>
        <time>2020-09-16T13:23:10Z</time>
      </trkpt>
      <trkpt lat="43.57218" lon="6.37882">
        <ele>554.4</ele>
        <time>2020-09-16T13:23:20Z</time>
      </trkpt>
      <trkpt lat="43.57218" lon="6.37882">
        <ele>554.4</ele>
        <time>2020-09-16T13:23:21Z</time>
      </trkpt>
      <trkpt lat="43.57211" lon="6.37881">
        <ele>553.8</ele>
        <time>2020-09-16T13:23:27Z</time>
      </trkpt>
      <trkpt lat="43.57208" lon="6.37882">
        <ele>553.7</ele>
        <time>2020-09-16T13:23:30Z</time>
      </trkpt>
      <trkpt lat="43.57203" lon="6.37882">
        <ele>553.5</ele>
        <time>2020-09-16T13:23:33Z</time>
      </trkpt>
      <trkpt lat="43.57199" lon="6.37882">
        <ele>553.1</ele>
        <time>2020-09-16T13:23:37Z</time>
      </trkpt>
      <trkpt lat="43.57195" lon="6.37883">
        <ele>552.7</ele>
        <time>2020-09-16T13:23:40Z</time>
      </trkpt>
      <trkpt lat="43.57191" lon="6.37883">
        <ele>552.6</ele>
        <time>2020-09-16T13:23:43Z</time>
      </trkpt>
      <trkpt lat="43.57187" lon="6.37882">
        <ele>552.4</ele>
        <time>2020-09-16T13:23:48Z</time>
      </trkpt>
      <trkpt lat="43.57184" lon="6.37878">
        <ele>552.4</ele>
        <time>2020-09-16T13:23:53Z</time>
      </trkpt>
      <trkpt lat="43.57181" lon="6.37874">
        <ele>552.1</ele>
        <time>2020-09-16T13:23:58Z</time>
      </trkpt>
      <trkpt lat="43.57178" lon="6.37873">
        <ele>552</ele>
        <time>2020-09-16T13:24:01Z</time>
      </trkpt>
      <trkpt lat="43.57174" lon="6.37874">
        <ele>552</ele>
        <time>2020-09-16T13:24:04Z</time>
      </trkpt>
      <trkpt lat="43.57171" lon="6.37873">
        <ele>551.9</ele>
        <time>2020-09-16T13:24:07Z</time>
      </trkpt>
      <trkpt lat="43.57167" lon="6.3787">
        <ele>551.6</ele>
        <time>2020-09-16T13:24:12Z</time>
      </trkpt>
      <trkpt lat="43.57164" lon="6.37867">
        <ele>551.4</ele>
        <time>2020-09-16T13:24:15Z</time>
      </trkpt>
      <trkpt lat="43.57161" lon="6.37866">
        <ele>551.3</ele>
        <time>2020-09-16T13:24:17Z</time>
      </trkpt>
      <trkpt lat="43.57159" lon="6.37863">
        <ele>551.3</ele>
        <time>2020-09-16T13:24:20Z</time>
      </trkpt>
      <trkpt lat="43.57156" lon="6.37859">
        <ele>551.2</ele>
        <time>2020-09-16T13:24:23Z</time>
      </trkpt>
      <trkpt lat="43.57155" lon="6.37858">
        <ele>551.2</ele>
        <time>2020-09-16T13:24:24Z</time>
      </trkpt>
      <trkpt lat="43.57152" lon="6.37852">
        <ele>551</ele>
        <time>2020-09-16T13:24:30Z</time>
      </trkpt>
      <trkpt lat="43.5715" lon="6.37847">
        <ele>550.9</ele>
        <time>2020-09-16T13:24:33Z</time>
      </trkpt>
      <trkpt lat="43.57148" lon="6.37842">
        <ele>550.8</ele>
        <time>2020-09-16T13:24:36Z</time>
      </trkpt>
      <trkpt lat="43.57146" lon="6.37838">
        <ele>550.8</ele>
        <time>2020-09-16T13:24:39Z</time>
      </trkpt>
      <trkpt lat="43.57142" lon="6.37835">
        <ele>550.8</ele>
        <time>2020-09-16T13:24:42Z</time>
      </trkpt>
      <trkpt lat="43.57139" lon="6.37832">
        <ele>550.3</ele>
        <time>2020-09-16T13:24:46Z</time>
      </trkpt>
      <trkpt lat="43.57136" lon="6.3783">
        <ele>550</ele>
        <time>2020-09-16T13:24:49Z</time>
      </trkpt>
      <trkpt lat="43.57133" lon="6.37826">
        <ele>549.6</ele>
        <time>2020-09-16T13:24:53Z</time>
      </trkpt>
      <trkpt lat="43.57129" lon="6.37823">
        <ele>549.3</ele>
        <time>2020-09-16T13:24:57Z</time>
      </trkpt>
      <trkpt lat="43.57126" lon="6.3782">
        <ele>549.1</ele>
        <time>2020-09-16T13:25:01Z</time>
      </trkpt>
      <trkpt lat="43.57122" lon="6.37818">
        <ele>549</ele>
        <time>2020-09-16T13:25:05Z</time>
      </trkpt>
      <trkpt lat="43.57119" lon="6.37817">
        <ele>549</ele>
        <time>2020-09-16T13:25:08Z</time>
      </trkpt>
      <trkpt lat="43.57115" lon="6.37813">
        <ele>548.9</ele>
        <time>2020-09-16T13:25:12Z</time>
      </trkpt>
      <trkpt lat="43.57113" lon="6.3781">
        <ele>548.9</ele>
        <time>2020-09-16T13:25:15Z</time>
      </trkpt>
      <trkpt lat="43.57111" lon="6.37805">
        <ele>548.9</ele>
        <time>2020-09-16T13:25:18Z</time>
      </trkpt>
      <trkpt lat="43.57109" lon="6.37801">
        <ele>549.1</ele>
        <time>2020-09-16T13:25:22Z</time>
      </trkpt>
      <trkpt lat="43.57108" lon="6.37796">
        <ele>549.2</ele>
        <time>2020-09-16T13:25:28Z</time>
      </trkpt>
      <trkpt lat="43.57108" lon="6.37795">
        <ele>549.2</ele>
        <time>2020-09-16T13:25:29Z</time>
      </trkpt>
      <trkpt lat="43.57103" lon="6.37786">
        <ele>549.1</ele>
        <time>2020-09-16T13:25:44Z</time>
      </trkpt>
      <trkpt lat="43.571" lon="6.37784">
        <ele>548.9</ele>
        <time>2020-09-16T13:25:49Z</time>
      </trkpt>
      <trkpt lat="43.57097" lon="6.37781">
        <ele>548.5</ele>
        <time>2020-09-16T13:25:53Z</time>
      </trkpt>
      <trkpt lat="43.57093" lon="6.37778">
        <ele>547.9</ele>
        <time>2020-09-16T13:25:57Z</time>
      </trkpt>
      <trkpt lat="43.5709" lon="6.37776">
        <ele>547.5</ele>
        <time>2020-09-16T13:26:00Z</time>
      </trkpt>
      <trkpt lat="43.57086" lon="6.37772">
        <ele>547</ele>
        <time>2020-09-16T13:26:04Z</time>
      </trkpt>
      <trkpt lat="43.57083" lon="6.37768">
        <ele>545.9</ele>
        <time>2020-09-16T13:26:10Z</time>
      </trkpt>
      <trkpt lat="43.57079" lon="6.37765">
        <ele>545.3</ele>
        <time>2020-09-16T13:26:15Z</time>
      </trkpt>
      <trkpt lat="43.57076" lon="6.37765">
        <ele>545</ele>
        <time>2020-09-16T13:26:18Z</time>
      </trkpt>
      <trkpt lat="43.57073" lon="6.37763">
        <ele>544.9</ele>
        <time>2020-09-16T13:26:20Z</time>
      </trkpt>
      <trkpt lat="43.5707" lon="6.37761">
        <ele>544.7</ele>
        <time>2020-09-16T13:26:22Z</time>
      </trkpt>
      <trkpt lat="43.57067" lon="6.37757">
        <ele>544.4</ele>
        <time>2020-09-16T13:26:25Z</time>
      </trkpt>
      <trkpt lat="43.57065" lon="6.37753">
        <ele>544.1</ele>
        <time>2020-09-16T13:26:28Z</time>
      </trkpt>
      <trkpt lat="43.57062" lon="6.37749">
        <ele>544</ele>
        <time>2020-09-16T13:26:30Z</time>
      </trkpt>
      <trkpt lat="43.57061" lon="6.37748">
        <ele>543.9</ele>
        <time>2020-09-16T13:26:31Z</time>
      </trkpt>
      <trkpt lat="43.57059" lon="6.37739">
        <ele>543.5</ele>
        <time>2020-09-16T13:26:39Z</time>
      </trkpt>
      <trkpt lat="43.57059" lon="6.37734">
        <ele>543.4</ele>
        <time>2020-09-16T13:26:44Z</time>
      </trkpt>
      <trkpt lat="43.57061" lon="6.37728">
        <ele>543.2</ele>
        <time>2020-09-16T13:26:50Z</time>
      </trkpt>
      <trkpt lat="43.57064" lon="6.37724">
        <ele>543.4</ele>
        <time>2020-09-16T13:26:58Z</time>
      </trkpt>
      <trkpt lat="43.57067" lon="6.37721">
        <ele>543.6</ele>
        <time>2020-09-16T13:27:03Z</time>
      </trkpt>
      <trkpt lat="43.57071" lon="6.37719">
        <ele>543.8</ele>
        <time>2020-09-16T13:27:07Z</time>
      </trkpt>
      <trkpt lat="43.57074" lon="6.37715">
        <ele>544.8</ele>
        <time>2020-09-16T13:27:18Z</time>
      </trkpt>
      <trkpt lat="43.57077" lon="6.37711">
        <ele>545.2</ele>
        <time>2020-09-16T13:27:26Z</time>
      </trkpt>
      <trkpt lat="43.5708" lon="6.37708">
        <ele>545.7</ele>
        <time>2020-09-16T13:27:33Z</time>
      </trkpt>
      <trkpt lat="43.57081" lon="6.37707">
        <ele>545.8</ele>
        <time>2020-09-16T13:27:34Z</time>
      </trkpt>
      <trkpt lat="43.57085" lon="6.37699">
        <ele>546.7</ele>
        <time>2020-09-16T13:27:43Z</time>
      </trkpt>
      <trkpt lat="43.57088" lon="6.37696">
        <ele>547</ele>
        <time>2020-09-16T13:27:48Z</time>
      </trkpt>
      <trkpt lat="43.57091" lon="6.37693">
        <ele>547.1</ele>
        <time>2020-09-16T13:27:52Z</time>
      </trkpt>
      <trkpt lat="43.57095" lon="6.37691">
        <ele>547.4</ele>
        <time>2020-09-16T13:27:55Z</time>
      </trkpt>
      <trkpt lat="43.57098" lon="6.37687">
        <ele>547.7</ele>
        <time>2020-09-16T13:28:01Z</time>
      </trkpt>
      <trkpt lat="43.57102" lon="6.37683">
        <ele>548</ele>
        <time>2020-09-16T13:28:06Z</time>
      </trkpt>
      <trkpt lat="43.57106" lon="6.37681">
        <ele>548.8</ele>
        <time>2020-09-16T13:28:15Z</time>
      </trkpt>
      <trkpt lat="43.5711" lon="6.37681">
        <ele>549.3</ele>
        <time>2020-09-16T13:28:26Z</time>
      </trkpt>
      <trkpt lat="43.57114" lon="6.37677">
        <ele>549.7</ele>
        <time>2020-09-16T13:28:43Z</time>
      </trkpt>
      <trkpt lat="43.57114" lon="6.37677">
        <ele>549.7</ele>
        <time>2020-09-16T13:28:44Z</time>
      </trkpt>
      <trkpt lat="43.57114" lon="6.37666">
        <ele>548.8</ele>
        <time>2020-09-16T13:29:27Z</time>
      </trkpt>
      <trkpt lat="43.57113" lon="6.37661">
        <ele>548.2</ele>
        <time>2020-09-16T13:29:36Z</time>
      </trkpt>
      <trkpt lat="43.57111" lon="6.37656">
        <ele>547.6</ele>
        <time>2020-09-16T13:29:42Z</time>
      </trkpt>
      <trkpt lat="43.57112" lon="6.3765">
        <ele>547</ele>
        <time>2020-09-16T13:29:47Z</time>
      </trkpt>
      <trkpt lat="43.57112" lon="6.37649">
        <ele>546.9</ele>
        <time>2020-09-16T13:29:48Z</time>
      </trkpt>
      <trkpt lat="43.57111" lon="6.37639">
        <ele>545.2</ele>
        <time>2020-09-16T13:30:00Z</time>
      </trkpt>
      <trkpt lat="43.5711" lon="6.37633">
        <ele>544.4</ele>
        <time>2020-09-16T13:30:07Z</time>
      </trkpt>
      <trkpt lat="43.5711" lon="6.37628">
        <ele>543.8</ele>
        <time>2020-09-16T13:30:13Z</time>
      </trkpt>
      <trkpt lat="43.57109" lon="6.37622">
        <ele>543.2</ele>
        <time>2020-09-16T13:30:18Z</time>
      </trkpt>
      <trkpt lat="43.57109" lon="6.37617">
        <ele>542.7</ele>
        <time>2020-09-16T13:30:23Z</time>
      </trkpt>
      <trkpt lat="43.57109" lon="6.37611">
        <ele>541.6</ele>
        <time>2020-09-16T13:30:29Z</time>
      </trkpt>
      <trkpt lat="43.57109" lon="6.37605">
        <ele>540.7</ele>
        <time>2020-09-16T13:30:35Z</time>
      </trkpt>
      <trkpt lat="43.57111" lon="6.376">
        <ele>540.1</ele>
        <time>2020-09-16T13:30:40Z</time>
      </trkpt>
      <trkpt lat="43.57113" lon="6.37595">
        <ele>539.6</ele>
        <time>2020-09-16T13:30:44Z</time>
      </trkpt>
      <trkpt lat="43.57115" lon="6.37589">
        <ele>538.4</ele>
        <time>2020-09-16T13:30:54Z</time>
      </trkpt>
      <trkpt lat="43.57115" lon="6.37589">
        <ele>538.2</ele>
        <time>2020-09-16T13:30:55Z</time>
      </trkpt>
      <trkpt lat="43.57108" lon="6.37586">
        <ele>535.3</ele>
        <time>2020-09-16T13:31:12Z</time>
      </trkpt>
      <trkpt lat="43.57104" lon="6.37586">
        <ele>533.7</ele>
        <time>2020-09-16T13:31:20Z</time>
      </trkpt>
      <trkpt lat="43.571" lon="6.37586">
        <ele>533.1</ele>
        <time>2020-09-16T13:31:24Z</time>
      </trkpt>
      <trkpt lat="43.57096" lon="6.37586">
        <ele>532.5</ele>
        <time>2020-09-16T13:31:29Z</time>
      </trkpt>
      <trkpt lat="43.57092" lon="6.37589">
        <ele>531.5</ele>
        <time>2020-09-16T13:31:38Z</time>
      </trkpt>
      <trkpt lat="43.57088" lon="6.37591">
        <ele>530.2</ele>
        <time>2020-09-16T13:31:45Z</time>
      </trkpt>
      <trkpt lat="43.57085" lon="6.37591">
        <ele>529.6</ele>
        <time>2020-09-16T13:31:50Z</time>
      </trkpt>
      <trkpt lat="43.57081" lon="6.37592">
        <ele>528.5</ele>
        <time>2020-09-16T13:32:05Z</time>
      </trkpt>
      <trkpt lat="43.5708" lon="6.37592">
        <ele>528.5</ele>
        <time>2020-09-16T13:32:06Z</time>
      </trkpt>
      <trkpt lat="43.57073" lon="6.37591">
        <ele>528.2</ele>
        <time>2020-09-16T13:32:21Z</time>
      </trkpt>
      <trkpt lat="43.57069" lon="6.37588">
        <ele>526.9</ele>
        <time>2020-09-16T13:32:50Z</time>
      </trkpt>
      <trkpt lat="43.57066" lon="6.37584">
        <ele>526.8</ele>
        <time>2020-09-16T13:33:08Z</time>
      </trkpt>
      <trkpt lat="43.57066" lon="6.37584">
        <ele>526.8</ele>
        <time>2020-09-16T13:33:09Z</time>
      </trkpt>
      <trkpt lat="43.57062" lon="6.37574">
        <ele>526.7</ele>
        <time>2020-09-16T13:33:32Z</time>
      </trkpt>
      <trkpt lat="43.57059" lon="6.37574">
        <ele>526.7</ele>
        <time>2020-09-16T13:33:35Z</time>
      </trkpt>
      <trkpt lat="43.57055" lon="6.37572">
        <ele>526.9</ele>
        <time>2020-09-16T13:33:39Z</time>
      </trkpt>
      <trkpt lat="43.57051" lon="6.37568">
        <ele>527.1</ele>
        <time>2020-09-16T13:33:46Z</time>
      </trkpt>
      <trkpt lat="43.57048" lon="6.37564">
        <ele>527.5</ele>
        <time>2020-09-16T13:33:54Z</time>
      </trkpt>
      <trkpt lat="43.57045" lon="6.3756">
        <ele>528</ele>
        <time>2020-09-16T13:34:04Z</time>
      </trkpt>
      <trkpt lat="43.57047" lon="6.37554">
        <ele>528.8</ele>
        <time>2020-09-16T13:34:19Z</time>
      </trkpt>
      <trkpt lat="43.57047" lon="6.37554">
        <ele>528.8</ele>
        <time>2020-09-16T13:34:20Z</time>
      </trkpt>
      <trkpt lat="43.57055" lon="6.37551">
        <ele>529.5</ele>
        <time>2020-09-16T13:35:19Z</time>
      </trkpt>
      <trkpt lat="43.57051" lon="6.37548">
        <ele>529.7</ele>
        <time>2020-09-16T13:35:35Z</time>
      </trkpt>
      <trkpt lat="43.57051" lon="6.37547">
        <ele>529.7</ele>
        <time>2020-09-16T13:35:36Z</time>
      </trkpt>
      <trkpt lat="43.57043" lon="6.37544">
        <ele>529.6</ele>
        <time>2020-09-16T13:36:17Z</time>
      </trkpt>
      <trkpt lat="43.5704" lon="6.3754">
        <ele>529.7</ele>
        <time>2020-09-16T13:36:26Z</time>
      </trkpt>
      <trkpt lat="43.57037" lon="6.37537">
        <ele>529.8</ele>
        <time>2020-09-16T13:36:36Z</time>
      </trkpt>
      <trkpt lat="43.57036" lon="6.37537">
        <ele>529.9</ele>
        <time>2020-09-16T13:36:37Z</time>
      </trkpt>
      <trkpt lat="43.57032" lon="6.37529">
        <ele>530.2</ele>
        <time>2020-09-16T13:36:49Z</time>
      </trkpt>
      <trkpt lat="43.57032" lon="6.37523">
        <ele>530.4</ele>
        <time>2020-09-16T13:36:54Z</time>
      </trkpt>
      <trkpt lat="43.5703" lon="6.37519">
        <ele>530.6</ele>
        <time>2020-09-16T13:37:00Z</time>
      </trkpt>
      <trkpt lat="43.57028" lon="6.37514">
        <ele>530.7</ele>
        <time>2020-09-16T13:37:05Z</time>
      </trkpt>
      <trkpt lat="43.57025" lon="6.3751">
        <ele>530.8</ele>
        <time>2020-09-16T13:37:11Z</time>
      </trkpt>
      <trkpt lat="43.57023" lon="6.37506">
        <ele>530.9</ele>
        <time>2020-09-16T13:37:17Z</time>
      </trkpt>
      <trkpt lat="43.57022" lon="6.375">
        <ele>531</ele>
        <time>2020-09-16T13:37:24Z</time>
      </trkpt>
      <trkpt lat="43.5702" lon="6.37495">
        <ele>531.5</ele>
        <time>2020-09-16T13:37:30Z</time>
      </trkpt>
      <trkpt lat="43.57021" lon="6.3749">
        <ele>531.7</ele>
        <time>2020-09-16T13:37:34Z</time>
      </trkpt>
      <trkpt lat="43.57021" lon="6.37483">
        <ele>532</ele>
        <time>2020-09-16T13:37:40Z</time>
      </trkpt>
      <trkpt lat="43.5702" lon="6.37482">
        <ele>532.1</ele>
        <time>2020-09-16T13:37:41Z</time>
      </trkpt>
      <trkpt lat="43.5702" lon="6.37473">
        <ele>532.6</ele>
        <time>2020-09-16T13:37:48Z</time>
      </trkpt>
      <trkpt lat="43.57021" lon="6.37467">
        <ele>532.9</ele>
        <time>2020-09-16T13:37:52Z</time>
      </trkpt>
      <trkpt lat="43.57021" lon="6.37461">
        <ele>533.2</ele>
        <time>2020-09-16T13:37:57Z</time>
      </trkpt>
      <trkpt lat="43.57021" lon="6.37456">
        <ele>533.6</ele>
        <time>2020-09-16T13:38:02Z</time>
      </trkpt>
      <trkpt lat="43.57021" lon="6.37451">
        <ele>533.9</ele>
        <time>2020-09-16T13:38:06Z</time>
      </trkpt>
      <trkpt lat="43.57021" lon="6.37445">
        <ele>534.2</ele>
        <time>2020-09-16T13:38:11Z</time>
      </trkpt>
      <trkpt lat="43.5702" lon="6.37439">
        <ele>534.6</ele>
        <time>2020-09-16T13:38:17Z</time>
      </trkpt>
      <trkpt lat="43.57021" lon="6.37433">
        <ele>534.8</ele>
        <time>2020-09-16T13:38:21Z</time>
      </trkpt>
      <trkpt lat="43.5702" lon="6.37428">
        <ele>535</ele>
        <time>2020-09-16T13:38:25Z</time>
      </trkpt>
      <trkpt lat="43.57019" lon="6.37422">
        <ele>535.4</ele>
        <time>2020-09-16T13:38:31Z</time>
      </trkpt>
      <trkpt lat="43.57019" lon="6.37417">
        <ele>535.7</ele>
        <time>2020-09-16T13:38:36Z</time>
      </trkpt>
      <trkpt lat="43.57019" lon="6.37411">
        <ele>535.9</ele>
        <time>2020-09-16T13:38:42Z</time>
      </trkpt>
      <trkpt lat="43.57019" lon="6.37409">
        <ele>536</ele>
        <time>2020-09-16T13:38:43Z</time>
      </trkpt>
      <trkpt lat="43.5702" lon="6.37401">
        <ele>536.5</ele>
        <time>2020-09-16T13:38:52Z</time>
      </trkpt>
      <trkpt lat="43.57022" lon="6.37395">
        <ele>537</ele>
        <time>2020-09-16T13:38:58Z</time>
      </trkpt>
      <trkpt lat="43.57023" lon="6.37389">
        <ele>537.3</ele>
        <time>2020-09-16T13:39:03Z</time>
      </trkpt>
      <trkpt lat="43.57025" lon="6.37384">
        <ele>537.5</ele>
        <time>2020-09-16T13:39:09Z</time>
      </trkpt>
      <trkpt lat="43.57024" lon="6.37378">
        <ele>537.6</ele>
        <time>2020-09-16T13:39:22Z</time>
      </trkpt>
      <trkpt lat="43.57021" lon="6.37374">
        <ele>537.6</ele>
        <time>2020-09-16T13:39:30Z</time>
      </trkpt>
      <trkpt lat="43.5702" lon="6.37368">
        <ele>537.6</ele>
        <time>2020-09-16T13:39:38Z</time>
      </trkpt>
      <trkpt lat="43.57015" lon="6.37367">
        <ele>537.6</ele>
        <time>2020-09-16T13:39:46Z</time>
      </trkpt>
      <trkpt lat="43.57015" lon="6.37368">
        <ele>537.6</ele>
        <time>2020-09-16T13:39:47Z</time>
      </trkpt>
      <trkpt lat="43.57007" lon="6.37371">
        <ele>537.9</ele>
        <time>2020-09-16T13:40:01Z</time>
      </trkpt>
      <trkpt lat="43.57004" lon="6.37375">
        <ele>538.1</ele>
        <time>2020-09-16T13:40:11Z</time>
      </trkpt>
      <trkpt lat="43.57002" lon="6.3738">
        <ele>538.1</ele>
        <time>2020-09-16T13:40:18Z</time>
      </trkpt>
      <trkpt lat="43.56999" lon="6.37384">
        <ele>537.9</ele>
        <time>2020-09-16T13:40:24Z</time>
      </trkpt>
      <trkpt lat="43.56996" lon="6.37388">
        <ele>537.8</ele>
        <time>2020-09-16T13:40:29Z</time>
      </trkpt>
      <trkpt lat="43.56994" lon="6.37393">
        <ele>538</ele>
        <time>2020-09-16T13:40:36Z</time>
      </trkpt>
      <trkpt lat="43.56992" lon="6.37399">
        <ele>538.1</ele>
        <time>2020-09-16T13:40:42Z</time>
      </trkpt>
      <trkpt lat="43.5699" lon="6.37403">
        <ele>538.1</ele>
        <time>2020-09-16T13:40:45Z</time>
      </trkpt>
      <trkpt lat="43.56989" lon="6.37408">
        <ele>538.3</ele>
        <time>2020-09-16T13:40:48Z</time>
      </trkpt>
      <trkpt lat="43.56988" lon="6.3741">
        <ele>538.4</ele>
        <time>2020-09-16T13:40:49Z</time>
      </trkpt>
      <trkpt lat="43.56987" lon="6.37419">
        <ele>538.8</ele>
        <time>2020-09-16T13:40:57Z</time>
      </trkpt>
      <trkpt lat="43.56986" lon="6.37425">
        <ele>539.3</ele>
        <time>2020-09-16T13:41:06Z</time>
      </trkpt>
      <trkpt lat="43.56986" lon="6.37429">
        <ele>539.1</ele>
        <time>2020-09-16T13:41:11Z</time>
      </trkpt>
      <trkpt lat="43.56984" lon="6.37435">
        <ele>539.3</ele>
        <time>2020-09-16T13:41:16Z</time>
      </trkpt>
      <trkpt lat="43.56983" lon="6.3744">
        <ele>539.5</ele>
        <time>2020-09-16T13:41:23Z</time>
      </trkpt>
      <trkpt lat="43.56983" lon="6.37446">
        <ele>539.1</ele>
        <time>2020-09-16T13:41:40Z</time>
      </trkpt>
      <trkpt lat="43.56983" lon="6.37453">
        <ele>539.3</ele>
        <time>2020-09-16T13:41:49Z</time>
      </trkpt>
      <trkpt lat="43.56983" lon="6.37453">
        <ele>539.3</ele>
        <time>2020-09-16T13:41:50Z</time>
      </trkpt>
      <trkpt lat="43.56982" lon="6.37464">
        <ele>539.8</ele>
        <time>2020-09-16T13:42:04Z</time>
      </trkpt>
      <trkpt lat="43.5698" lon="6.37469">
        <ele>539.6</ele>
        <time>2020-09-16T13:42:12Z</time>
      </trkpt>
      <trkpt lat="43.56981" lon="6.37475">
        <ele>539.5</ele>
        <time>2020-09-16T13:42:20Z</time>
      </trkpt>
      <trkpt lat="43.56983" lon="6.37481">
        <ele>539.3</ele>
        <time>2020-09-16T13:42:35Z</time>
      </trkpt>
      <trkpt lat="43.56983" lon="6.37486">
        <ele>539</ele>
        <time>2020-09-16T13:42:53Z</time>
      </trkpt>
      <trkpt lat="43.56983" lon="6.37487">
        <ele>539</ele>
        <time>2020-09-16T13:42:54Z</time>
      </trkpt>
      <trkpt lat="43.56978" lon="6.37493">
        <ele>539.8</ele>
        <time>2020-09-16T13:43:42Z</time>
      </trkpt>
      <trkpt lat="43.56974" lon="6.37495">
        <ele>539.8</ele>
        <time>2020-09-16T13:43:48Z</time>
      </trkpt>
      <trkpt lat="43.56978" lon="6.37493">
        <ele>539</ele>
        <time>2020-09-16T13:44:23Z</time>
      </trkpt>
      <trkpt lat="43.56979" lon="6.37493">
        <ele>539</ele>
        <time>2020-09-16T13:44:24Z</time>
      </trkpt>
      <trkpt lat="43.56984" lon="6.37501">
        <ele>538.2</ele>
        <time>2020-09-16T13:44:56Z</time>
      </trkpt>
      <trkpt lat="43.56985" lon="6.37506">
        <ele>538.5</ele>
        <time>2020-09-16T13:45:07Z</time>
      </trkpt>
      <trkpt lat="43.56984" lon="6.37512">
        <ele>539.2</ele>
        <time>2020-09-16T13:45:18Z</time>
      </trkpt>
      <trkpt lat="43.56982" lon="6.37517">
        <ele>540</ele>
        <time>2020-09-16T13:45:27Z</time>
      </trkpt>
      <trkpt lat="43.56982" lon="6.37518">
        <ele>540.1</ele>
        <time>2020-09-16T13:45:28Z</time>
      </trkpt>
      <trkpt lat="43.56985" lon="6.37528">
        <ele>539.9</ele>
        <time>2020-09-16T13:45:54Z</time>
      </trkpt>
      <trkpt lat="43.56985" lon="6.37533">
        <ele>539.7</ele>
        <time>2020-09-16T13:45:59Z</time>
      </trkpt>
      <trkpt lat="43.56984" lon="6.37538">
        <ele>539.7</ele>
        <time>2020-09-16T13:46:04Z</time>
      </trkpt>
      <trkpt lat="43.56983" lon="6.37543">
        <ele>539.8</ele>
        <time>2020-09-16T13:46:09Z</time>
      </trkpt>
      <trkpt lat="43.56982" lon="6.37548">
        <ele>539.8</ele>
        <time>2020-09-16T13:46:13Z</time>
      </trkpt>
      <trkpt lat="43.56981" lon="6.37554">
        <ele>539.7</ele>
        <time>2020-09-16T13:46:18Z</time>
      </trkpt>
      <trkpt lat="43.56979" lon="6.37559">
        <ele>539.6</ele>
        <time>2020-09-16T13:46:25Z</time>
      </trkpt>
      <trkpt lat="43.56977" lon="6.37565">
        <ele>539.5</ele>
        <time>2020-09-16T13:46:39Z</time>
      </trkpt>
      <trkpt lat="43.56977" lon="6.37565">
        <ele>539.5</ele>
        <time>2020-09-16T13:46:40Z</time>
      </trkpt>
      <trkpt lat="43.56972" lon="6.37574">
        <ele>539.6</ele>
        <time>2020-09-16T13:46:51Z</time>
      </trkpt>
      <trkpt lat="43.56968" lon="6.37577">
        <ele>539.7</ele>
        <time>2020-09-16T13:46:58Z</time>
      </trkpt>
      <trkpt lat="43.56965" lon="6.37581">
        <ele>539.9</ele>
        <time>2020-09-16T13:47:03Z</time>
      </trkpt>
      <trkpt lat="43.56962" lon="6.37583">
        <ele>540.1</ele>
        <time>2020-09-16T13:47:07Z</time>
      </trkpt>
      <trkpt lat="43.56959" lon="6.37586">
        <ele>540.3</ele>
        <time>2020-09-16T13:47:11Z</time>
      </trkpt>
      <trkpt lat="43.56956" lon="6.37589">
        <ele>540.5</ele>
        <time>2020-09-16T13:47:16Z</time>
      </trkpt>
      <trkpt lat="43.56952" lon="6.37592">
        <ele>540.6</ele>
        <time>2020-09-16T13:47:20Z</time>
      </trkpt>
      <trkpt lat="43.56949" lon="6.37595">
        <ele>540.6</ele>
        <time>2020-09-16T13:47:24Z</time>
      </trkpt>
      <trkpt lat="43.56946" lon="6.376">
        <ele>540.5</ele>
        <time>2020-09-16T13:47:28Z</time>
      </trkpt>
      <trkpt lat="43.56943" lon="6.37604">
        <ele>540.5</ele>
        <time>2020-09-16T13:47:33Z</time>
      </trkpt>
      <trkpt lat="43.5694" lon="6.37608">
        <ele>540.4</ele>
        <time>2020-09-16T13:47:37Z</time>
      </trkpt>
      <trkpt lat="43.56937" lon="6.37612">
        <ele>540.3</ele>
        <time>2020-09-16T13:47:42Z</time>
      </trkpt>
      <trkpt lat="43.56936" lon="6.37614">
        <ele>540.3</ele>
        <time>2020-09-16T13:47:43Z</time>
      </trkpt>
      <trkpt lat="43.56932" lon="6.3762">
        <ele>540.2</ele>
        <time>2020-09-16T13:47:50Z</time>
      </trkpt>
      <trkpt lat="43.56929" lon="6.37624">
        <ele>540.2</ele>
        <time>2020-09-16T13:47:54Z</time>
      </trkpt>
      <trkpt lat="43.56925" lon="6.37627">
        <ele>540.4</ele>
        <time>2020-09-16T13:48:05Z</time>
      </trkpt>
      <trkpt lat="43.56923" lon="6.37632">
        <ele>540.2</ele>
        <time>2020-09-16T13:48:12Z</time>
      </trkpt>
      <trkpt lat="43.56919" lon="6.37635">
        <ele>539.9</ele>
        <time>2020-09-16T13:48:21Z</time>
      </trkpt>
      <trkpt lat="43.56916" lon="6.37637">
        <ele>539.8</ele>
        <time>2020-09-16T13:48:27Z</time>
      </trkpt>
      <trkpt lat="43.56913" lon="6.37641">
        <ele>539.5</ele>
        <time>2020-09-16T13:48:32Z</time>
      </trkpt>
      <trkpt lat="43.5691" lon="6.37644">
        <ele>539.3</ele>
        <time>2020-09-16T13:48:37Z</time>
      </trkpt>
      <trkpt lat="43.56906" lon="6.37647">
        <ele>539.3</ele>
        <time>2020-09-16T13:48:41Z</time>
      </trkpt>
      <trkpt lat="43.56903" lon="6.37651">
        <ele>539.3</ele>
        <time>2020-09-16T13:48:45Z</time>
      </trkpt>
      <trkpt lat="43.56902" lon="6.37651">
        <ele>539.3</ele>
        <time>2020-09-16T13:48:46Z</time>
      </trkpt>
      <trkpt lat="43.56898" lon="6.37659">
        <ele>539.3</ele>
        <time>2020-09-16T13:48:55Z</time>
      </trkpt>
      <trkpt lat="43.56896" lon="6.37663">
        <ele>539.3</ele>
        <time>2020-09-16T13:48:59Z</time>
      </trkpt>
      <trkpt lat="43.56893" lon="6.37667">
        <ele>539.3</ele>
        <time>2020-09-16T13:49:04Z</time>
      </trkpt>
      <trkpt lat="43.56891" lon="6.37672">
        <ele>538.8</ele>
        <time>2020-09-16T13:49:09Z</time>
      </trkpt>
      <trkpt lat="43.56888" lon="6.37675">
        <ele>538.7</ele>
        <time>2020-09-16T13:49:13Z</time>
      </trkpt>
      <trkpt lat="43.56885" lon="6.37679">
        <ele>538.7</ele>
        <time>2020-09-16T13:49:17Z</time>
      </trkpt>
      <trkpt lat="43.56884" lon="6.37683">
        <ele>538.7</ele>
        <time>2020-09-16T13:49:21Z</time>
      </trkpt>
      <trkpt lat="43.56883" lon="6.37689">
        <ele>538.8</ele>
        <time>2020-09-16T13:49:26Z</time>
      </trkpt>
      <trkpt lat="43.56882" lon="6.37694">
        <ele>538.8</ele>
        <time>2020-09-16T13:49:31Z</time>
      </trkpt>
      <trkpt lat="43.56881" lon="6.377">
        <ele>538.7</ele>
        <time>2020-09-16T13:49:36Z</time>
      </trkpt>
      <trkpt lat="43.56879" lon="6.37705">
        <ele>538.6</ele>
        <time>2020-09-16T13:49:41Z</time>
      </trkpt>
      <trkpt lat="43.56878" lon="6.3771">
        <ele>538.4</ele>
        <time>2020-09-16T13:49:45Z</time>
      </trkpt>
      <trkpt lat="43.56877" lon="6.37715">
        <ele>538.1</ele>
        <time>2020-09-16T13:49:49Z</time>
      </trkpt>
      <trkpt lat="43.56876" lon="6.37717">
        <ele>538</ele>
        <time>2020-09-16T13:49:50Z</time>
      </trkpt>
      <trkpt lat="43.56873" lon="6.37725">
        <ele>537.6</ele>
        <time>2020-09-16T13:49:59Z</time>
      </trkpt>
      <trkpt lat="43.56871" lon="6.37729">
        <ele>537.5</ele>
        <time>2020-09-16T13:50:03Z</time>
      </trkpt>
      <trkpt lat="43.5687" lon="6.37734">
        <ele>537.2</ele>
        <time>2020-09-16T13:50:07Z</time>
      </trkpt>
      <trkpt lat="43.56868" lon="6.37739">
        <ele>536.7</ele>
        <time>2020-09-16T13:50:14Z</time>
      </trkpt>
      <trkpt lat="43.56865" lon="6.37744">
        <ele>536.5</ele>
        <time>2020-09-16T13:50:20Z</time>
      </trkpt>
      <trkpt lat="43.56863" lon="6.37748">
        <ele>536.4</ele>
        <time>2020-09-16T13:50:24Z</time>
      </trkpt>
      <trkpt lat="43.56861" lon="6.37753">
        <ele>536.3</ele>
        <time>2020-09-16T13:50:30Z</time>
      </trkpt>
      <trkpt lat="43.56859" lon="6.37757">
        <ele>536.2</ele>
        <time>2020-09-16T13:50:34Z</time>
      </trkpt>
      <trkpt lat="43.56858" lon="6.37763">
        <ele>535.9</ele>
        <time>2020-09-16T13:50:39Z</time>
      </trkpt>
      <trkpt lat="43.56857" lon="6.37769">
        <ele>535.4</ele>
        <time>2020-09-16T13:50:45Z</time>
      </trkpt>
      <trkpt lat="43.56855" lon="6.37774">
        <ele>535.1</ele>
        <time>2020-09-16T13:50:49Z</time>
      </trkpt>
      <trkpt lat="43.56854" lon="6.37779">
        <ele>534.9</ele>
        <time>2020-09-16T13:50:54Z</time>
      </trkpt>
      <trkpt lat="43.56854" lon="6.3778">
        <ele>534.9</ele>
        <time>2020-09-16T13:50:55Z</time>
      </trkpt>
      <trkpt lat="43.56853" lon="6.3779">
        <ele>534.4</ele>
        <time>2020-09-16T13:51:02Z</time>
      </trkpt>
      <trkpt lat="43.56853" lon="6.37795">
        <ele>534.3</ele>
        <time>2020-09-16T13:51:06Z</time>
      </trkpt>
      <trkpt lat="43.56852" lon="6.37801">
        <ele>533.8</ele>
        <time>2020-09-16T13:51:11Z</time>
      </trkpt>
      <trkpt lat="43.5685" lon="6.37805">
        <ele>533.5</ele>
        <time>2020-09-16T13:51:15Z</time>
      </trkpt>
      <trkpt lat="43.56849" lon="6.3781">
        <ele>533.2</ele>
        <time>2020-09-16T13:51:19Z</time>
      </trkpt>
      <trkpt lat="43.56848" lon="6.37816">
        <ele>532.9</ele>
        <time>2020-09-16T13:51:25Z</time>
      </trkpt>
      <trkpt lat="43.56846" lon="6.37822">
        <ele>532.7</ele>
        <time>2020-09-16T13:51:32Z</time>
      </trkpt>
      <trkpt lat="43.56846" lon="6.37827">
        <ele>532.4</ele>
        <time>2020-09-16T13:51:38Z</time>
      </trkpt>
      <trkpt lat="43.56844" lon="6.37833">
        <ele>531.7</ele>
        <time>2020-09-16T13:51:49Z</time>
      </trkpt>
      <trkpt lat="43.56843" lon="6.37838">
        <ele>531.7</ele>
        <time>2020-09-16T13:51:58Z</time>
      </trkpt>
      <trkpt lat="43.56843" lon="6.37839">
        <ele>531.7</ele>
        <time>2020-09-16T13:51:59Z</time>
      </trkpt>
      <trkpt lat="43.56835" lon="6.37842">
        <ele>532.5</ele>
        <time>2020-09-16T13:52:15Z</time>
      </trkpt>
      <trkpt lat="43.56831" lon="6.37845">
        <ele>532.6</ele>
        <time>2020-09-16T13:52:22Z</time>
      </trkpt>
      <trkpt lat="43.56828" lon="6.37847">
        <ele>532.7</ele>
        <time>2020-09-16T13:52:30Z</time>
      </trkpt>
      <trkpt lat="43.56824" lon="6.3785">
        <ele>532.7</ele>
        <time>2020-09-16T13:52:37Z</time>
      </trkpt>
      <trkpt lat="43.5682" lon="6.37852">
        <ele>532.6</ele>
        <time>2020-09-16T13:52:43Z</time>
      </trkpt>
      <trkpt lat="43.56819" lon="6.37858">
        <ele>532.4</ele>
        <time>2020-09-16T13:52:50Z</time>
      </trkpt>
      <trkpt lat="43.56819" lon="6.37863">
        <ele>531.7</ele>
        <time>2020-09-16T13:53:01Z</time>
      </trkpt>
      <trkpt lat="43.56818" lon="6.37864">
        <ele>531.7</ele>
        <time>2020-09-16T13:53:02Z</time>
      </trkpt>
      <trkpt lat="43.56815" lon="6.37873">
        <ele>531.4</ele>
        <time>2020-09-16T13:53:17Z</time>
      </trkpt>
      <trkpt lat="43.56812" lon="6.37876">
        <ele>531.4</ele>
        <time>2020-09-16T13:53:22Z</time>
      </trkpt>
      <trkpt lat="43.56808" lon="6.37878">
        <ele>531.5</ele>
        <time>2020-09-16T13:53:27Z</time>
      </trkpt>
      <trkpt lat="43.56806" lon="6.37884">
        <ele>531.5</ele>
        <time>2020-09-16T13:53:34Z</time>
      </trkpt>
      <trkpt lat="43.56805" lon="6.37889">
        <ele>531.6</ele>
        <time>2020-09-16T13:53:39Z</time>
      </trkpt>
      <trkpt lat="43.56802" lon="6.37893">
        <ele>531.6</ele>
        <time>2020-09-16T13:53:43Z</time>
      </trkpt>
      <trkpt lat="43.56799" lon="6.37896">
        <ele>531.6</ele>
        <time>2020-09-16T13:53:47Z</time>
      </trkpt>
      <trkpt lat="43.56797" lon="6.37901">
        <ele>531.5</ele>
        <time>2020-09-16T13:53:51Z</time>
      </trkpt>
      <trkpt lat="43.56794" lon="6.37905">
        <ele>531.4</ele>
        <time>2020-09-16T13:53:55Z</time>
      </trkpt>
      <trkpt lat="43.56792" lon="6.3791">
        <ele>531.3</ele>
        <time>2020-09-16T13:54:00Z</time>
      </trkpt>
      <trkpt lat="43.5679" lon="6.37914">
        <ele>531.3</ele>
        <time>2020-09-16T13:54:04Z</time>
      </trkpt>
      <trkpt lat="43.5679" lon="6.37915">
        <ele>531.3</ele>
        <time>2020-09-16T13:54:05Z</time>
      </trkpt>
      <trkpt lat="43.56787" lon="6.37924">
        <ele>531.6</ele>
        <time>2020-09-16T13:54:15Z</time>
      </trkpt>
      <trkpt lat="43.56784" lon="6.37928">
        <ele>531.8</ele>
        <time>2020-09-16T13:54:19Z</time>
      </trkpt>
      <trkpt lat="43.56784" lon="6.37933">
        <ele>532.1</ele>
        <time>2020-09-16T13:54:23Z</time>
      </trkpt>
      <trkpt lat="43.56782" lon="6.37939">
        <ele>531.7</ele>
        <time>2020-09-16T13:54:28Z</time>
      </trkpt>
      <trkpt lat="43.56782" lon="6.37944">
        <ele>531.6</ele>
        <time>2020-09-16T13:54:32Z</time>
      </trkpt>
      <trkpt lat="43.56781" lon="6.3795">
        <ele>531.5</ele>
        <time>2020-09-16T13:54:37Z</time>
      </trkpt>
      <trkpt lat="43.56781" lon="6.37956">
        <ele>531.5</ele>
        <time>2020-09-16T13:54:45Z</time>
      </trkpt>
      <trkpt lat="43.56779" lon="6.37961">
        <ele>531.1</ele>
        <time>2020-09-16T13:54:51Z</time>
      </trkpt>
      <trkpt lat="43.56776" lon="6.37966">
        <ele>530.5</ele>
        <time>2020-09-16T13:54:59Z</time>
      </trkpt>
      <trkpt lat="43.56774" lon="6.37971">
        <ele>530.2</ele>
        <time>2020-09-16T13:55:04Z</time>
      </trkpt>
      <trkpt lat="43.56772" lon="6.37975">
        <ele>529.9</ele>
        <time>2020-09-16T13:55:08Z</time>
      </trkpt>
      <trkpt lat="43.56771" lon="6.37977">
        <ele>529.8</ele>
        <time>2020-09-16T13:55:09Z</time>
      </trkpt>
      <trkpt lat="43.56769" lon="6.37985">
        <ele>529.4</ele>
        <time>2020-09-16T13:55:14Z</time>
      </trkpt>
      <trkpt lat="43.56767" lon="6.37989">
        <ele>529.3</ele>
        <time>2020-09-16T13:55:17Z</time>
      </trkpt>
      <trkpt lat="43.56765" lon="6.37994">
        <ele>529.1</ele>
        <time>2020-09-16T13:55:21Z</time>
      </trkpt>
      <trkpt lat="43.56762" lon="6.37999">
        <ele>529</ele>
        <time>2020-09-16T13:55:26Z</time>
      </trkpt>
      <trkpt lat="43.56759" lon="6.38002">
        <ele>528.9</ele>
        <time>2020-09-16T13:55:30Z</time>
      </trkpt>
      <trkpt lat="43.56757" lon="6.38007">
        <ele>528.7</ele>
        <time>2020-09-16T13:55:35Z</time>
      </trkpt>
      <trkpt lat="43.56755" lon="6.38011">
        <ele>528.5</ele>
        <time>2020-09-16T13:55:38Z</time>
      </trkpt>
      <trkpt lat="43.56753" lon="6.38015">
        <ele>528.3</ele>
        <time>2020-09-16T13:55:41Z</time>
      </trkpt>
      <trkpt lat="43.5675" lon="6.3802">
        <ele>528.3</ele>
        <time>2020-09-16T13:55:44Z</time>
      </trkpt>
      <trkpt lat="43.56749" lon="6.38026">
        <ele>528.2</ele>
        <time>2020-09-16T13:55:48Z</time>
      </trkpt>
      <trkpt lat="43.56747" lon="6.38031">
        <ele>528.2</ele>
        <time>2020-09-16T13:55:52Z</time>
      </trkpt>
      <trkpt lat="43.56745" lon="6.38034">
        <ele>528.2</ele>
        <time>2020-09-16T13:55:55Z</time>
      </trkpt>
      <trkpt lat="43.56741" lon="6.38038">
        <ele>528.1</ele>
        <time>2020-09-16T13:55:59Z</time>
      </trkpt>
      <trkpt lat="43.56738" lon="6.38042">
        <ele>528.2</ele>
        <time>2020-09-16T13:56:04Z</time>
      </trkpt>
      <trkpt lat="43.56734" lon="6.38046">
        <ele>528.3</ele>
        <time>2020-09-16T13:56:08Z</time>
      </trkpt>
      <trkpt lat="43.56731" lon="6.38048">
        <ele>528.3</ele>
        <time>2020-09-16T13:56:12Z</time>
      </trkpt>
      <trkpt lat="43.5673" lon="6.38049">
        <ele>528.3</ele>
        <time>2020-09-16T13:56:13Z</time>
      </trkpt>
      <trkpt lat="43.56724" lon="6.38053">
        <ele>528.4</ele>
        <time>2020-09-16T13:56:19Z</time>
      </trkpt>
      <trkpt lat="43.5672" lon="6.38056">
        <ele>528.4</ele>
        <time>2020-09-16T13:56:23Z</time>
      </trkpt>
      <trkpt lat="43.56717" lon="6.38058">
        <ele>528.3</ele>
        <time>2020-09-16T13:56:27Z</time>
      </trkpt>
      <trkpt lat="43.56713" lon="6.38061">
        <ele>528.5</ele>
        <time>2020-09-16T13:56:32Z</time>
      </trkpt>
      <trkpt lat="43.56709" lon="6.38063">
        <ele>528.3</ele>
        <time>2020-09-16T13:56:36Z</time>
      </trkpt>
      <trkpt lat="43.56705" lon="6.38064">
        <ele>528.2</ele>
        <time>2020-09-16T13:56:41Z</time>
      </trkpt>
      <trkpt lat="43.56702" lon="6.38064">
        <ele>528.2</ele>
        <time>2020-09-16T13:56:45Z</time>
      </trkpt>
      <trkpt lat="43.56698" lon="6.38064">
        <ele>527.9</ele>
        <time>2020-09-16T13:56:48Z</time>
      </trkpt>
      <trkpt lat="43.56693" lon="6.38064">
        <ele>527.8</ele>
        <time>2020-09-16T13:56:51Z</time>
      </trkpt>
      <trkpt lat="43.5669" lon="6.38064">
        <ele>527.8</ele>
        <time>2020-09-16T13:56:53Z</time>
      </trkpt>
      <trkpt lat="43.56686" lon="6.38065">
        <ele>527.7</ele>
        <time>2020-09-16T13:56:56Z</time>
      </trkpt>
      <trkpt lat="43.56682" lon="6.38067">
        <ele>527.5</ele>
        <time>2020-09-16T13:57:01Z</time>
      </trkpt>
      <trkpt lat="43.56678" lon="6.3807">
        <ele>527.5</ele>
        <time>2020-09-16T13:57:04Z</time>
      </trkpt>
      <trkpt lat="43.56675" lon="6.38073">
        <ele>527.3</ele>
        <time>2020-09-16T13:57:07Z</time>
      </trkpt>
      <trkpt lat="43.56672" lon="6.38076">
        <ele>527.1</ele>
        <time>2020-09-16T13:57:10Z</time>
      </trkpt>
      <trkpt lat="43.5667" lon="6.38079">
        <ele>526.9</ele>
        <time>2020-09-16T13:57:13Z</time>
      </trkpt>
      <trkpt lat="43.56669" lon="6.3808">
        <ele>526.9</ele>
        <time>2020-09-16T13:57:14Z</time>
      </trkpt>
      <trkpt lat="43.56663" lon="6.38083">
        <ele>526.7</ele>
        <time>2020-09-16T13:57:19Z</time>
      </trkpt>
      <trkpt lat="43.56659" lon="6.38085">
        <ele>526.5</ele>
        <time>2020-09-16T13:57:22Z</time>
      </trkpt>
      <trkpt lat="43.56656" lon="6.38088">
        <ele>526.3</ele>
        <time>2020-09-16T13:57:27Z</time>
      </trkpt>
      <trkpt lat="43.56653" lon="6.38091">
        <ele>526.2</ele>
        <time>2020-09-16T13:57:31Z</time>
      </trkpt>
      <trkpt lat="43.56649" lon="6.38094">
        <ele>525.9</ele>
        <time>2020-09-16T13:57:35Z</time>
      </trkpt>
      <trkpt lat="43.56646" lon="6.38097">
        <ele>525.8</ele>
        <time>2020-09-16T13:57:40Z</time>
      </trkpt>
      <trkpt lat="43.56643" lon="6.381">
        <ele>525.6</ele>
        <time>2020-09-16T13:57:44Z</time>
      </trkpt>
      <trkpt lat="43.56639" lon="6.38103">
        <ele>525.4</ele>
        <time>2020-09-16T13:57:48Z</time>
      </trkpt>
      <trkpt lat="43.56637" lon="6.38106">
        <ele>525.2</ele>
        <time>2020-09-16T13:57:51Z</time>
      </trkpt>
      <trkpt lat="43.56635" lon="6.38111">
        <ele>525.1</ele>
        <time>2020-09-16T13:57:54Z</time>
      </trkpt>
      <trkpt lat="43.56632" lon="6.38115">
        <ele>524.8</ele>
        <time>2020-09-16T13:57:57Z</time>
      </trkpt>
      <trkpt lat="43.5663" lon="6.38119">
        <ele>524.9</ele>
        <time>2020-09-16T13:58:00Z</time>
      </trkpt>
      <trkpt lat="43.56627" lon="6.38122">
        <ele>524.9</ele>
        <time>2020-09-16T13:58:03Z</time>
      </trkpt>
      <trkpt lat="43.56624" lon="6.38125">
        <ele>524.8</ele>
        <time>2020-09-16T13:58:07Z</time>
      </trkpt>
      <trkpt lat="43.56621" lon="6.38128">
        <ele>524.8</ele>
        <time>2020-09-16T13:58:12Z</time>
      </trkpt>
      <trkpt lat="43.56617" lon="6.38129">
        <ele>525</ele>
        <time>2020-09-16T13:58:18Z</time>
      </trkpt>
      <trkpt lat="43.56616" lon="6.38129">
        <ele>525</ele>
        <time>2020-09-16T13:58:19Z</time>
      </trkpt>
      <trkpt lat="43.5661" lon="6.38133">
        <ele>525.1</ele>
        <time>2020-09-16T13:58:27Z</time>
      </trkpt>
      <trkpt lat="43.56606" lon="6.38135">
        <ele>525.1</ele>
        <time>2020-09-16T13:58:30Z</time>
      </trkpt>
      <trkpt lat="43.56603" lon="6.38136">
        <ele>524.8</ele>
        <time>2020-09-16T13:58:33Z</time>
      </trkpt>
      <trkpt lat="43.566" lon="6.3814">
        <ele>524.6</ele>
        <time>2020-09-16T13:58:36Z</time>
      </trkpt>
      <trkpt lat="43.56597" lon="6.38143">
        <ele>524.5</ele>
        <time>2020-09-16T13:58:39Z</time>
      </trkpt>
      <trkpt lat="43.56594" lon="6.38145">
        <ele>524.4</ele>
        <time>2020-09-16T13:58:41Z</time>
      </trkpt>
      <trkpt lat="43.56591" lon="6.38148">
        <ele>524.2</ele>
        <time>2020-09-16T13:58:44Z</time>
      </trkpt>
      <trkpt lat="43.56588" lon="6.3815">
        <ele>524.1</ele>
        <time>2020-09-16T13:58:47Z</time>
      </trkpt>
      <trkpt lat="43.56584" lon="6.38152">
        <ele>524</ele>
        <time>2020-09-16T13:58:50Z</time>
      </trkpt>
      <trkpt lat="43.56581" lon="6.38155">
        <ele>523.7</ele>
        <time>2020-09-16T13:58:54Z</time>
      </trkpt>
      <trkpt lat="43.56577" lon="6.38156">
        <ele>523.3</ele>
        <time>2020-09-16T13:58:57Z</time>
      </trkpt>
      <trkpt lat="43.56574" lon="6.38159">
        <ele>523</ele>
        <time>2020-09-16T13:59:00Z</time>
      </trkpt>
      <trkpt lat="43.56571" lon="6.38163">
        <ele>523</ele>
        <time>2020-09-16T13:59:03Z</time>
      </trkpt>
      <trkpt lat="43.56568" lon="6.38166">
        <ele>522.9</ele>
        <time>2020-09-16T13:59:06Z</time>
      </trkpt>
      <trkpt lat="43.56565" lon="6.38169">
        <ele>522.4</ele>
        <time>2020-09-16T13:59:10Z</time>
      </trkpt>
      <trkpt lat="43.56562" lon="6.38173">
        <ele>522</ele>
        <time>2020-09-16T13:59:14Z</time>
      </trkpt>
      <trkpt lat="43.56558" lon="6.38177">
        <ele>521.7</ele>
        <time>2020-09-16T13:59:18Z</time>
      </trkpt>
      <trkpt lat="43.56556" lon="6.38181">
        <ele>521.6</ele>
        <time>2020-09-16T13:59:22Z</time>
      </trkpt>
      <trkpt lat="43.56555" lon="6.38182">
        <ele>521.4</ele>
        <time>2020-09-16T13:59:23Z</time>
      </trkpt>
      <trkpt lat="43.56553" lon="6.38191">
        <ele>520.9</ele>
        <time>2020-09-16T13:59:30Z</time>
      </trkpt>
      <trkpt lat="43.56551" lon="6.38197">
        <ele>520.7</ele>
        <time>2020-09-16T13:59:36Z</time>
      </trkpt>
      <trkpt lat="43.5655" lon="6.38202">
        <ele>520.6</ele>
        <time>2020-09-16T13:59:42Z</time>
      </trkpt>
      <trkpt lat="43.5655" lon="6.38208">
        <ele>520.5</ele>
        <time>2020-09-16T13:59:46Z</time>
      </trkpt>
      <trkpt lat="43.5655" lon="6.38214">
        <ele>520.3</ele>
        <time>2020-09-16T13:59:51Z</time>
      </trkpt>
      <trkpt lat="43.5655" lon="6.3822">
        <ele>520.1</ele>
        <time>2020-09-16T13:59:56Z</time>
      </trkpt>
      <trkpt lat="43.5655" lon="6.38226">
        <ele>519.8</ele>
        <time>2020-09-16T14:00:01Z</time>
      </trkpt>
      <trkpt lat="43.56549" lon="6.38231">
        <ele>519.4</ele>
        <time>2020-09-16T14:00:06Z</time>
      </trkpt>
      <trkpt lat="43.56551" lon="6.38237">
        <ele>519.2</ele>
        <time>2020-09-16T14:00:12Z</time>
      </trkpt>
      <trkpt lat="43.56552" lon="6.38242">
        <ele>518.9</ele>
        <time>2020-09-16T14:00:19Z</time>
      </trkpt>
      <trkpt lat="43.56554" lon="6.38247">
        <ele>518.9</ele>
        <time>2020-09-16T14:00:24Z</time>
      </trkpt>
      <trkpt lat="43.56554" lon="6.3825">
        <ele>518.9</ele>
        <time>2020-09-16T14:00:25Z</time>
      </trkpt>
      <trkpt lat="43.56555" lon="6.38258">
        <ele>518.7</ele>
        <time>2020-09-16T14:00:29Z</time>
      </trkpt>
      <trkpt lat="43.56556" lon="6.38263">
        <ele>518.4</ele>
        <time>2020-09-16T14:00:32Z</time>
      </trkpt>
      <trkpt lat="43.56557" lon="6.38268">
        <ele>518.1</ele>
        <time>2020-09-16T14:00:36Z</time>
      </trkpt>
      <trkpt lat="43.56558" lon="6.38274">
        <ele>517.8</ele>
        <time>2020-09-16T14:00:42Z</time>
      </trkpt>
      <trkpt lat="43.56557" lon="6.3828">
        <ele>517.6</ele>
        <time>2020-09-16T14:00:47Z</time>
      </trkpt>
      <trkpt lat="43.56556" lon="6.38285">
        <ele>517.3</ele>
        <time>2020-09-16T14:00:51Z</time>
      </trkpt>
      <trkpt lat="43.56555" lon="6.3829">
        <ele>517.1</ele>
        <time>2020-09-16T14:00:55Z</time>
      </trkpt>
      <trkpt lat="43.56555" lon="6.38296">
        <ele>517</ele>
        <time>2020-09-16T14:00:59Z</time>
      </trkpt>
      <trkpt lat="43.56556" lon="6.38302">
        <ele>516.8</ele>
        <time>2020-09-16T14:01:03Z</time>
      </trkpt>
      <trkpt lat="43.56556" lon="6.38308">
        <ele>516.4</ele>
        <time>2020-09-16T14:01:07Z</time>
      </trkpt>
      <trkpt lat="43.56555" lon="6.38313">
        <ele>516.2</ele>
        <time>2020-09-16T14:01:10Z</time>
      </trkpt>
      <trkpt lat="43.56555" lon="6.38317">
        <ele>516</ele>
        <time>2020-09-16T14:01:13Z</time>
      </trkpt>
      <trkpt lat="43.56554" lon="6.38321">
        <ele>515.9</ele>
        <time>2020-09-16T14:01:15Z</time>
      </trkpt>
      <trkpt lat="43.56554" lon="6.38327">
        <ele>515.6</ele>
        <time>2020-09-16T14:01:18Z</time>
      </trkpt>
      <trkpt lat="43.56555" lon="6.38332">
        <ele>515</ele>
        <time>2020-09-16T14:01:22Z</time>
      </trkpt>
      <trkpt lat="43.56555" lon="6.38338">
        <ele>514.6</ele>
        <time>2020-09-16T14:01:26Z</time>
      </trkpt>
      <trkpt lat="43.56555" lon="6.38339">
        <ele>514.5</ele>
        <time>2020-09-16T14:01:27Z</time>
      </trkpt>
      <trkpt lat="43.56555" lon="6.38349">
        <ele>513.4</ele>
        <time>2020-09-16T14:01:50Z</time>
      </trkpt>
      <trkpt lat="43.56552" lon="6.38353">
        <ele>513.2</ele>
        <time>2020-09-16T14:01:58Z</time>
      </trkpt>
      <trkpt lat="43.5655" lon="6.38358">
        <ele>512.9</ele>
        <time>2020-09-16T14:02:04Z</time>
      </trkpt>
      <trkpt lat="43.56548" lon="6.38363">
        <ele>512.7</ele>
        <time>2020-09-16T14:02:08Z</time>
      </trkpt>
      <trkpt lat="43.56547" lon="6.38368">
        <ele>512.4</ele>
        <time>2020-09-16T14:02:12Z</time>
      </trkpt>
      <trkpt lat="43.56546" lon="6.38373">
        <ele>512.4</ele>
        <time>2020-09-16T14:02:15Z</time>
      </trkpt>
      <trkpt lat="43.56546" lon="6.38378">
        <ele>512.4</ele>
        <time>2020-09-16T14:02:19Z</time>
      </trkpt>
      <trkpt lat="43.56545" lon="6.38384">
        <ele>512.1</ele>
        <time>2020-09-16T14:02:23Z</time>
      </trkpt>
      <trkpt lat="43.56545" lon="6.38389">
        <ele>512</ele>
        <time>2020-09-16T14:02:27Z</time>
      </trkpt>
      <trkpt lat="43.56545" lon="6.38391">
        <ele>511.9</ele>
        <time>2020-09-16T14:02:28Z</time>
      </trkpt>
      <trkpt lat="43.56544" lon="6.384">
        <ele>511.5</ele>
        <time>2020-09-16T14:02:34Z</time>
      </trkpt>
      <trkpt lat="43.56543" lon="6.38405">
        <ele>511.2</ele>
        <time>2020-09-16T14:02:37Z</time>
      </trkpt>
      <trkpt lat="43.56542" lon="6.3841">
        <ele>511</ele>
        <time>2020-09-16T14:02:40Z</time>
      </trkpt>
      <trkpt lat="43.56541" lon="6.38415">
        <ele>510.9</ele>
        <time>2020-09-16T14:02:43Z</time>
      </trkpt>
      <trkpt lat="43.5654" lon="6.3842">
        <ele>510.4</ele>
        <time>2020-09-16T14:02:46Z</time>
      </trkpt>
      <trkpt lat="43.56539" lon="6.38425">
        <ele>509.9</ele>
        <time>2020-09-16T14:02:50Z</time>
      </trkpt>
      <trkpt lat="43.56538" lon="6.38431">
        <ele>509.5</ele>
        <time>2020-09-16T14:02:54Z</time>
      </trkpt>
      <trkpt lat="43.56537" lon="6.38436">
        <ele>509</ele>
        <time>2020-09-16T14:02:58Z</time>
      </trkpt>
      <trkpt lat="43.56535" lon="6.3844">
        <ele>508.7</ele>
        <time>2020-09-16T14:03:01Z</time>
      </trkpt>
      <trkpt lat="43.56534" lon="6.38446">
        <ele>508.5</ele>
        <time>2020-09-16T14:03:04Z</time>
      </trkpt>
      <trkpt lat="43.56534" lon="6.3845">
        <ele>508.4</ele>
        <time>2020-09-16T14:03:06Z</time>
      </trkpt>
      <trkpt lat="43.56533" lon="6.38456">
        <ele>508.1</ele>
        <time>2020-09-16T14:03:09Z</time>
      </trkpt>
      <trkpt lat="43.56532" lon="6.38461">
        <ele>507.9</ele>
        <time>2020-09-16T14:03:13Z</time>
      </trkpt>
      <trkpt lat="43.56531" lon="6.38467">
        <ele>507.8</ele>
        <time>2020-09-16T14:03:16Z</time>
      </trkpt>
      <trkpt lat="43.56529" lon="6.38472">
        <ele>507.6</ele>
        <time>2020-09-16T14:03:21Z</time>
      </trkpt>
      <trkpt lat="43.56528" lon="6.38477">
        <ele>507.5</ele>
        <time>2020-09-16T14:03:26Z</time>
      </trkpt>
      <trkpt lat="43.56527" lon="6.38483">
        <ele>507.2</ele>
        <time>2020-09-16T14:03:55Z</time>
      </trkpt>
      <trkpt lat="43.56528" lon="6.38484">
        <ele>507.2</ele>
        <time>2020-09-16T14:03:56Z</time>
      </trkpt>
      <trkpt lat="43.56525" lon="6.38489">
        <ele>507.1</ele>
        <time>2020-09-16T14:04:31Z</time>
      </trkpt>
      <trkpt lat="43.56522" lon="6.3849">
        <ele>506.7</ele>
        <time>2020-09-16T14:04:35Z</time>
      </trkpt>
      <trkpt lat="43.56517" lon="6.3849">
        <ele>506.4</ele>
        <time>2020-09-16T14:04:41Z</time>
      </trkpt>
      <trkpt lat="43.56513" lon="6.3849">
        <ele>506.2</ele>
        <time>2020-09-16T14:04:47Z</time>
      </trkpt>
      <trkpt lat="43.5651" lon="6.38487">
        <ele>505.4</ele>
        <time>2020-09-16T14:04:59Z</time>
      </trkpt>
      <trkpt lat="43.56509" lon="6.38487">
        <ele>505.3</ele>
        <time>2020-09-16T14:05:00Z</time>
      </trkpt>
      <trkpt lat="43.56502" lon="6.38483">
        <ele>504.1</ele>
        <time>2020-09-16T14:05:10Z</time>
      </trkpt>
      <trkpt lat="43.56497" lon="6.38481">
        <ele>503.1</ele>
        <time>2020-09-16T14:05:16Z</time>
      </trkpt>
      <trkpt lat="43.56493" lon="6.38479">
        <ele>501.3</ele>
        <time>2020-09-16T14:05:25Z</time>
      </trkpt>
      <trkpt lat="43.5649" lon="6.3848">
        <ele>500.3</ele>
        <time>2020-09-16T14:05:31Z</time>
      </trkpt>
      <trkpt lat="43.56485" lon="6.3848">
        <ele>499.7</ele>
        <time>2020-09-16T14:05:35Z</time>
      </trkpt>
      <trkpt lat="43.56481" lon="6.38479">
        <ele>499.1</ele>
        <time>2020-09-16T14:05:39Z</time>
      </trkpt>
      <trkpt lat="43.56477" lon="6.38479">
        <ele>497.8</ele>
        <time>2020-09-16T14:05:45Z</time>
      </trkpt>
      <trkpt lat="43.56474" lon="6.38478">
        <ele>496.5</ele>
        <time>2020-09-16T14:05:51Z</time>
      </trkpt>
      <trkpt lat="43.56469" lon="6.38477">
        <ele>495</ele>
        <time>2020-09-16T14:05:57Z</time>
      </trkpt>
      <trkpt lat="43.56466" lon="6.38475">
        <ele>494.5</ele>
        <time>2020-09-16T14:06:00Z</time>
      </trkpt>
      <trkpt lat="43.56465" lon="6.38474">
        <ele>494.2</ele>
        <time>2020-09-16T14:06:01Z</time>
      </trkpt>
      <trkpt lat="43.56459" lon="6.38471">
        <ele>493.1</ele>
        <time>2020-09-16T14:06:07Z</time>
      </trkpt>
      <trkpt lat="43.56455" lon="6.38469">
        <ele>491.7</ele>
        <time>2020-09-16T14:06:15Z</time>
      </trkpt>
      <trkpt lat="43.5645" lon="6.3847">
        <ele>490.2</ele>
        <time>2020-09-16T14:06:24Z</time>
      </trkpt>
      <trkpt lat="43.56447" lon="6.38467">
        <ele>488.6</ele>
        <time>2020-09-16T14:06:33Z</time>
      </trkpt>
      <trkpt lat="43.56443" lon="6.38465">
        <ele>486.9</ele>
        <time>2020-09-16T14:06:43Z</time>
      </trkpt>
      <trkpt lat="43.56438" lon="6.38463">
        <ele>484.3</ele>
        <time>2020-09-16T14:07:02Z</time>
      </trkpt>
      <trkpt lat="43.56438" lon="6.38463">
        <ele>484.2</ele>
        <time>2020-09-16T14:07:03Z</time>
      </trkpt>
      <trkpt lat="43.5643" lon="6.38461">
        <ele>482.6</ele>
        <time>2020-09-16T14:07:17Z</time>
      </trkpt>
      <trkpt lat="43.56426" lon="6.3846">
        <ele>481.9</ele>
        <time>2020-09-16T14:07:24Z</time>
      </trkpt>
      <trkpt lat="43.56422" lon="6.38461">
        <ele>481.6</ele>
        <time>2020-09-16T14:07:28Z</time>
      </trkpt>
      <trkpt lat="43.56418" lon="6.3846">
        <ele>481.1</ele>
        <time>2020-09-16T14:07:32Z</time>
      </trkpt>
      <trkpt lat="43.56414" lon="6.38461">
        <ele>480.4</ele>
        <time>2020-09-16T14:07:37Z</time>
      </trkpt>
      <trkpt lat="43.5641" lon="6.38462">
        <ele>479.4</ele>
        <time>2020-09-16T14:07:44Z</time>
      </trkpt>
      <trkpt lat="43.56405" lon="6.38462">
        <ele>478.5</ele>
        <time>2020-09-16T14:07:50Z</time>
      </trkpt>
      <trkpt lat="43.56402" lon="6.38463">
        <ele>478</ele>
        <time>2020-09-16T14:07:53Z</time>
      </trkpt>
      <trkpt lat="43.56397" lon="6.38462">
        <ele>476.8</ele>
        <time>2020-09-16T14:08:00Z</time>
      </trkpt>
      <trkpt lat="43.56393" lon="6.38462">
        <ele>475.9</ele>
        <time>2020-09-16T14:08:06Z</time>
      </trkpt>
      <trkpt lat="43.56392" lon="6.38462">
        <ele>475.7</ele>
        <time>2020-09-16T14:08:07Z</time>
      </trkpt>
      <trkpt lat="43.56385" lon="6.38461">
        <ele>474.9</ele>
        <time>2020-09-16T14:08:14Z</time>
      </trkpt>
      <trkpt lat="43.56381" lon="6.38459">
        <ele>474.3</ele>
        <time>2020-09-16T14:08:19Z</time>
      </trkpt>
      <trkpt lat="43.56377" lon="6.38458">
        <ele>473.1</ele>
        <time>2020-09-16T14:08:27Z</time>
      </trkpt>
      <trkpt lat="43.56373" lon="6.38457">
        <ele>472.4</ele>
        <time>2020-09-16T14:08:31Z</time>
      </trkpt>
      <trkpt lat="43.56369" lon="6.38456">
        <ele>471.8</ele>
        <time>2020-09-16T14:08:35Z</time>
      </trkpt>
      <trkpt lat="43.56366" lon="6.38452">
        <ele>470.6</ele>
        <time>2020-09-16T14:08:43Z</time>
      </trkpt>
      <trkpt lat="43.56363" lon="6.3845">
        <ele>470</ele>
        <time>2020-09-16T14:08:47Z</time>
      </trkpt>
      <trkpt lat="43.56358" lon="6.38449">
        <ele>469.2</ele>
        <time>2020-09-16T14:08:52Z</time>
      </trkpt>
      <trkpt lat="43.56354" lon="6.38448">
        <ele>468.5</ele>
        <time>2020-09-16T14:08:56Z</time>
      </trkpt>
      <trkpt lat="43.56351" lon="6.38445">
        <ele>467.7</ele>
        <time>2020-09-16T14:09:01Z</time>
      </trkpt>
      <trkpt lat="43.56348" lon="6.38442">
        <ele>467.2</ele>
        <time>2020-09-16T14:09:06Z</time>
      </trkpt>
      <trkpt lat="43.56344" lon="6.38438">
        <ele>466.3</ele>
        <time>2020-09-16T14:09:13Z</time>
      </trkpt>
      <trkpt lat="43.56344" lon="6.38438">
        <ele>466.2</ele>
        <time>2020-09-16T14:09:14Z</time>
      </trkpt>
      <trkpt lat="43.56337" lon="6.38434">
        <ele>463.8</ele>
        <time>2020-09-16T14:09:26Z</time>
      </trkpt>
      <trkpt lat="43.56334" lon="6.3843">
        <ele>461.8</ele>
        <time>2020-09-16T14:09:37Z</time>
      </trkpt>
      <trkpt lat="43.56331" lon="6.38428">
        <ele>461.3</ele>
        <time>2020-09-16T14:09:41Z</time>
      </trkpt>
      <trkpt lat="43.56329" lon="6.38428">
        <ele>461.2</ele>
        <time>2020-09-16T14:09:42Z</time>
      </trkpt>
      <trkpt lat="43.56325" lon="6.38427">
        <ele>461</ele>
        <time>2020-09-16T14:09:44Z</time>
      </trkpt>
      <trkpt lat="43.56322" lon="6.38426">
        <ele>460.4</ele>
        <time>2020-09-16T14:09:47Z</time>
      </trkpt>
      <trkpt lat="43.56318" lon="6.38424">
        <ele>459.9</ele>
        <time>2020-09-16T14:09:50Z</time>
      </trkpt>
      <trkpt lat="43.56315" lon="6.3842">
        <ele>459</ele>
        <time>2020-09-16T14:09:56Z</time>
      </trkpt>
      <trkpt lat="43.56312" lon="6.38418">
        <ele>458.4</ele>
        <time>2020-09-16T14:10:00Z</time>
      </trkpt>
      <trkpt lat="43.56308" lon="6.38414">
        <ele>457.5</ele>
        <time>2020-09-16T14:10:06Z</time>
      </trkpt>
      <trkpt lat="43.56305" lon="6.38411">
        <ele>456.3</ele>
        <time>2020-09-16T14:10:14Z</time>
      </trkpt>
      <trkpt lat="43.56304" lon="6.38411">
        <ele>456.2</ele>
        <time>2020-09-16T14:10:15Z</time>
      </trkpt>
      <trkpt lat="43.56297" lon="6.38407">
        <ele>454</ele>
        <time>2020-09-16T14:10:32Z</time>
      </trkpt>
      <trkpt lat="43.56294" lon="6.38405">
        <ele>453.6</ele>
        <time>2020-09-16T14:10:38Z</time>
      </trkpt>
      <trkpt lat="43.5629" lon="6.38404">
        <ele>453.2</ele>
        <time>2020-09-16T14:10:43Z</time>
      </trkpt>
      <trkpt lat="43.56286" lon="6.38403">
        <ele>452.9</ele>
        <time>2020-09-16T14:10:47Z</time>
      </trkpt>
      <trkpt lat="43.56283" lon="6.38401">
        <ele>452.6</ele>
        <time>2020-09-16T14:10:51Z</time>
      </trkpt>
      <trkpt lat="43.56279" lon="6.38398">
        <ele>452.2</ele>
        <time>2020-09-16T14:10:58Z</time>
      </trkpt>
      <trkpt lat="43.56275" lon="6.38397">
        <ele>451.8</ele>
        <time>2020-09-16T14:11:10Z</time>
      </trkpt>
      <trkpt lat="43.56271" lon="6.38396">
        <ele>451.6</ele>
        <time>2020-09-16T14:11:21Z</time>
      </trkpt>
      <trkpt lat="43.56271" lon="6.38396">
        <ele>451.6</ele>
        <time>2020-09-16T14:11:22Z</time>
      </trkpt>
      <trkpt lat="43.56268" lon="6.38406">
        <ele>451.7</ele>
        <time>2020-09-16T14:12:06Z</time>
      </trkpt>
      <trkpt lat="43.56268" lon="6.38412">
        <ele>451.7</ele>
        <time>2020-09-16T14:12:14Z</time>
      </trkpt>
      <trkpt lat="43.56268" lon="6.38418">
        <ele>451.5</ele>
        <time>2020-09-16T14:12:20Z</time>
      </trkpt>
      <trkpt lat="43.56266" lon="6.38423">
        <ele>451.2</ele>
        <time>2020-09-16T14:12:26Z</time>
      </trkpt>
      <trkpt lat="43.56265" lon="6.38424">
        <ele>451.1</ele>
        <time>2020-09-16T14:12:27Z</time>
      </trkpt>
      <trkpt lat="43.56263" lon="6.38433">
        <ele>450.9</ele>
        <time>2020-09-16T14:12:35Z</time>
      </trkpt>
      <trkpt lat="43.56262" lon="6.38438">
        <ele>450.9</ele>
        <time>2020-09-16T14:12:39Z</time>
      </trkpt>
      <trkpt lat="43.56261" lon="6.38443">
        <ele>451</ele>
        <time>2020-09-16T14:12:43Z</time>
      </trkpt>
      <trkpt lat="43.56262" lon="6.38448">
        <ele>451</ele>
        <time>2020-09-16T14:12:47Z</time>
      </trkpt>
      <trkpt lat="43.56263" lon="6.38454">
        <ele>451</ele>
        <time>2020-09-16T14:12:50Z</time>
      </trkpt>
      <trkpt lat="43.56263" lon="6.38459">
        <ele>451.1</ele>
        <time>2020-09-16T14:12:53Z</time>
      </trkpt>
      <trkpt lat="43.56262" lon="6.38464">
        <ele>451</ele>
        <time>2020-09-16T14:12:57Z</time>
      </trkpt>
      <trkpt lat="43.56262" lon="6.38469">
        <ele>451</ele>
        <time>2020-09-16T14:13:00Z</time>
      </trkpt>
      <trkpt lat="43.56261" lon="6.38474">
        <ele>451</ele>
        <time>2020-09-16T14:13:03Z</time>
      </trkpt>
      <trkpt lat="43.5626" lon="6.38479">
        <ele>451</ele>
        <time>2020-09-16T14:13:07Z</time>
      </trkpt>
      <trkpt lat="43.5626" lon="6.38484">
        <ele>450.9</ele>
        <time>2020-09-16T14:13:10Z</time>
      </trkpt>
      <trkpt lat="43.56259" lon="6.38489">
        <ele>450.9</ele>
        <time>2020-09-16T14:13:14Z</time>
      </trkpt>
      <trkpt lat="43.56258" lon="6.38495">
        <ele>450.9</ele>
        <time>2020-09-16T14:13:18Z</time>
      </trkpt>
      <trkpt lat="43.56256" lon="6.385">
        <ele>451</ele>
        <time>2020-09-16T14:13:25Z</time>
      </trkpt>
      <trkpt lat="43.56254" lon="6.38505">
        <ele>451.2</ele>
        <time>2020-09-16T14:13:39Z</time>
      </trkpt>
      <trkpt lat="43.56254" lon="6.38506">
        <ele>451.2</ele>
        <time>2020-09-16T14:13:40Z</time>
      </trkpt>
      <trkpt lat="43.56253" lon="6.38515">
        <ele>451.4</ele>
        <time>2020-09-16T14:14:23Z</time>
      </trkpt>
      <trkpt lat="43.56251" lon="6.3852">
        <ele>451.2</ele>
        <time>2020-09-16T14:14:28Z</time>
      </trkpt>
      <trkpt lat="43.5625" lon="6.38525">
        <ele>451.1</ele>
        <time>2020-09-16T14:14:34Z</time>
      </trkpt>
      <trkpt lat="43.56251" lon="6.38531">
        <ele>450.9</ele>
        <time>2020-09-16T14:14:40Z</time>
      </trkpt>
      <trkpt lat="43.56251" lon="6.38532">
        <ele>451</ele>
        <time>2020-09-16T14:14:41Z</time>
      </trkpt>
      <trkpt lat="43.56248" lon="6.38543">
        <ele>451.3</ele>
        <time>2020-09-16T14:14:52Z</time>
      </trkpt>
      <trkpt lat="43.56247" lon="6.38549">
        <ele>451.2</ele>
        <time>2020-09-16T14:14:57Z</time>
      </trkpt>
      <trkpt lat="43.56246" lon="6.38554">
        <ele>451.1</ele>
        <time>2020-09-16T14:15:01Z</time>
      </trkpt>
      <trkpt lat="43.56244" lon="6.38558">
        <ele>451</ele>
        <time>2020-09-16T14:15:05Z</time>
      </trkpt>
      <trkpt lat="43.56241" lon="6.38563">
        <ele>450.6</ele>
        <time>2020-09-16T14:15:09Z</time>
      </trkpt>
      <trkpt lat="43.56239" lon="6.38567">
        <ele>450.3</ele>
        <time>2020-09-16T14:15:12Z</time>
      </trkpt>
      <trkpt lat="43.56237" lon="6.38571">
        <ele>450</ele>
        <time>2020-09-16T14:15:16Z</time>
      </trkpt>
      <trkpt lat="43.56234" lon="6.38575">
        <ele>449.8</ele>
        <time>2020-09-16T14:15:19Z</time>
      </trkpt>
      <trkpt lat="43.56232" lon="6.3858">
        <ele>449.7</ele>
        <time>2020-09-16T14:15:22Z</time>
      </trkpt>
      <trkpt lat="43.5623" lon="6.38584">
        <ele>449.6</ele>
        <time>2020-09-16T14:15:25Z</time>
      </trkpt>
      <trkpt lat="43.56228" lon="6.38588">
        <ele>449.6</ele>
        <time>2020-09-16T14:15:28Z</time>
      </trkpt>
      <trkpt lat="43.56225" lon="6.38592">
        <ele>449.6</ele>
        <time>2020-09-16T14:15:31Z</time>
      </trkpt>
      <trkpt lat="43.56222" lon="6.38596">
        <ele>449.6</ele>
        <time>2020-09-16T14:15:35Z</time>
      </trkpt>
      <trkpt lat="43.5622" lon="6.386">
        <ele>449.4</ele>
        <time>2020-09-16T14:15:38Z</time>
      </trkpt>
      <trkpt lat="43.56217" lon="6.38603">
        <ele>449.3</ele>
        <time>2020-09-16T14:15:41Z</time>
      </trkpt>
      <trkpt lat="43.56216" lon="6.38604">
        <ele>449.2</ele>
        <time>2020-09-16T14:15:42Z</time>
      </trkpt>
      <trkpt lat="43.56212" lon="6.3861">
        <ele>449.1</ele>
        <time>2020-09-16T14:15:47Z</time>
      </trkpt>
      <trkpt lat="43.5621" lon="6.38613">
        <ele>449.1</ele>
        <time>2020-09-16T14:15:50Z</time>
      </trkpt>
      <trkpt lat="43.56206" lon="6.38617">
        <ele>448.9</ele>
        <time>2020-09-16T14:15:54Z</time>
      </trkpt>
      <trkpt lat="43.56203" lon="6.3862">
        <ele>448.8</ele>
        <time>2020-09-16T14:15:57Z</time>
      </trkpt>
      <trkpt lat="43.56201" lon="6.38624">
        <ele>448.7</ele>
        <time>2020-09-16T14:16:00Z</time>
      </trkpt>
      <trkpt lat="43.56197" lon="6.38628">
        <ele>448.6</ele>
        <time>2020-09-16T14:16:04Z</time>
      </trkpt>
      <trkpt lat="43.56194" lon="6.38632">
        <ele>448.7</ele>
        <time>2020-09-16T14:16:08Z</time>
      </trkpt>
      <trkpt lat="43.56191" lon="6.38635">
        <ele>448.6</ele>
        <time>2020-09-16T14:16:12Z</time>
      </trkpt>
      <trkpt lat="43.56189" lon="6.38638">
        <ele>448.4</ele>
        <time>2020-09-16T14:16:15Z</time>
      </trkpt>
      <trkpt lat="43.56186" lon="6.38642">
        <ele>448.4</ele>
        <time>2020-09-16T14:16:18Z</time>
      </trkpt>
      <trkpt lat="43.56183" lon="6.38645">
        <ele>448.4</ele>
        <time>2020-09-16T14:16:22Z</time>
      </trkpt>
      <trkpt lat="43.56179" lon="6.38649">
        <ele>448.5</ele>
        <time>2020-09-16T14:16:26Z</time>
      </trkpt>
      <trkpt lat="43.56176" lon="6.38653">
        <ele>448.5</ele>
        <time>2020-09-16T14:16:30Z</time>
      </trkpt>
      <trkpt lat="43.56173" lon="6.38656">
        <ele>448.5</ele>
        <time>2020-09-16T14:16:33Z</time>
      </trkpt>
      <trkpt lat="43.56171" lon="6.3866">
        <ele>448.6</ele>
        <time>2020-09-16T14:16:37Z</time>
      </trkpt>
      <trkpt lat="43.56168" lon="6.38664">
        <ele>448.7</ele>
        <time>2020-09-16T14:16:41Z</time>
      </trkpt>
      <trkpt lat="43.56165" lon="6.38668">
        <ele>448.8</ele>
        <time>2020-09-16T14:16:45Z</time>
      </trkpt>
      <trkpt lat="43.56164" lon="6.38669">
        <ele>448.8</ele>
        <time>2020-09-16T14:16:46Z</time>
      </trkpt>
      <trkpt lat="43.56159" lon="6.38676">
        <ele>449</ele>
        <time>2020-09-16T14:16:53Z</time>
      </trkpt>
      <trkpt lat="43.56157" lon="6.3868">
        <ele>449.1</ele>
        <time>2020-09-16T14:16:57Z</time>
      </trkpt>
      <trkpt lat="43.56157" lon="6.38685">
        <ele>449.2</ele>
        <time>2020-09-16T14:17:01Z</time>
      </trkpt>
      <trkpt lat="43.56157" lon="6.38691">
        <ele>449.5</ele>
        <time>2020-09-16T14:17:06Z</time>
      </trkpt>
      <trkpt lat="43.56157" lon="6.38697">
        <ele>450</ele>
        <time>2020-09-16T14:17:10Z</time>
      </trkpt>
      <trkpt lat="43.56159" lon="6.38701">
        <ele>450.4</ele>
        <time>2020-09-16T14:17:14Z</time>
      </trkpt>
      <trkpt lat="43.56162" lon="6.38704">
        <ele>450.7</ele>
        <time>2020-09-16T14:17:18Z</time>
      </trkpt>
      <trkpt lat="43.56166" lon="6.38707">
        <ele>451.1</ele>
        <time>2020-09-16T14:17:24Z</time>
      </trkpt>
      <trkpt lat="43.56165" lon="6.38713">
        <ele>451.4</ele>
        <time>2020-09-16T14:17:30Z</time>
      </trkpt>
      <trkpt lat="43.56162" lon="6.38717">
        <ele>451.6</ele>
        <time>2020-09-16T14:17:36Z</time>
      </trkpt>
      <trkpt lat="43.56159" lon="6.3872">
        <ele>451.8</ele>
        <time>2020-09-16T14:17:42Z</time>
      </trkpt>
      <trkpt lat="43.56156" lon="6.38724">
        <ele>452</ele>
        <time>2020-09-16T14:17:49Z</time>
      </trkpt>
      <trkpt lat="43.56155" lon="6.38725">
        <ele>452.1</ele>
        <time>2020-09-16T14:17:50Z</time>
      </trkpt>
      <trkpt lat="43.56154" lon="6.38736">
        <ele>452.3</ele>
        <time>2020-09-16T14:17:58Z</time>
      </trkpt>
      <trkpt lat="43.56155" lon="6.3874">
        <ele>452.5</ele>
        <time>2020-09-16T14:18:01Z</time>
      </trkpt>
      <trkpt lat="43.56157" lon="6.38744">
        <ele>452.9</ele>
        <time>2020-09-16T14:18:04Z</time>
      </trkpt>
      <trkpt lat="43.5616" lon="6.38747">
        <ele>453.2</ele>
        <time>2020-09-16T14:18:07Z</time>
      </trkpt>
      <trkpt lat="43.56163" lon="6.38752">
        <ele>453.7</ele>
        <time>2020-09-16T14:18:12Z</time>
      </trkpt>
      <trkpt lat="43.56163" lon="6.38757">
        <ele>454.1</ele>
        <time>2020-09-16T14:18:16Z</time>
      </trkpt>
      <trkpt lat="43.56162" lon="6.38763">
        <ele>454.4</ele>
        <time>2020-09-16T14:18:21Z</time>
      </trkpt>
      <trkpt lat="43.56161" lon="6.38769">
        <ele>454.7</ele>
        <time>2020-09-16T14:18:26Z</time>
      </trkpt>
      <trkpt lat="43.5616" lon="6.38774">
        <ele>454.9</ele>
        <time>2020-09-16T14:18:30Z</time>
      </trkpt>
      <trkpt lat="43.56161" lon="6.38779">
        <ele>455</ele>
        <time>2020-09-16T14:18:34Z</time>
      </trkpt>
      <trkpt lat="43.56163" lon="6.38783">
        <ele>455.2</ele>
        <time>2020-09-16T14:18:37Z</time>
      </trkpt>
      <trkpt lat="43.56166" lon="6.38787">
        <ele>455.7</ele>
        <time>2020-09-16T14:18:42Z</time>
      </trkpt>
      <trkpt lat="43.5617" lon="6.38789">
        <ele>456.1</ele>
        <time>2020-09-16T14:18:47Z</time>
      </trkpt>
      <trkpt lat="43.56174" lon="6.38791">
        <ele>456.6</ele>
        <time>2020-09-16T14:18:52Z</time>
      </trkpt>
      <trkpt lat="43.56175" lon="6.38791">
        <ele>456.8</ele>
        <time>2020-09-16T14:18:53Z</time>
      </trkpt>
      <trkpt lat="43.56182" lon="6.38793">
        <ele>457.7</ele>
        <time>2020-09-16T14:19:04Z</time>
      </trkpt>
      <trkpt lat="43.56186" lon="6.38795">
        <ele>458.4</ele>
        <time>2020-09-16T14:19:12Z</time>
      </trkpt>
      <trkpt lat="43.56191" lon="6.38796">
        <ele>460</ele>
        <time>2020-09-16T14:19:51Z</time>
      </trkpt>
      <trkpt lat="43.56186" lon="6.38796">
        <ele>459.1</ele>
        <time>2020-09-16T14:20:22Z</time>
      </trkpt>
      <trkpt lat="43.56186" lon="6.38797">
        <ele>459.2</ele>
        <time>2020-09-16T14:20:23Z</time>
      </trkpt>
      <trkpt lat="43.56185" lon="6.38808">
        <ele>460</ele>
        <time>2020-09-16T14:21:04Z</time>
      </trkpt>
      <trkpt lat="43.56185" lon="6.38814">
        <ele>460.6</ele>
        <time>2020-09-16T14:21:23Z</time>
      </trkpt>
      <trkpt lat="43.56185" lon="6.38814">
        <ele>460.7</ele>
        <time>2020-09-16T14:21:24Z</time>
      </trkpt>
      <trkpt lat="43.56192" lon="6.3882">
        <ele>459.9</ele>
        <time>2020-09-16T14:21:48Z</time>
      </trkpt>
      <trkpt lat="43.56195" lon="6.38825">
        <ele>459.5</ele>
        <time>2020-09-16T14:21:57Z</time>
      </trkpt>
      <trkpt lat="43.56196" lon="6.3883">
        <ele>458.4</ele>
        <time>2020-09-16T14:22:10Z</time>
      </trkpt>
      <trkpt lat="43.56199" lon="6.38834">
        <ele>457.7</ele>
        <time>2020-09-16T14:22:17Z</time>
      </trkpt>
      <trkpt lat="43.56203" lon="6.38835">
        <ele>456.5</ele>
        <time>2020-09-16T14:22:27Z</time>
      </trkpt>
      <trkpt lat="43.56204" lon="6.38835">
        <ele>456.5</ele>
        <time>2020-09-16T14:22:28Z</time>
      </trkpt>
      <trkpt lat="43.56211" lon="6.38837">
        <ele>455.6</ele>
        <time>2020-09-16T14:22:38Z</time>
      </trkpt>
      <trkpt lat="43.56215" lon="6.38838">
        <ele>455.2</ele>
        <time>2020-09-16T14:22:42Z</time>
      </trkpt>
      <trkpt lat="43.56219" lon="6.38839">
        <ele>454.9</ele>
        <time>2020-09-16T14:22:47Z</time>
      </trkpt>
      <trkpt lat="43.56222" lon="6.38842">
        <ele>454.2</ele>
        <time>2020-09-16T14:23:03Z</time>
      </trkpt>
      <trkpt lat="43.56227" lon="6.38844">
        <ele>454</ele>
        <time>2020-09-16T14:23:11Z</time>
      </trkpt>
      <trkpt lat="43.5623" lon="6.38844">
        <ele>453.9</ele>
        <time>2020-09-16T14:23:16Z</time>
      </trkpt>
      <trkpt lat="43.56234" lon="6.38845">
        <ele>453.4</ele>
        <time>2020-09-16T14:23:21Z</time>
      </trkpt>
      <trkpt lat="43.56239" lon="6.38847">
        <ele>453.1</ele>
        <time>2020-09-16T14:23:27Z</time>
      </trkpt>
      <trkpt lat="43.56242" lon="6.38849">
        <ele>453</ele>
        <time>2020-09-16T14:23:32Z</time>
      </trkpt>
      <trkpt lat="43.56243" lon="6.3885">
        <ele>453</ele>
        <time>2020-09-16T14:23:33Z</time>
      </trkpt>
      <trkpt lat="43.56249" lon="6.38855">
        <ele>452.5</ele>
        <time>2020-09-16T14:23:43Z</time>
      </trkpt>
      <trkpt lat="43.56253" lon="6.38858">
        <ele>452.2</ele>
        <time>2020-09-16T14:23:49Z</time>
      </trkpt>
      <trkpt lat="43.56253" lon="6.38864">
        <ele>452.1</ele>
        <time>2020-09-16T14:23:55Z</time>
      </trkpt>
      <trkpt lat="43.56254" lon="6.3887">
        <ele>452</ele>
        <time>2020-09-16T14:24:00Z</time>
      </trkpt>
      <trkpt lat="43.56256" lon="6.38875">
        <ele>451.7</ele>
        <time>2020-09-16T14:24:07Z</time>
      </trkpt>
      <trkpt lat="43.56259" lon="6.38879">
        <ele>451.5</ele>
        <time>2020-09-16T14:24:12Z</time>
      </trkpt>
      <trkpt lat="43.56262" lon="6.38883">
        <ele>451</ele>
        <time>2020-09-16T14:24:19Z</time>
      </trkpt>
      <trkpt lat="43.56264" lon="6.38888">
        <ele>450.7</ele>
        <time>2020-09-16T14:24:24Z</time>
      </trkpt>
      <trkpt lat="43.56266" lon="6.38893">
        <ele>450.4</ele>
        <time>2020-09-16T14:24:29Z</time>
      </trkpt>
      <trkpt lat="43.56268" lon="6.38898">
        <ele>450.2</ele>
        <time>2020-09-16T14:24:34Z</time>
      </trkpt>
      <trkpt lat="43.56268" lon="6.38899">
        <ele>450.2</ele>
        <time>2020-09-16T14:24:35Z</time>
      </trkpt>
      <trkpt lat="43.56269" lon="6.3891">
        <ele>449.8</ele>
        <time>2020-09-16T14:24:47Z</time>
      </trkpt>
      <trkpt lat="43.5627" lon="6.38915">
        <ele>449.8</ele>
        <time>2020-09-16T14:24:54Z</time>
      </trkpt>
      <trkpt lat="43.56269" lon="6.38921">
        <ele>449.6</ele>
        <time>2020-09-16T14:25:02Z</time>
      </trkpt>
      <trkpt lat="43.56268" lon="6.38927">
        <ele>449.4</ele>
        <time>2020-09-16T14:25:12Z</time>
      </trkpt>
      <trkpt lat="43.56267" lon="6.38933">
        <ele>449.4</ele>
        <time>2020-09-16T14:25:24Z</time>
      </trkpt>
      <trkpt lat="43.56268" lon="6.38939">
        <ele>448.9</ele>
        <time>2020-09-16T14:25:53Z</time>
      </trkpt>
      <trkpt lat="43.56268" lon="6.38939">
        <ele>448.9</ele>
        <time>2020-09-16T14:25:54Z</time>
      </trkpt>
      <trkpt lat="43.56272" lon="6.3895">
        <ele>445.8</ele>
        <time>2020-09-16T14:26:20Z</time>
      </trkpt>
      <trkpt lat="43.56274" lon="6.38955">
        <ele>444.6</ele>
        <time>2020-09-16T14:26:30Z</time>
      </trkpt>
      <trkpt lat="43.56276" lon="6.3896">
        <ele>443.3</ele>
        <time>2020-09-16T14:26:44Z</time>
      </trkpt>
      <trkpt lat="43.56277" lon="6.38966">
        <ele>442.4</ele>
        <time>2020-09-16T14:26:53Z</time>
      </trkpt>
      <trkpt lat="43.56278" lon="6.38972">
        <ele>441.6</ele>
        <time>2020-09-16T14:26:58Z</time>
      </trkpt>
      <trkpt lat="43.56278" lon="6.38973">
        <ele>441.5</ele>
        <time>2020-09-16T14:26:59Z</time>
      </trkpt>
      <trkpt lat="43.5628" lon="6.38982">
        <ele>440.1</ele>
        <time>2020-09-16T14:27:11Z</time>
      </trkpt>
      <trkpt lat="43.56284" lon="6.38985">
        <ele>439.4</ele>
        <time>2020-09-16T14:27:16Z</time>
      </trkpt>
      <trkpt lat="43.56287" lon="6.38989">
        <ele>438.8</ele>
        <time>2020-09-16T14:27:21Z</time>
      </trkpt>
      <trkpt lat="43.56288" lon="6.38994">
        <ele>438</ele>
        <time>2020-09-16T14:27:27Z</time>
      </trkpt>
      <trkpt lat="43.5629" lon="6.38999">
        <ele>437.6</ele>
        <time>2020-09-16T14:27:33Z</time>
      </trkpt>
      <trkpt lat="43.56291" lon="6.39004">
        <ele>437.4</ele>
        <time>2020-09-16T14:27:39Z</time>
      </trkpt>
      <trkpt lat="43.56291" lon="6.3901">
        <ele>437.2</ele>
        <time>2020-09-16T14:27:43Z</time>
      </trkpt>
      <trkpt lat="43.56292" lon="6.39016">
        <ele>437.1</ele>
        <time>2020-09-16T14:27:47Z</time>
      </trkpt>
      <trkpt lat="43.56292" lon="6.39022">
        <ele>437.2</ele>
        <time>2020-09-16T14:27:52Z</time>
      </trkpt>
      <trkpt lat="43.56294" lon="6.39027">
        <ele>437.2</ele>
        <time>2020-09-16T14:27:57Z</time>
      </trkpt>
      <trkpt lat="43.56294" lon="6.39033">
        <ele>437.2</ele>
        <time>2020-09-16T14:28:00Z</time>
      </trkpt>
      <trkpt lat="43.56294" lon="6.39034">
        <ele>437.2</ele>
        <time>2020-09-16T14:28:01Z</time>
      </trkpt>
      <trkpt lat="43.56293" lon="6.39044">
        <ele>436.3</ele>
        <time>2020-09-16T14:28:11Z</time>
      </trkpt>
      <trkpt lat="43.56292" lon="6.39049">
        <ele>435.8</ele>
        <time>2020-09-16T14:28:17Z</time>
      </trkpt>
      <trkpt lat="43.56293" lon="6.39054">
        <ele>435.2</ele>
        <time>2020-09-16T14:28:21Z</time>
      </trkpt>
      <trkpt lat="43.56294" lon="6.3906">
        <ele>434.2</ele>
        <time>2020-09-16T14:28:28Z</time>
      </trkpt>
      <trkpt lat="43.56298" lon="6.39063">
        <ele>432.7</ele>
        <time>2020-09-16T14:28:39Z</time>
      </trkpt>
      <trkpt lat="43.56302" lon="6.39063">
        <ele>431.3</ele>
        <time>2020-09-16T14:28:49Z</time>
      </trkpt>
      <trkpt lat="43.56306" lon="6.39065">
        <ele>429.8</ele>
        <time>2020-09-16T14:29:02Z</time>
      </trkpt>
      <trkpt lat="43.56308" lon="6.39065">
        <ele>429.7</ele>
        <time>2020-09-16T14:29:03Z</time>
      </trkpt>
      <trkpt lat="43.56311" lon="6.39071">
        <ele>428.2</ele>
        <time>2020-09-16T14:29:16Z</time>
      </trkpt>
      <trkpt lat="43.56312" lon="6.39077">
        <ele>427.6</ele>
        <time>2020-09-16T14:29:19Z</time>
      </trkpt>
      <trkpt lat="43.5631" lon="6.39081">
        <ele>427</ele>
        <time>2020-09-16T14:29:24Z</time>
      </trkpt>
      <trkpt lat="43.56311" lon="6.39087">
        <ele>426.3</ele>
        <time>2020-09-16T14:29:31Z</time>
      </trkpt>
      <trkpt lat="43.56309" lon="6.39092">
        <ele>425.5</ele>
        <time>2020-09-16T14:29:37Z</time>
      </trkpt>
      <trkpt lat="43.56308" lon="6.39098">
        <ele>424.9</ele>
        <time>2020-09-16T14:29:41Z</time>
      </trkpt>
      <trkpt lat="43.56306" lon="6.39103">
        <ele>424.4</ele>
        <time>2020-09-16T14:29:50Z</time>
      </trkpt>
      <trkpt lat="43.56302" lon="6.39106">
        <ele>424.3</ele>
        <time>2020-09-16T14:29:55Z</time>
      </trkpt>
      <trkpt lat="43.56299" lon="6.39108">
        <ele>424</ele>
        <time>2020-09-16T14:29:59Z</time>
      </trkpt>
      <trkpt lat="43.56297" lon="6.39113">
        <ele>423.3</ele>
        <time>2020-09-16T14:30:05Z</time>
      </trkpt>
      <trkpt lat="43.56297" lon="6.39114">
        <ele>423.2</ele>
        <time>2020-09-16T14:30:06Z</time>
      </trkpt>
      <trkpt lat="43.56295" lon="6.39123">
        <ele>421.9</ele>
        <time>2020-09-16T14:30:14Z</time>
      </trkpt>
      <trkpt lat="43.56293" lon="6.39127">
        <ele>421.4</ele>
        <time>2020-09-16T14:30:17Z</time>
      </trkpt>
      <trkpt lat="43.5629" lon="6.3913">
        <ele>420.9</ele>
        <time>2020-09-16T14:30:20Z</time>
      </trkpt>
      <trkpt lat="43.56287" lon="6.39135">
        <ele>420.6</ele>
        <time>2020-09-16T14:30:23Z</time>
      </trkpt>
      <trkpt lat="43.56286" lon="6.3914">
        <ele>420.3</ele>
        <time>2020-09-16T14:30:27Z</time>
      </trkpt>
      <trkpt lat="43.56284" lon="6.39144">
        <ele>420</ele>
        <time>2020-09-16T14:30:32Z</time>
      </trkpt>
      <trkpt lat="43.56282" lon="6.39149">
        <ele>419.6</ele>
        <time>2020-09-16T14:30:36Z</time>
      </trkpt>
      <trkpt lat="43.5628" lon="6.39154">
        <ele>419.1</ele>
        <time>2020-09-16T14:30:40Z</time>
      </trkpt>
      <trkpt lat="43.56278" lon="6.39159">
        <ele>418.5</ele>
        <time>2020-09-16T14:30:45Z</time>
      </trkpt>
      <trkpt lat="43.56276" lon="6.39164">
        <ele>417.6</ele>
        <time>2020-09-16T14:30:52Z</time>
      </trkpt>
      <trkpt lat="43.56276" lon="6.3917">
        <ele>416.6</ele>
        <time>2020-09-16T14:30:59Z</time>
      </trkpt>
      <trkpt lat="43.56275" lon="6.39176">
        <ele>415.7</ele>
        <time>2020-09-16T14:31:04Z</time>
      </trkpt>
      <trkpt lat="43.56272" lon="6.3918">
        <ele>414.9</ele>
        <time>2020-09-16T14:31:09Z</time>
      </trkpt>
      <trkpt lat="43.56271" lon="6.39181">
        <ele>414.8</ele>
        <time>2020-09-16T14:31:10Z</time>
      </trkpt>
      <trkpt lat="43.56268" lon="6.39189">
        <ele>413.6</ele>
        <time>2020-09-16T14:31:20Z</time>
      </trkpt>
      <trkpt lat="43.56267" lon="6.39195">
        <ele>412.9</ele>
        <time>2020-09-16T14:31:25Z</time>
      </trkpt>
      <trkpt lat="43.56265" lon="6.392">
        <ele>411.7</ele>
        <time>2020-09-16T14:31:31Z</time>
      </trkpt>
      <trkpt lat="43.56262" lon="6.39204">
        <ele>410.7</ele>
        <time>2020-09-16T14:31:40Z</time>
      </trkpt>
      <trkpt lat="43.5626" lon="6.39209">
        <ele>409.5</ele>
        <time>2020-09-16T14:31:49Z</time>
      </trkpt>
      <trkpt lat="43.56257" lon="6.39214">
        <ele>408.5</ele>
        <time>2020-09-16T14:32:07Z</time>
      </trkpt>
      <trkpt lat="43.56255" lon="6.39218">
        <ele>408.3</ele>
        <time>2020-09-16T14:32:15Z</time>
      </trkpt>
      <trkpt lat="43.56254" lon="6.39219">
        <ele>408.3</ele>
        <time>2020-09-16T14:32:16Z</time>
      </trkpt>
      <trkpt lat="43.56247" lon="6.39223">
        <ele>407.9</ele>
        <time>2020-09-16T14:32:35Z</time>
      </trkpt>
      <trkpt lat="43.56243" lon="6.39222">
        <ele>407.8</ele>
        <time>2020-09-16T14:32:43Z</time>
      </trkpt>
      <trkpt lat="43.5624" lon="6.39226">
        <ele>407.8</ele>
        <time>2020-09-16T14:32:57Z</time>
      </trkpt>
      <trkpt lat="43.56237" lon="6.39231">
        <ele>407.7</ele>
        <time>2020-09-16T14:33:09Z</time>
      </trkpt>
      <trkpt lat="43.56234" lon="6.39235">
        <ele>407.6</ele>
        <time>2020-09-16T14:33:15Z</time>
      </trkpt>
      <trkpt lat="43.56231" lon="6.3924">
        <ele>407.6</ele>
        <time>2020-09-16T14:33:21Z</time>
      </trkpt>
      <trkpt lat="43.56231" lon="6.39241">
        <ele>407.6</ele>
        <time>2020-09-16T14:33:22Z</time>
      </trkpt>
      <trkpt lat="43.56226" lon="6.39249">
        <ele>407.1</ele>
        <time>2020-09-16T14:33:40Z</time>
      </trkpt>
      <trkpt lat="43.56223" lon="6.39252">
        <ele>407</ele>
        <time>2020-09-16T14:33:44Z</time>
      </trkpt>
      <trkpt lat="43.56219" lon="6.39254">
        <ele>407</ele>
        <time>2020-09-16T14:33:49Z</time>
      </trkpt>
      <trkpt lat="43.56215" lon="6.39257">
        <ele>406.9</ele>
        <time>2020-09-16T14:33:54Z</time>
      </trkpt>
      <trkpt lat="43.56211" lon="6.39258">
        <ele>406.9</ele>
        <time>2020-09-16T14:33:58Z</time>
      </trkpt>
      <trkpt lat="43.56209" lon="6.39262">
        <ele>406.9</ele>
        <time>2020-09-16T14:34:02Z</time>
      </trkpt>
      <trkpt lat="43.56206" lon="6.39266">
        <ele>406.9</ele>
        <time>2020-09-16T14:34:05Z</time>
      </trkpt>
      <trkpt lat="43.56203" lon="6.39267">
        <ele>407</ele>
        <time>2020-09-16T14:34:07Z</time>
      </trkpt>
      <trkpt lat="43.562" lon="6.39269">
        <ele>406.9</ele>
        <time>2020-09-16T14:34:10Z</time>
      </trkpt>
      <trkpt lat="43.56196" lon="6.3927">
        <ele>406.8</ele>
        <time>2020-09-16T14:34:13Z</time>
      </trkpt>
      <trkpt lat="43.56192" lon="6.39271">
        <ele>406.9</ele>
        <time>2020-09-16T14:34:17Z</time>
      </trkpt>
      <trkpt lat="43.56188" lon="6.39274">
        <ele>407</ele>
        <time>2020-09-16T14:34:22Z</time>
      </trkpt>
      <trkpt lat="43.56187" lon="6.39274">
        <ele>407</ele>
        <time>2020-09-16T14:34:23Z</time>
      </trkpt>
      <trkpt lat="43.56181" lon="6.39276">
        <ele>407.1</ele>
        <time>2020-09-16T14:34:28Z</time>
      </trkpt>
      <trkpt lat="43.56178" lon="6.39277">
        <ele>407.1</ele>
        <time>2020-09-16T14:34:30Z</time>
      </trkpt>
      <trkpt lat="43.56174" lon="6.39279">
        <ele>407.2</ele>
        <time>2020-09-16T14:34:33Z</time>
      </trkpt>
      <trkpt lat="43.5617" lon="6.39282">
        <ele>407.2</ele>
        <time>2020-09-16T14:34:37Z</time>
      </trkpt>
      <trkpt lat="43.56167" lon="6.39283">
        <ele>407.3</ele>
        <time>2020-09-16T14:34:40Z</time>
      </trkpt>
      <trkpt lat="43.56163" lon="6.39283">
        <ele>407.4</ele>
        <time>2020-09-16T14:34:43Z</time>
      </trkpt>
      <trkpt lat="43.5616" lon="6.39284">
        <ele>407.6</ele>
        <time>2020-09-16T14:34:46Z</time>
      </trkpt>
      <trkpt lat="43.56155" lon="6.39285">
        <ele>407.9</ele>
        <time>2020-09-16T14:34:49Z</time>
      </trkpt>
      <trkpt lat="43.56151" lon="6.39287">
        <ele>408.1</ele>
        <time>2020-09-16T14:34:52Z</time>
      </trkpt>
      <trkpt lat="43.56147" lon="6.3929">
        <ele>408.5</ele>
        <time>2020-09-16T14:34:56Z</time>
      </trkpt>
      <trkpt lat="43.56143" lon="6.39291">
        <ele>408.7</ele>
        <time>2020-09-16T14:35:01Z</time>
      </trkpt>
      <trkpt lat="43.5614" lon="6.39294">
        <ele>408.6</ele>
        <time>2020-09-16T14:35:07Z</time>
      </trkpt>
      <trkpt lat="43.56136" lon="6.39294">
        <ele>408.4</ele>
        <time>2020-09-16T14:35:11Z</time>
      </trkpt>
      <trkpt lat="43.56132" lon="6.39293">
        <ele>408.4</ele>
        <time>2020-09-16T14:35:14Z</time>
      </trkpt>
      <trkpt lat="43.56128" lon="6.39293">
        <ele>408.5</ele>
        <time>2020-09-16T14:35:17Z</time>
      </trkpt>
      <trkpt lat="43.56124" lon="6.39292">
        <ele>408.6</ele>
        <time>2020-09-16T14:35:21Z</time>
      </trkpt>
      <trkpt lat="43.5612" lon="6.39291">
        <ele>408.7</ele>
        <time>2020-09-16T14:35:24Z</time>
      </trkpt>
      <trkpt lat="43.56119" lon="6.39291">
        <ele>408.6</ele>
        <time>2020-09-16T14:35:25Z</time>
      </trkpt>
      <trkpt lat="43.56112" lon="6.39292">
        <ele>408.7</ele>
        <time>2020-09-16T14:35:30Z</time>
      </trkpt>
      <trkpt lat="43.56107" lon="6.39292">
        <ele>408.8</ele>
        <time>2020-09-16T14:35:34Z</time>
      </trkpt>
      <trkpt lat="43.56105" lon="6.39292">
        <ele>408.7</ele>
        <time>2020-09-16T14:35:37Z</time>
      </trkpt>
      <trkpt lat="43.56101" lon="6.39293">
        <ele>408.7</ele>
        <time>2020-09-16T14:35:39Z</time>
      </trkpt>
      <trkpt lat="43.56097" lon="6.39294">
        <ele>408.7</ele>
        <time>2020-09-16T14:35:41Z</time>
      </trkpt>
      <trkpt lat="43.56093" lon="6.39294">
        <ele>408.6</ele>
        <time>2020-09-16T14:35:46Z</time>
      </trkpt>
      <trkpt lat="43.56089" lon="6.39296">
        <ele>408.6</ele>
        <time>2020-09-16T14:35:50Z</time>
      </trkpt>
      <trkpt lat="43.56086" lon="6.393">
        <ele>408.5</ele>
        <time>2020-09-16T14:35:54Z</time>
      </trkpt>
      <trkpt lat="43.56083" lon="6.39303">
        <ele>408.4</ele>
        <time>2020-09-16T14:35:57Z</time>
      </trkpt>
      <trkpt lat="43.5608" lon="6.39306">
        <ele>408.1</ele>
        <time>2020-09-16T14:36:01Z</time>
      </trkpt>
      <trkpt lat="43.56077" lon="6.39308">
        <ele>408</ele>
        <time>2020-09-16T14:36:04Z</time>
      </trkpt>
      <trkpt lat="43.56073" lon="6.39311">
        <ele>407.9</ele>
        <time>2020-09-16T14:36:07Z</time>
      </trkpt>
      <trkpt lat="43.5607" lon="6.39313">
        <ele>407.9</ele>
        <time>2020-09-16T14:36:09Z</time>
      </trkpt>
      <trkpt lat="43.56067" lon="6.39315">
        <ele>407.9</ele>
        <time>2020-09-16T14:36:12Z</time>
      </trkpt>
      <trkpt lat="43.56063" lon="6.39319">
        <ele>408.1</ele>
        <time>2020-09-16T14:36:21Z</time>
      </trkpt>
      <trkpt lat="43.56059" lon="6.3932">
        <ele>408.2</ele>
        <time>2020-09-16T14:36:40Z</time>
      </trkpt>
      <trkpt lat="43.56059" lon="6.3932">
        <ele>408.2</ele>
        <time>2020-09-16T14:36:41Z</time>
      </trkpt>
      <trkpt lat="43.56056" lon="6.3933">
        <ele>407.8</ele>
        <time>2020-09-16T14:37:09Z</time>
      </trkpt>
      <trkpt lat="43.56054" lon="6.39335">
        <ele>407.8</ele>
        <time>2020-09-16T14:37:15Z</time>
      </trkpt>
      <trkpt lat="43.56051" lon="6.39338">
        <ele>407.7</ele>
        <time>2020-09-16T14:37:19Z</time>
      </trkpt>
      <trkpt lat="43.5605" lon="6.39332">
        <ele>407.2</ele>
        <time>2020-09-16T14:37:58Z</time>
      </trkpt>
      <trkpt lat="43.5605" lon="6.39332">
        <ele>407.2</ele>
        <time>2020-09-16T14:37:59Z</time>
      </trkpt>
      <trkpt lat="43.56044" lon="6.39329">
        <ele>406.5</ele>
        <time>2020-09-16T14:38:34Z</time>
      </trkpt>
      <trkpt lat="43.5604" lon="6.39332">
        <ele>406</ele>
        <time>2020-09-16T14:38:42Z</time>
      </trkpt>
      <trkpt lat="43.56037" lon="6.39335">
        <ele>405.6</ele>
        <time>2020-09-16T14:38:47Z</time>
      </trkpt>
      <trkpt lat="43.56033" lon="6.39337">
        <ele>405.3</ele>
        <time>2020-09-16T14:38:51Z</time>
      </trkpt>
      <trkpt lat="43.5603" lon="6.39341">
        <ele>404.8</ele>
        <time>2020-09-16T14:38:57Z</time>
      </trkpt>
      <trkpt lat="43.56026" lon="6.39344">
        <ele>404.4</ele>
        <time>2020-09-16T14:39:02Z</time>
      </trkpt>
      <trkpt lat="43.56025" lon="6.39344">
        <ele>404.3</ele>
        <time>2020-09-16T14:39:03Z</time>
      </trkpt>
      <trkpt lat="43.5602" lon="6.39351">
        <ele>403.7</ele>
        <time>2020-09-16T14:39:12Z</time>
      </trkpt>
      <trkpt lat="43.56016" lon="6.39354">
        <ele>403.3</ele>
        <time>2020-09-16T14:39:17Z</time>
      </trkpt>
      <trkpt lat="43.56012" lon="6.39356">
        <ele>403.2</ele>
        <time>2020-09-16T14:39:21Z</time>
      </trkpt>
      <trkpt lat="43.56008" lon="6.39357">
        <ele>403</ele>
        <time>2020-09-16T14:39:26Z</time>
      </trkpt>
      <trkpt lat="43.56005" lon="6.39361">
        <ele>402.9</ele>
        <time>2020-09-16T14:39:31Z</time>
      </trkpt>
      <trkpt lat="43.56002" lon="6.39363">
        <ele>402.4</ele>
        <time>2020-09-16T14:39:35Z</time>
      </trkpt>
      <trkpt lat="43.55999" lon="6.39365">
        <ele>402.1</ele>
        <time>2020-09-16T14:39:38Z</time>
      </trkpt>
      <trkpt lat="43.55996" lon="6.39368">
        <ele>401.8</ele>
        <time>2020-09-16T14:39:41Z</time>
      </trkpt>
      <trkpt lat="43.55992" lon="6.39371">
        <ele>401.5</ele>
        <time>2020-09-16T14:39:44Z</time>
      </trkpt>
      <trkpt lat="43.55989" lon="6.39374">
        <ele>401.3</ele>
        <time>2020-09-16T14:39:48Z</time>
      </trkpt>
      <trkpt lat="43.55986" lon="6.39376">
        <ele>400.9</ele>
        <time>2020-09-16T14:39:52Z</time>
      </trkpt>
      <trkpt lat="43.55982" lon="6.39379">
        <ele>400.3</ele>
        <time>2020-09-16T14:39:56Z</time>
      </trkpt>
      <trkpt lat="43.55979" lon="6.3938">
        <ele>400.2</ele>
        <time>2020-09-16T14:39:59Z</time>
      </trkpt>
      <trkpt lat="43.55976" lon="6.39383">
        <ele>399.8</ele>
        <time>2020-09-16T14:40:03Z</time>
      </trkpt>
      <trkpt lat="43.55975" lon="6.39384">
        <ele>399.7</ele>
        <time>2020-09-16T14:40:04Z</time>
      </trkpt>
      <trkpt lat="43.55969" lon="6.39388">
        <ele>399.3</ele>
        <time>2020-09-16T14:40:09Z</time>
      </trkpt>
      <trkpt lat="43.55965" lon="6.39391">
        <ele>399.1</ele>
        <time>2020-09-16T14:40:12Z</time>
      </trkpt>
      <trkpt lat="43.55961" lon="6.39394">
        <ele>398.9</ele>
        <time>2020-09-16T14:40:16Z</time>
      </trkpt>
      <trkpt lat="43.55958" lon="6.39397">
        <ele>398.8</ele>
        <time>2020-09-16T14:40:20Z</time>
      </trkpt>
      <trkpt lat="43.55955" lon="6.394">
        <ele>398.7</ele>
        <time>2020-09-16T14:40:23Z</time>
      </trkpt>
      <trkpt lat="43.55952" lon="6.39402">
        <ele>398.6</ele>
        <time>2020-09-16T14:40:26Z</time>
      </trkpt>
      <trkpt lat="43.55948" lon="6.39404">
        <ele>398.5</ele>
        <time>2020-09-16T14:40:29Z</time>
      </trkpt>
      <trkpt lat="43.55945" lon="6.39406">
        <ele>398.3</ele>
        <time>2020-09-16T14:40:32Z</time>
      </trkpt>
      <trkpt lat="43.55942" lon="6.39408">
        <ele>398.2</ele>
        <time>2020-09-16T14:40:35Z</time>
      </trkpt>
      <trkpt lat="43.55938" lon="6.39411">
        <ele>397.9</ele>
        <time>2020-09-16T14:40:38Z</time>
      </trkpt>
      <trkpt lat="43.55935" lon="6.39413">
        <ele>397.8</ele>
        <time>2020-09-16T14:40:41Z</time>
      </trkpt>
      <trkpt lat="43.55931" lon="6.39416">
        <ele>397.3</ele>
        <time>2020-09-16T14:40:45Z</time>
      </trkpt>
      <trkpt lat="43.55928" lon="6.39419">
        <ele>397.1</ele>
        <time>2020-09-16T14:40:48Z</time>
      </trkpt>
      <trkpt lat="43.55925" lon="6.39421">
        <ele>397.1</ele>
        <time>2020-09-16T14:40:51Z</time>
      </trkpt>
      <trkpt lat="43.55921" lon="6.39424">
        <ele>396.9</ele>
        <time>2020-09-16T14:40:56Z</time>
      </trkpt>
      <trkpt lat="43.55918" lon="6.39426">
        <ele>396.7</ele>
        <time>2020-09-16T14:40:58Z</time>
      </trkpt>
      <trkpt lat="43.55915" lon="6.39428">
        <ele>396.6</ele>
        <time>2020-09-16T14:41:01Z</time>
      </trkpt>
      <trkpt lat="43.55911" lon="6.39431">
        <ele>396.4</ele>
        <time>2020-09-16T14:41:05Z</time>
      </trkpt>
      <trkpt lat="43.5591" lon="6.39432">
        <ele>396.3</ele>
        <time>2020-09-16T14:41:06Z</time>
      </trkpt>
      <trkpt lat="43.55904" lon="6.39437">
        <ele>395.8</ele>
        <time>2020-09-16T14:41:13Z</time>
      </trkpt>
      <trkpt lat="43.559" lon="6.39439">
        <ele>395.8</ele>
        <time>2020-09-16T14:41:16Z</time>
      </trkpt>
      <trkpt lat="43.55897" lon="6.39441">
        <ele>395.8</ele>
        <time>2020-09-16T14:41:19Z</time>
      </trkpt>
      <trkpt lat="43.55893" lon="6.39443">
        <ele>395.6</ele>
        <time>2020-09-16T14:41:22Z</time>
      </trkpt>
      <trkpt lat="43.55889" lon="6.39443">
        <ele>395.4</ele>
        <time>2020-09-16T14:41:29Z</time>
      </trkpt>
      <trkpt lat="43.55884" lon="6.39444">
        <ele>395.4</ele>
        <time>2020-09-16T14:41:37Z</time>
      </trkpt>
      <trkpt lat="43.55882" lon="6.39447">
        <ele>395.6</ele>
        <time>2020-09-16T14:42:05Z</time>
      </trkpt>
      <trkpt lat="43.55878" lon="6.3945">
        <ele>395.7</ele>
        <time>2020-09-16T14:42:10Z</time>
      </trkpt>
      <trkpt lat="43.55877" lon="6.39451">
        <ele>395.7</ele>
        <time>2020-09-16T14:42:11Z</time>
      </trkpt>
      <trkpt lat="43.55871" lon="6.39454">
        <ele>395.7</ele>
        <time>2020-09-16T14:42:16Z</time>
      </trkpt>
      <trkpt lat="43.55868" lon="6.39456">
        <ele>395.5</ele>
        <time>2020-09-16T14:42:19Z</time>
      </trkpt>
      <trkpt lat="43.55864" lon="6.39459">
        <ele>395.4</ele>
        <time>2020-09-16T14:42:25Z</time>
      </trkpt>
      <trkpt lat="43.55862" lon="6.39463">
        <ele>395.3</ele>
        <time>2020-09-16T14:42:30Z</time>
      </trkpt>
      <trkpt lat="43.55858" lon="6.39466">
        <ele>395.2</ele>
        <time>2020-09-16T14:42:35Z</time>
      </trkpt>
      <trkpt lat="43.55854" lon="6.39467">
        <ele>395.2</ele>
        <time>2020-09-16T14:42:40Z</time>
      </trkpt>
      <trkpt lat="43.55851" lon="6.39467">
        <ele>395.1</ele>
        <time>2020-09-16T14:42:43Z</time>
      </trkpt>
      <trkpt lat="43.55847" lon="6.39467">
        <ele>395.1</ele>
        <time>2020-09-16T14:42:46Z</time>
      </trkpt>
      <trkpt lat="43.55844" lon="6.39466">
        <ele>395</ele>
        <time>2020-09-16T14:42:49Z</time>
      </trkpt>
      <trkpt lat="43.5584" lon="6.39466">
        <ele>395.1</ele>
        <time>2020-09-16T14:42:52Z</time>
      </trkpt>
      <trkpt lat="43.55837" lon="6.39465">
        <ele>395.1</ele>
        <time>2020-09-16T14:42:55Z</time>
      </trkpt>
      <trkpt lat="43.55833" lon="6.39464">
        <ele>395.2</ele>
        <time>2020-09-16T14:42:58Z</time>
      </trkpt>
      <trkpt lat="43.55829" lon="6.39465">
        <ele>395.4</ele>
        <time>2020-09-16T14:43:01Z</time>
      </trkpt>
      <trkpt lat="43.55825" lon="6.39464">
        <ele>395.4</ele>
        <time>2020-09-16T14:43:04Z</time>
      </trkpt>
      <trkpt lat="43.55821" lon="6.39465">
        <ele>395.4</ele>
        <time>2020-09-16T14:43:07Z</time>
      </trkpt>
      <trkpt lat="43.55817" lon="6.39466">
        <ele>395.3</ele>
        <time>2020-09-16T14:43:11Z</time>
      </trkpt>
      <trkpt lat="43.55816" lon="6.39466">
        <ele>395.3</ele>
        <time>2020-09-16T14:43:12Z</time>
      </trkpt>
      <trkpt lat="43.55809" lon="6.39467">
        <ele>395.2</ele>
        <time>2020-09-16T14:43:19Z</time>
      </trkpt>
      <trkpt lat="43.55805" lon="6.39468">
        <ele>395.2</ele>
        <time>2020-09-16T14:43:27Z</time>
      </trkpt>
      <trkpt lat="43.55801" lon="6.3947">
        <ele>395.2</ele>
        <time>2020-09-16T14:43:31Z</time>
      </trkpt>
      <trkpt lat="43.55798" lon="6.39472">
        <ele>395.1</ele>
        <time>2020-09-16T14:43:35Z</time>
      </trkpt>
      <trkpt lat="43.55795" lon="6.39475">
        <ele>395</ele>
        <time>2020-09-16T14:43:40Z</time>
      </trkpt>
      <trkpt lat="43.55792" lon="6.39478">
        <ele>395</ele>
        <time>2020-09-16T14:43:46Z</time>
      </trkpt>
      <trkpt lat="43.55788" lon="6.39482">
        <ele>395.2</ele>
        <time>2020-09-16T14:43:50Z</time>
      </trkpt>
      <trkpt lat="43.55784" lon="6.39485">
        <ele>395.4</ele>
        <time>2020-09-16T14:43:54Z</time>
      </trkpt>
      <trkpt lat="43.55782" lon="6.39488">
        <ele>395.5</ele>
        <time>2020-09-16T14:43:58Z</time>
      </trkpt>
      <trkpt lat="43.55779" lon="6.39492">
        <ele>395.5</ele>
        <time>2020-09-16T14:44:05Z</time>
      </trkpt>
      <trkpt lat="43.55777" lon="6.39497">
        <ele>395.7</ele>
        <time>2020-09-16T14:44:10Z</time>
      </trkpt>
      <trkpt lat="43.55774" lon="6.395">
        <ele>395.9</ele>
        <time>2020-09-16T14:44:14Z</time>
      </trkpt>
      <trkpt lat="43.55773" lon="6.39501">
        <ele>395.9</ele>
        <time>2020-09-16T14:44:15Z</time>
      </trkpt>
      <trkpt lat="43.55768" lon="6.39505">
        <ele>395.7</ele>
        <time>2020-09-16T14:44:23Z</time>
      </trkpt>
      <trkpt lat="43.55764" lon="6.39508">
        <ele>395.6</ele>
        <time>2020-09-16T14:44:26Z</time>
      </trkpt>
      <trkpt lat="43.55761" lon="6.39512">
        <ele>395.5</ele>
        <time>2020-09-16T14:44:29Z</time>
      </trkpt>
      <trkpt lat="43.55758" lon="6.39517">
        <ele>395.5</ele>
        <time>2020-09-16T14:44:32Z</time>
      </trkpt>
      <trkpt lat="43.55755" lon="6.39521">
        <ele>395.5</ele>
        <time>2020-09-16T14:44:35Z</time>
      </trkpt>
      <trkpt lat="43.55753" lon="6.39526">
        <ele>395.5</ele>
        <time>2020-09-16T14:44:38Z</time>
      </trkpt>
      <trkpt lat="43.55749" lon="6.3953">
        <ele>395.4</ele>
        <time>2020-09-16T14:44:41Z</time>
      </trkpt>
      <trkpt lat="43.55745" lon="6.39532">
        <ele>395.4</ele>
        <time>2020-09-16T14:44:45Z</time>
      </trkpt>
      <trkpt lat="43.55742" lon="6.39533">
        <ele>395.2</ele>
        <time>2020-09-16T14:44:48Z</time>
      </trkpt>
      <trkpt lat="43.55738" lon="6.39534">
        <ele>395.2</ele>
        <time>2020-09-16T14:44:51Z</time>
      </trkpt>
      <trkpt lat="43.55734" lon="6.39535">
        <ele>395.2</ele>
        <time>2020-09-16T14:44:55Z</time>
      </trkpt>
      <trkpt lat="43.5573" lon="6.39534">
        <ele>395.3</ele>
        <time>2020-09-16T14:45:02Z</time>
      </trkpt>
      <trkpt lat="43.55727" lon="6.39533">
        <ele>395.2</ele>
        <time>2020-09-16T14:45:05Z</time>
      </trkpt>
      <trkpt lat="43.55724" lon="6.39533">
        <ele>395.1</ele>
        <time>2020-09-16T14:45:07Z</time>
      </trkpt>
      <trkpt lat="43.55722" lon="6.39533">
        <ele>395</ele>
        <time>2020-09-16T14:45:09Z</time>
      </trkpt>
      <trkpt lat="43.55718" lon="6.39532">
        <ele>394.8</ele>
        <time>2020-09-16T14:45:14Z</time>
      </trkpt>
      <trkpt lat="43.55714" lon="6.3953">
        <ele>394.3</ele>
        <time>2020-09-16T14:45:21Z</time>
      </trkpt>
      <trkpt lat="43.55714" lon="6.3953">
        <ele>394.2</ele>
        <time>2020-09-16T14:45:22Z</time>
      </trkpt>
      <trkpt lat="43.55707" lon="6.39529">
        <ele>393.3</ele>
        <time>2020-09-16T14:45:30Z</time>
      </trkpt>
      <trkpt lat="43.55703" lon="6.39528">
        <ele>392.8</ele>
        <time>2020-09-16T14:45:34Z</time>
      </trkpt>
      <trkpt lat="43.55698" lon="6.39528">
        <ele>392.3</ele>
        <time>2020-09-16T14:45:38Z</time>
      </trkpt>
      <trkpt lat="43.55694" lon="6.39529">
        <ele>392</ele>
        <time>2020-09-16T14:45:41Z</time>
      </trkpt>
      <trkpt lat="43.5569" lon="6.39527">
        <ele>391.6</ele>
        <time>2020-09-16T14:45:45Z</time>
      </trkpt>
      <trkpt lat="43.55686" lon="6.39527">
        <ele>391.1</ele>
        <time>2020-09-16T14:45:49Z</time>
      </trkpt>
      <trkpt lat="43.55682" lon="6.39527">
        <ele>390.6</ele>
        <time>2020-09-16T14:45:54Z</time>
      </trkpt>
      <trkpt lat="43.55678" lon="6.39528">
        <ele>390.1</ele>
        <time>2020-09-16T14:45:57Z</time>
      </trkpt>
      <trkpt lat="43.55675" lon="6.39529">
        <ele>389.5</ele>
        <time>2020-09-16T14:46:00Z</time>
      </trkpt>
      <trkpt lat="43.5567" lon="6.39529">
        <ele>388.9</ele>
        <time>2020-09-16T14:46:04Z</time>
      </trkpt>
      <trkpt lat="43.55667" lon="6.39529">
        <ele>388.5</ele>
        <time>2020-09-16T14:46:07Z</time>
      </trkpt>
      <trkpt lat="43.55663" lon="6.39528">
        <ele>388.2</ele>
        <time>2020-09-16T14:46:11Z</time>
      </trkpt>
      <trkpt lat="43.55659" lon="6.39528">
        <ele>387.9</ele>
        <time>2020-09-16T14:46:14Z</time>
      </trkpt>
      <trkpt lat="43.55655" lon="6.39527">
        <ele>387.4</ele>
        <time>2020-09-16T14:46:18Z</time>
      </trkpt>
      <trkpt lat="43.55651" lon="6.39526">
        <ele>387</ele>
        <time>2020-09-16T14:46:21Z</time>
      </trkpt>
      <trkpt lat="43.55647" lon="6.39527">
        <ele>386.4</ele>
        <time>2020-09-16T14:46:29Z</time>
      </trkpt>
      <trkpt lat="43.55647" lon="6.39527">
        <ele>386.4</ele>
        <time>2020-09-16T14:46:30Z</time>
      </trkpt>
      <trkpt lat="43.55643" lon="6.39531">
        <ele>385.1</ele>
        <time>2020-09-16T14:46:47Z</time>
      </trkpt>
      <trkpt lat="43.55646" lon="6.39536">
        <ele>384.6</ele>
        <time>2020-09-16T14:46:52Z</time>
      </trkpt>
      <trkpt lat="43.55648" lon="6.39541">
        <ele>384.1</ele>
        <time>2020-09-16T14:46:57Z</time>
      </trkpt>
      <trkpt lat="43.5565" lon="6.39546">
        <ele>383.7</ele>
        <time>2020-09-16T14:47:02Z</time>
      </trkpt>
      <trkpt lat="43.55651" lon="6.3955">
        <ele>383.4</ele>
        <time>2020-09-16T14:47:06Z</time>
      </trkpt>
      <trkpt lat="43.55654" lon="6.39554">
        <ele>383.2</ele>
        <time>2020-09-16T14:47:09Z</time>
      </trkpt>
      <trkpt lat="43.55656" lon="6.39557">
        <ele>382.9</ele>
        <time>2020-09-16T14:47:12Z</time>
      </trkpt>
      <trkpt lat="43.55659" lon="6.3956">
        <ele>382.6</ele>
        <time>2020-09-16T14:47:15Z</time>
      </trkpt>
      <trkpt lat="43.55662" lon="6.39564">
        <ele>382.2</ele>
        <time>2020-09-16T14:47:18Z</time>
      </trkpt>
      <trkpt lat="43.55664" lon="6.39567">
        <ele>382</ele>
        <time>2020-09-16T14:47:21Z</time>
      </trkpt>
      <trkpt lat="43.55667" lon="6.39571">
        <ele>381.7</ele>
        <time>2020-09-16T14:47:24Z</time>
      </trkpt>
      <trkpt lat="43.55669" lon="6.39576">
        <ele>381.3</ele>
        <time>2020-09-16T14:47:28Z</time>
      </trkpt>
      <trkpt lat="43.55672" lon="6.3958">
        <ele>380.9</ele>
        <time>2020-09-16T14:47:32Z</time>
      </trkpt>
      <trkpt lat="43.55673" lon="6.39581">
        <ele>380.8</ele>
        <time>2020-09-16T14:47:33Z</time>
      </trkpt>
      <trkpt lat="43.55678" lon="6.39588">
        <ele>380.4</ele>
        <time>2020-09-16T14:47:40Z</time>
      </trkpt>
      <trkpt lat="43.55682" lon="6.39592">
        <ele>380.3</ele>
        <time>2020-09-16T14:47:44Z</time>
      </trkpt>
      <trkpt lat="43.55684" lon="6.39596">
        <ele>380.2</ele>
        <time>2020-09-16T14:47:47Z</time>
      </trkpt>
      <trkpt lat="43.55687" lon="6.39599">
        <ele>380.1</ele>
        <time>2020-09-16T14:47:50Z</time>
      </trkpt>
      <trkpt lat="43.5569" lon="6.39603">
        <ele>379.8</ele>
        <time>2020-09-16T14:47:54Z</time>
      </trkpt>
      <trkpt lat="43.55693" lon="6.39607">
        <ele>379.5</ele>
        <time>2020-09-16T14:47:58Z</time>
      </trkpt>
      <trkpt lat="43.55696" lon="6.39611">
        <ele>379.1</ele>
        <time>2020-09-16T14:48:03Z</time>
      </trkpt>
      <trkpt lat="43.55698" lon="6.39615">
        <ele>378.6</ele>
        <time>2020-09-16T14:48:07Z</time>
      </trkpt>
      <trkpt lat="43.55701" lon="6.39619">
        <ele>378.3</ele>
        <time>2020-09-16T14:48:11Z</time>
      </trkpt>
      <trkpt lat="43.55704" lon="6.39623">
        <ele>378.1</ele>
        <time>2020-09-16T14:48:15Z</time>
      </trkpt>
      <trkpt lat="43.55706" lon="6.39627">
        <ele>377.7</ele>
        <time>2020-09-16T14:48:19Z</time>
      </trkpt>
      <trkpt lat="43.55708" lon="6.3963">
        <ele>377.5</ele>
        <time>2020-09-16T14:48:22Z</time>
      </trkpt>
      <trkpt lat="43.55711" lon="6.39634">
        <ele>377.3</ele>
        <time>2020-09-16T14:48:25Z</time>
      </trkpt>
      <trkpt lat="43.55714" lon="6.39639">
        <ele>377.1</ele>
        <time>2020-09-16T14:48:29Z</time>
      </trkpt>
      <trkpt lat="43.55715" lon="6.39643">
        <ele>377</ele>
        <time>2020-09-16T14:48:34Z</time>
      </trkpt>
      <trkpt lat="43.55716" lon="6.39644">
        <ele>377</ele>
        <time>2020-09-16T14:48:35Z</time>
      </trkpt>
      <trkpt lat="43.5572" lon="6.39653">
        <ele>376.4</ele>
        <time>2020-09-16T14:48:42Z</time>
      </trkpt>
      <trkpt lat="43.55722" lon="6.39658">
        <ele>376.2</ele>
        <time>2020-09-16T14:48:46Z</time>
      </trkpt>
      <trkpt lat="43.55723" lon="6.39662">
        <ele>376</ele>
        <time>2020-09-16T14:48:50Z</time>
      </trkpt>
      <trkpt lat="43.55724" lon="6.39668">
        <ele>375.9</ele>
        <time>2020-09-16T14:48:54Z</time>
      </trkpt>
      <trkpt lat="43.55725" lon="6.39673">
        <ele>375.8</ele>
        <time>2020-09-16T14:48:58Z</time>
      </trkpt>
      <trkpt lat="43.55727" lon="6.39678">
        <ele>375.8</ele>
        <time>2020-09-16T14:49:03Z</time>
      </trkpt>
      <trkpt lat="43.55728" lon="6.39683">
        <ele>375.9</ele>
        <time>2020-09-16T14:49:08Z</time>
      </trkpt>
      <trkpt lat="43.5573" lon="6.39689">
        <ele>376</ele>
        <time>2020-09-16T14:49:12Z</time>
      </trkpt>
      <trkpt lat="43.55732" lon="6.39693">
        <ele>376.2</ele>
        <time>2020-09-16T14:49:20Z</time>
      </trkpt>
      <trkpt lat="43.55733" lon="6.39698">
        <ele>376.3</ele>
        <time>2020-09-16T14:49:25Z</time>
      </trkpt>
      <trkpt lat="43.55733" lon="6.39704">
        <ele>376.3</ele>
        <time>2020-09-16T14:49:31Z</time>
      </trkpt>
      <trkpt lat="43.55734" lon="6.3971">
        <ele>376.1</ele>
        <time>2020-09-16T14:49:36Z</time>
      </trkpt>
      <trkpt lat="43.55734" lon="6.39711">
        <ele>376.1</ele>
        <time>2020-09-16T14:49:37Z</time>
      </trkpt>
      <trkpt lat="43.55733" lon="6.3972">
        <ele>376.2</ele>
        <time>2020-09-16T14:49:42Z</time>
      </trkpt>
      <trkpt lat="43.55732" lon="6.39726">
        <ele>376.4</ele>
        <time>2020-09-16T14:49:46Z</time>
      </trkpt>
      <trkpt lat="43.55733" lon="6.39731">
        <ele>376.5</ele>
        <time>2020-09-16T14:49:50Z</time>
      </trkpt>
      <trkpt lat="43.55733" lon="6.39737">
        <ele>376.9</ele>
        <time>2020-09-16T14:49:57Z</time>
      </trkpt>
      <trkpt lat="43.55733" lon="6.39742">
        <ele>377.2</ele>
        <time>2020-09-16T14:50:03Z</time>
      </trkpt>
      <trkpt lat="43.55732" lon="6.39748">
        <ele>377.6</ele>
        <time>2020-09-16T14:50:11Z</time>
      </trkpt>
      <trkpt lat="43.55731" lon="6.39754">
        <ele>377.9</ele>
        <time>2020-09-16T14:50:18Z</time>
      </trkpt>
      <trkpt lat="43.55731" lon="6.3976">
        <ele>378.8</ele>
        <time>2020-09-16T14:50:29Z</time>
      </trkpt>
      <trkpt lat="43.55731" lon="6.39766">
        <ele>379.5</ele>
        <time>2020-09-16T14:50:37Z</time>
      </trkpt>
      <trkpt lat="43.55732" lon="6.39767">
        <ele>379.6</ele>
        <time>2020-09-16T14:50:38Z</time>
      </trkpt>
      <trkpt lat="43.55729" lon="6.39777">
        <ele>380.9</ele>
        <time>2020-09-16T14:50:49Z</time>
      </trkpt>
      <trkpt lat="43.55727" lon="6.39781">
        <ele>381.3</ele>
        <time>2020-09-16T14:50:53Z</time>
      </trkpt>
      <trkpt lat="43.55726" lon="6.39787">
        <ele>381.9</ele>
        <time>2020-09-16T14:50:59Z</time>
      </trkpt>
      <trkpt lat="43.55727" lon="6.39793">
        <ele>382.2</ele>
        <time>2020-09-16T14:51:03Z</time>
      </trkpt>
      <trkpt lat="43.55726" lon="6.39798">
        <ele>383.2</ele>
        <time>2020-09-16T14:51:11Z</time>
      </trkpt>
      <trkpt lat="43.55724" lon="6.39803">
        <ele>383.9</ele>
        <time>2020-09-16T14:51:17Z</time>
      </trkpt>
      <trkpt lat="43.55724" lon="6.39809">
        <ele>384.7</ele>
        <time>2020-09-16T14:51:24Z</time>
      </trkpt>
      <trkpt lat="43.55724" lon="6.39814">
        <ele>385.3</ele>
        <time>2020-09-16T14:51:29Z</time>
      </trkpt>
      <trkpt lat="43.55726" lon="6.39819">
        <ele>385.9</ele>
        <time>2020-09-16T14:51:34Z</time>
      </trkpt>
      <trkpt lat="43.55729" lon="6.39823">
        <ele>386.6</ele>
        <time>2020-09-16T14:51:41Z</time>
      </trkpt>
      <trkpt lat="43.5573" lon="6.39824">
        <ele>386.7</ele>
        <time>2020-09-16T14:51:42Z</time>
      </trkpt>
      <trkpt lat="43.55736" lon="6.3983">
        <ele>388.1</ele>
        <time>2020-09-16T14:51:54Z</time>
      </trkpt>
      <trkpt lat="43.5574" lon="6.39833">
        <ele>388.7</ele>
        <time>2020-09-16T14:51:59Z</time>
      </trkpt>
      <trkpt lat="43.55742" lon="6.39838">
        <ele>389.3</ele>
        <time>2020-09-16T14:52:05Z</time>
      </trkpt>
      <trkpt lat="43.55746" lon="6.3984">
        <ele>389.7</ele>
        <time>2020-09-16T14:52:10Z</time>
      </trkpt>
      <trkpt lat="43.5575" lon="6.39844">
        <ele>390.2</ele>
        <time>2020-09-16T14:52:16Z</time>
      </trkpt>
      <trkpt lat="43.55753" lon="6.39848">
        <ele>390.8</ele>
        <time>2020-09-16T14:52:21Z</time>
      </trkpt>
      <trkpt lat="43.55756" lon="6.39852">
        <ele>391.2</ele>
        <time>2020-09-16T14:52:25Z</time>
      </trkpt>
      <trkpt lat="43.55759" lon="6.39855">
        <ele>391.8</ele>
        <time>2020-09-16T14:52:31Z</time>
      </trkpt>
      <trkpt lat="43.55762" lon="6.39859">
        <ele>392.3</ele>
        <time>2020-09-16T14:52:38Z</time>
      </trkpt>
      <trkpt lat="43.55765" lon="6.39863">
        <ele>392.9</ele>
        <time>2020-09-16T14:52:45Z</time>
      </trkpt>
      <trkpt lat="43.55766" lon="6.39863">
        <ele>393</ele>
        <time>2020-09-16T14:52:46Z</time>
      </trkpt>
      <trkpt lat="43.55771" lon="6.3987">
        <ele>393.6</ele>
        <time>2020-09-16T14:52:58Z</time>
      </trkpt>
      <trkpt lat="43.55773" lon="6.39876">
        <ele>393.9</ele>
        <time>2020-09-16T14:53:04Z</time>
      </trkpt>
      <trkpt lat="43.55774" lon="6.39881">
        <ele>394.1</ele>
        <time>2020-09-16T14:53:09Z</time>
      </trkpt>
      <trkpt lat="43.55774" lon="6.39886">
        <ele>394.4</ele>
        <time>2020-09-16T14:53:15Z</time>
      </trkpt>
      <trkpt lat="43.55775" lon="6.39892">
        <ele>394.7</ele>
        <time>2020-09-16T14:53:20Z</time>
      </trkpt>
      <trkpt lat="43.55775" lon="6.39898">
        <ele>395.2</ele>
        <time>2020-09-16T14:53:25Z</time>
      </trkpt>
      <trkpt lat="43.55776" lon="6.39903">
        <ele>395.6</ele>
        <time>2020-09-16T14:53:30Z</time>
      </trkpt>
      <trkpt lat="43.55777" lon="6.39908">
        <ele>395.8</ele>
        <time>2020-09-16T14:53:33Z</time>
      </trkpt>
      <trkpt lat="43.55778" lon="6.39913">
        <ele>396.2</ele>
        <time>2020-09-16T14:53:37Z</time>
      </trkpt>
      <trkpt lat="43.5578" lon="6.39918">
        <ele>396.5</ele>
        <time>2020-09-16T14:53:40Z</time>
      </trkpt>
      <trkpt lat="43.55781" lon="6.39924">
        <ele>396.8</ele>
        <time>2020-09-16T14:53:44Z</time>
      </trkpt>
      <trkpt lat="43.55782" lon="6.39929">
        <ele>397.1</ele>
        <time>2020-09-16T14:53:48Z</time>
      </trkpt>
      <trkpt lat="43.55782" lon="6.39931">
        <ele>397.2</ele>
        <time>2020-09-16T14:53:49Z</time>
      </trkpt>
      <trkpt lat="43.55783" lon="6.3994">
        <ele>397.8</ele>
        <time>2020-09-16T14:53:56Z</time>
      </trkpt>
      <trkpt lat="43.55783" lon="6.39946">
        <ele>398.3</ele>
        <time>2020-09-16T14:54:01Z</time>
      </trkpt>
      <trkpt lat="43.55784" lon="6.39952">
        <ele>398.7</ele>
        <time>2020-09-16T14:54:06Z</time>
      </trkpt>
      <trkpt lat="43.55785" lon="6.39957">
        <ele>399.6</ele>
        <time>2020-09-16T14:54:14Z</time>
      </trkpt>
      <trkpt lat="43.55784" lon="6.39963">
        <ele>400.4</ele>
        <time>2020-09-16T14:54:24Z</time>
      </trkpt>
      <trkpt lat="43.55781" lon="6.39967">
        <ele>401.1</ele>
        <time>2020-09-16T14:54:30Z</time>
      </trkpt>
      <trkpt lat="43.55778" lon="6.39971">
        <ele>401.7</ele>
        <time>2020-09-16T14:54:35Z</time>
      </trkpt>
      <trkpt lat="43.55777" lon="6.39976">
        <ele>402.1</ele>
        <time>2020-09-16T14:54:39Z</time>
      </trkpt>
      <trkpt lat="43.55775" lon="6.39981">
        <ele>402.6</ele>
        <time>2020-09-16T14:54:43Z</time>
      </trkpt>
      <trkpt lat="43.55773" lon="6.39985">
        <ele>403.1</ele>
        <time>2020-09-16T14:54:48Z</time>
      </trkpt>
      <trkpt lat="43.55771" lon="6.3999">
        <ele>403.8</ele>
        <time>2020-09-16T14:54:55Z</time>
      </trkpt>
      <trkpt lat="43.55771" lon="6.39991">
        <ele>403.9</ele>
        <time>2020-09-16T14:54:56Z</time>
      </trkpt>
      <trkpt lat="43.55773" lon="6.40001">
        <ele>404.8</ele>
        <time>2020-09-16T14:55:05Z</time>
      </trkpt>
      <trkpt lat="43.55774" lon="6.40006">
        <ele>405.1</ele>
        <time>2020-09-16T14:55:08Z</time>
      </trkpt>
      <trkpt lat="43.55774" lon="6.40011">
        <ele>405.5</ele>
        <time>2020-09-16T14:55:12Z</time>
      </trkpt>
      <trkpt lat="43.55774" lon="6.40017">
        <ele>405.7</ele>
        <time>2020-09-16T14:55:17Z</time>
      </trkpt>
      <trkpt lat="43.55775" lon="6.40022">
        <ele>405.9</ele>
        <time>2020-09-16T14:55:21Z</time>
      </trkpt>
      <trkpt lat="43.55774" lon="6.40027">
        <ele>406</ele>
        <time>2020-09-16T14:55:25Z</time>
      </trkpt>
      <trkpt lat="43.55773" lon="6.40033">
        <ele>406.3</ele>
        <time>2020-09-16T14:55:29Z</time>
      </trkpt>
      <trkpt lat="43.55774" lon="6.40039">
        <ele>406.6</ele>
        <time>2020-09-16T14:55:35Z</time>
      </trkpt>
      <trkpt lat="43.55772" lon="6.40044">
        <ele>407</ele>
        <time>2020-09-16T14:55:42Z</time>
      </trkpt>
      <trkpt lat="43.5577" lon="6.40049">
        <ele>407.3</ele>
        <time>2020-09-16T14:55:47Z</time>
      </trkpt>
      <trkpt lat="43.55768" lon="6.40054">
        <ele>407.8</ele>
        <time>2020-09-16T14:55:54Z</time>
      </trkpt>
      <trkpt lat="43.55767" lon="6.4006">
        <ele>408.2</ele>
        <time>2020-09-16T14:56:00Z</time>
      </trkpt>
      <trkpt lat="43.55767" lon="6.40061">
        <ele>408.3</ele>
        <time>2020-09-16T14:56:01Z</time>
      </trkpt>
      <trkpt lat="43.55767" lon="6.4007">
        <ele>408.9</ele>
        <time>2020-09-16T14:56:09Z</time>
      </trkpt>
      <trkpt lat="43.55768" lon="6.40076">
        <ele>409.2</ele>
        <time>2020-09-16T14:56:13Z</time>
      </trkpt>
      <trkpt lat="43.55769" lon="6.40081">
        <ele>409.6</ele>
        <time>2020-09-16T14:56:17Z</time>
      </trkpt>
      <trkpt lat="43.55769" lon="6.40087">
        <ele>410</ele>
        <time>2020-09-16T14:56:21Z</time>
      </trkpt>
      <trkpt lat="43.55771" lon="6.40091">
        <ele>410.2</ele>
        <time>2020-09-16T14:56:24Z</time>
      </trkpt>
      <trkpt lat="43.55771" lon="6.40097">
        <ele>410.5</ele>
        <time>2020-09-16T14:56:28Z</time>
      </trkpt>
      <trkpt lat="43.55772" lon="6.40102">
        <ele>411.1</ele>
        <time>2020-09-16T14:56:34Z</time>
      </trkpt>
      <trkpt lat="43.55773" lon="6.40108">
        <ele>411.9</ele>
        <time>2020-09-16T14:56:41Z</time>
      </trkpt>
      <trkpt lat="43.55774" lon="6.40113">
        <ele>412.6</ele>
        <time>2020-09-16T14:56:47Z</time>
      </trkpt>
      <trkpt lat="43.55774" lon="6.40119">
        <ele>413.1</ele>
        <time>2020-09-16T14:56:53Z</time>
      </trkpt>
      <trkpt lat="43.55773" lon="6.40125">
        <ele>413.9</ele>
        <time>2020-09-16T14:57:00Z</time>
      </trkpt>
      <trkpt lat="43.55773" lon="6.40131">
        <ele>414.7</ele>
        <time>2020-09-16T14:57:07Z</time>
      </trkpt>
      <trkpt lat="43.55773" lon="6.40131">
        <ele>414.8</ele>
        <time>2020-09-16T14:57:08Z</time>
      </trkpt>
      <trkpt lat="43.55773" lon="6.40141">
        <ele>415.6</ele>
        <time>2020-09-16T14:57:17Z</time>
      </trkpt>
      <trkpt lat="43.55773" lon="6.40147">
        <ele>415.9</ele>
        <time>2020-09-16T14:57:21Z</time>
      </trkpt>
      <trkpt lat="43.55773" lon="6.40152">
        <ele>416.2</ele>
        <time>2020-09-16T14:57:26Z</time>
      </trkpt>
      <trkpt lat="43.55774" lon="6.40157">
        <ele>416.5</ele>
        <time>2020-09-16T14:57:29Z</time>
      </trkpt>
      <trkpt lat="43.55774" lon="6.40163">
        <ele>416.7</ele>
        <time>2020-09-16T14:57:32Z</time>
      </trkpt>
      <trkpt lat="43.55774" lon="6.40168">
        <ele>416.9</ele>
        <time>2020-09-16T14:57:36Z</time>
      </trkpt>
      <trkpt lat="43.55774" lon="6.40174">
        <ele>417.3</ele>
        <time>2020-09-16T14:57:40Z</time>
      </trkpt>
      <trkpt lat="43.55775" lon="6.40179">
        <ele>417.5</ele>
        <time>2020-09-16T14:57:45Z</time>
      </trkpt>
      <trkpt lat="43.55775" lon="6.40185">
        <ele>417.8</ele>
        <time>2020-09-16T14:57:50Z</time>
      </trkpt>
      <trkpt lat="43.55773" lon="6.40191">
        <ele>418</ele>
        <time>2020-09-16T14:57:55Z</time>
      </trkpt>
      <trkpt lat="43.55772" lon="6.40196">
        <ele>418.1</ele>
        <time>2020-09-16T14:58:00Z</time>
      </trkpt>
      <trkpt lat="43.55772" lon="6.40202">
        <ele>418.6</ele>
        <time>2020-09-16T14:58:06Z</time>
      </trkpt>
      <trkpt lat="43.55772" lon="6.40208">
        <ele>418.8</ele>
        <time>2020-09-16T14:58:11Z</time>
      </trkpt>
      <trkpt lat="43.55773" lon="6.40209">
        <ele>418.9</ele>
        <time>2020-09-16T14:58:12Z</time>
      </trkpt>
      <trkpt lat="43.55774" lon="6.40219">
        <ele>419</ele>
        <time>2020-09-16T14:58:19Z</time>
      </trkpt>
      <trkpt lat="43.55775" lon="6.40225">
        <ele>418.8</ele>
        <time>2020-09-16T14:58:23Z</time>
      </trkpt>
      <trkpt lat="43.55776" lon="6.40229">
        <ele>418.8</ele>
        <time>2020-09-16T14:58:26Z</time>
      </trkpt>
      <trkpt lat="43.55776" lon="6.40234">
        <ele>418.7</ele>
        <time>2020-09-16T14:58:29Z</time>
      </trkpt>
      <trkpt lat="43.55778" lon="6.40239">
        <ele>418.6</ele>
        <time>2020-09-16T14:58:33Z</time>
      </trkpt>
      <trkpt lat="43.5578" lon="6.40245">
        <ele>418.5</ele>
        <time>2020-09-16T14:58:37Z</time>
      </trkpt>
      <trkpt lat="43.55783" lon="6.40249">
        <ele>418.4</ele>
        <time>2020-09-16T14:58:41Z</time>
      </trkpt>
      <trkpt lat="43.55785" lon="6.40253">
        <ele>418.3</ele>
        <time>2020-09-16T14:58:45Z</time>
      </trkpt>
      <trkpt lat="43.55788" lon="6.40258">
        <ele>418.1</ele>
        <time>2020-09-16T14:58:54Z</time>
      </trkpt>
      <trkpt lat="43.5579" lon="6.40263">
        <ele>418.1</ele>
        <time>2020-09-16T14:59:03Z</time>
      </trkpt>
      <trkpt lat="43.55789" lon="6.40269">
        <ele>418.3</ele>
        <time>2020-09-16T14:59:19Z</time>
      </trkpt>
      <trkpt lat="43.55789" lon="6.4027">
        <ele>418.3</ele>
        <time>2020-09-16T14:59:20Z</time>
      </trkpt>
    </trkseg>
  </trk>
</gpx>